<?xml version="1.0" encoding="UTF-8" standalone="no" ?>
<gpx xmlns="http://www.topografix.com/GPX/1/1" xmlns:xsi="http://www.w3.org/2001/XMLSchema-instance" xsi:schemaLocation="http://www.topografix.com/GPX/1/1 http://www.topografix.com/GPX/1/1/gpx.xsd" version="1.1" creator="VisuGPX - https://www.visugpx.com">
  <metadata>
    <name>Lachassagne</name>
  </metadata>
  <trk>
    <name><![CDATA[Lachassagne_1]]></name>
    <desc><![CDATA[]]></desc>
    <trkseg>
      <trkpt lat="45.91584" lon="4.70823">
        <ele>186.89</ele>
        <time>2025-10-23T13:59:51.646Z</time>
        <extensions>
          <visugpx:TrkExtension xmlns:visugpx="https://www.visugpx.com/editgpx/">
            <visugpx:node>1</visugpx:node>
            </visugpx:TrkExtension>
        </extensions>
      </trkpt>
      <trkpt lat="45.91567" lon="4.70814">
        <ele>186.91</ele>
        <time>2025-10-23T13:59:57.658Z</time>
      </trkpt>
      <trkpt lat="45.91566" lon="4.70813">
        <ele>186.99</ele>
        <time>2025-10-23T14:00:03.670Z</time>
      </trkpt>
      <trkpt lat="45.91565" lon="4.708">
        <ele>187.12</ele>
        <time>2025-10-23T14:00:09.686Z</time>
      </trkpt>
      <trkpt lat="45.91563" lon="4.70773">
        <ele>187.32</ele>
        <time>2025-10-23T14:00:15.710Z</time>
      </trkpt>
      <trkpt lat="45.91562" lon="4.70763">
        <ele>187.54</ele>
        <time>2025-10-23T14:00:21.737Z</time>
      </trkpt>
      <trkpt lat="45.91562" lon="4.7076">
        <ele>187.78</ele>
        <time>2025-10-23T14:00:27.765Z</time>
      </trkpt>
      <trkpt lat="45.91561" lon="4.70753">
        <ele>188.07</ele>
        <time>2025-10-23T14:00:33.795Z</time>
      </trkpt>
      <trkpt lat="45.91561" lon="4.70749">
        <ele>188.39</ele>
        <time>2025-10-23T14:00:39.826Z</time>
      </trkpt>
      <trkpt lat="45.91561" lon="4.70744">
        <ele>188.75</ele>
        <time>2025-10-23T14:00:45.858Z</time>
      </trkpt>
      <trkpt lat="45.9156" lon="4.70733">
        <ele>189.16</ele>
        <time>2025-10-23T14:00:51.894Z</time>
      </trkpt>
      <trkpt lat="45.91569" lon="4.7063">
        <ele>194.21</ele>
        <extensions>
          <visugpx:TrkExtension xmlns:visugpx="https://www.visugpx.com/editgpx/">
            <visugpx:node>2</visugpx:node>
            </visugpx:TrkExtension>
        </extensions>
      </trkpt>
      <trkpt lat="45.91569" lon="4.7063">
        <ele>194.21</ele>
        <time>2025-10-23T12:23:09.658Z</time>
      </trkpt>
      <trkpt lat="45.91569" lon="4.70627">
        <ele>194.66</ele>
        <time>2025-10-23T12:23:10.104Z</time>
      </trkpt>
      <trkpt lat="45.91566" lon="4.70587">
        <ele>196.84</ele>
        <time>2025-10-23T12:23:12.367Z</time>
      </trkpt>
      <trkpt lat="45.91566" lon="4.70584">
        <ele>197.21</ele>
        <time>2025-10-23T12:23:12.825Z</time>
      </trkpt>
      <trkpt lat="45.91563" lon="4.70564">
        <ele>197.65</ele>
        <time>2025-10-23T12:23:13.289Z</time>
      </trkpt>
      <trkpt lat="45.91563" lon="4.70557">
        <ele>197.98</ele>
        <time>2025-10-23T12:23:13.755Z</time>
      </trkpt>
      <trkpt lat="45.91559" lon="4.70536">
        <ele>198.33</ele>
        <time>2025-10-23T12:23:14.227Z</time>
      </trkpt>
      <trkpt lat="45.91558" lon="4.70534">
        <ele>198.57</ele>
        <time>2025-10-23T12:23:14.700Z</time>
      </trkpt>
      <trkpt lat="45.91555" lon="4.70531">
        <ele>198.78</ele>
        <time>2025-10-23T12:23:15.175Z</time>
      </trkpt>
      <trkpt lat="45.91551" lon="4.7053">
        <ele>198.95</ele>
        <time>2025-10-23T12:23:15.651Z</time>
      </trkpt>
      <trkpt lat="45.91534" lon="4.70529">
        <ele>199.06</ele>
        <time>2025-10-23T12:23:16.135Z</time>
      </trkpt>
      <trkpt lat="45.91516" lon="4.70532">
        <ele>199.09</ele>
        <time>2025-10-23T12:23:16.626Z</time>
      </trkpt>
      <trkpt lat="45.91514" lon="4.70534">
        <ele>199.13</ele>
        <time>2025-10-23T12:23:17.118Z</time>
      </trkpt>
      <trkpt lat="45.91511" lon="4.70536">
        <ele>199.15</ele>
        <time>2025-10-23T12:23:17.611Z</time>
      </trkpt>
      <trkpt lat="45.91509" lon="4.70537">
        <ele>199.14</ele>
        <time>2025-10-23T12:23:18.105Z</time>
      </trkpt>
      <trkpt lat="45.91487" lon="4.7056">
        <ele>199.03</ele>
        <time>2025-10-23T12:23:19.109Z</time>
      </trkpt>
      <trkpt lat="45.91469" lon="4.70571">
        <ele>198.94</ele>
        <time>2025-10-23T12:23:19.623Z</time>
      </trkpt>
      <trkpt lat="45.91462" lon="4.70573">
        <ele>198.87</ele>
        <time>2025-10-23T12:23:20.140Z</time>
      </trkpt>
      <trkpt lat="45.91446" lon="4.70576">
        <ele>198.82</ele>
        <time>2025-10-23T12:23:20.663Z</time>
      </trkpt>
      <trkpt lat="45.91426" lon="4.70577">
        <ele>198.69</ele>
        <time>2025-10-23T12:23:21.195Z</time>
      </trkpt>
      <trkpt lat="45.91424" lon="4.70577">
        <ele>198.57</ele>
        <time>2025-10-23T12:23:21.727Z</time>
      </trkpt>
      <trkpt lat="45.91417" lon="4.70577">
        <ele>198.43</ele>
        <time>2025-10-23T12:23:22.262Z</time>
      </trkpt>
      <trkpt lat="45.91412" lon="4.70576">
        <ele>198.3</ele>
        <time>2025-10-23T12:23:22.799Z</time>
      </trkpt>
      <trkpt lat="45.91404" lon="4.70575">
        <ele>198.17</ele>
        <time>2025-10-23T12:23:23.340Z</time>
      </trkpt>
      <trkpt lat="45.91402" lon="4.70574">
        <ele>198.04</ele>
        <time>2025-10-23T12:23:23.882Z</time>
      </trkpt>
      <trkpt lat="45.91386" lon="4.70566">
        <ele>197.92</ele>
        <time>2025-10-23T12:23:24.431Z</time>
      </trkpt>
      <trkpt lat="45.9137" lon="4.70556">
        <ele>197.8</ele>
        <time>2025-10-23T12:23:24.987Z</time>
      </trkpt>
      <trkpt lat="45.91368" lon="4.70555">
        <ele>197.7</ele>
        <time>2025-10-23T12:23:25.544Z</time>
      </trkpt>
      <trkpt lat="45.91357" lon="4.70557">
        <ele>197.6</ele>
        <time>2025-10-23T12:23:26.105Z</time>
      </trkpt>
      <trkpt lat="45.91354" lon="4.70557">
        <ele>197.53</ele>
        <time>2025-10-23T12:23:26.667Z</time>
      </trkpt>
      <trkpt lat="45.91334" lon="4.70558">
        <ele>197.44</ele>
        <time>2025-10-23T12:23:27.238Z</time>
      </trkpt>
      <trkpt lat="45.91287" lon="4.70565">
        <ele>197.46</ele>
        <time>2025-10-23T12:23:29.569Z</time>
      </trkpt>
      <trkpt lat="45.91267" lon="4.70566">
        <ele>197.62</ele>
        <time>2025-10-23T12:23:30.766Z</time>
      </trkpt>
      <trkpt lat="45.91213" lon="4.70561">
        <ele>198.19</ele>
        <time>2025-10-23T12:23:33.215Z</time>
      </trkpt>
      <trkpt lat="45.91206" lon="4.7056">
        <ele>198.36</ele>
        <time>2025-10-23T12:23:33.839Z</time>
      </trkpt>
      <trkpt lat="45.9119" lon="4.70557">
        <ele>198.55</ele>
        <time>2025-10-23T12:23:34.470Z</time>
      </trkpt>
      <trkpt lat="45.91188" lon="4.70557">
        <ele>198.71</ele>
        <time>2025-10-23T12:23:35.102Z</time>
      </trkpt>
      <trkpt lat="45.9117" lon="4.70556">
        <ele>198.89</ele>
        <time>2025-10-23T12:23:35.741Z</time>
      </trkpt>
      <trkpt lat="45.91168" lon="4.70555">
        <ele>199.06</ele>
        <time>2025-10-23T12:23:36.381Z</time>
      </trkpt>
      <trkpt lat="45.91149" lon="4.70554">
        <ele>199.26</ele>
        <time>2025-10-23T12:23:37.029Z</time>
      </trkpt>
      <trkpt lat="45.91146" lon="4.70554">
        <ele>199.42</ele>
        <time>2025-10-23T12:23:37.678Z</time>
      </trkpt>
      <trkpt lat="45.91127" lon="4.70551">
        <ele>199.53</ele>
        <time>2025-10-23T12:23:38.335Z</time>
      </trkpt>
      <trkpt lat="45.91116" lon="4.70547">
        <ele>199.67</ele>
        <time>2025-10-23T12:23:38.997Z</time>
      </trkpt>
      <trkpt lat="45.91111" lon="4.70546">
        <ele>199.83</ele>
        <time>2025-10-23T12:23:39.661Z</time>
      </trkpt>
      <trkpt lat="45.91109" lon="4.70545">
        <ele>200</ele>
        <time>2025-10-23T12:23:40.326Z</time>
      </trkpt>
      <trkpt lat="45.9109" lon="4.7054">
        <ele>200.16</ele>
        <time>2025-10-23T12:23:40.999Z</time>
      </trkpt>
      <trkpt lat="45.91088" lon="4.70539">
        <ele>200.34</ele>
        <time>2025-10-23T12:23:41.673Z</time>
      </trkpt>
      <trkpt lat="45.91083" lon="4.70539">
        <ele>200.53</ele>
        <time>2025-10-23T12:23:42.349Z</time>
      </trkpt>
      <trkpt lat="45.91072" lon="4.70541">
        <ele>200.72</ele>
        <time>2025-10-23T12:23:43.029Z</time>
      </trkpt>
      <trkpt lat="45.91069" lon="4.70542">
        <ele>200.9</ele>
        <time>2025-10-23T12:23:43.711Z</time>
      </trkpt>
      <trkpt lat="45.9106" lon="4.70544">
        <ele>201.08</ele>
        <time>2025-10-23T12:23:44.396Z</time>
      </trkpt>
      <trkpt lat="45.91048" lon="4.70547">
        <ele>201.29</ele>
        <time>2025-10-23T12:23:45.086Z</time>
      </trkpt>
      <trkpt lat="45.91033" lon="4.70554">
        <ele>201.5</ele>
        <time>2025-10-23T12:23:45.783Z</time>
      </trkpt>
      <trkpt lat="45.91031" lon="4.70555">
        <ele>201.69</ele>
        <time>2025-10-23T12:23:46.481Z</time>
      </trkpt>
      <trkpt lat="45.91019" lon="4.70553">
        <ele>201.88</ele>
        <time>2025-10-23T12:23:47.184Z</time>
      </trkpt>
      <trkpt lat="45.91018" lon="4.70552">
        <ele>202.08</ele>
        <time>2025-10-23T12:23:47.888Z</time>
      </trkpt>
      <trkpt lat="45.91011" lon="4.70535">
        <ele>202.31</ele>
        <time>2025-10-23T12:23:48.597Z</time>
      </trkpt>
      <trkpt lat="45.9101" lon="4.70532">
        <ele>202.51</ele>
        <time>2025-10-23T12:23:49.307Z</time>
      </trkpt>
      <trkpt lat="45.91007" lon="4.70523">
        <ele>202.72</ele>
        <time>2025-10-23T12:23:50.020Z</time>
      </trkpt>
      <trkpt lat="45.91001" lon="4.70515">
        <ele>202.93</ele>
        <time>2025-10-23T12:23:50.737Z</time>
      </trkpt>
      <trkpt lat="45.90994" lon="4.70504">
        <ele>203.14</ele>
        <time>2025-10-23T12:23:51.458Z</time>
      </trkpt>
      <trkpt lat="45.90989" lon="4.70498">
        <ele>203.34</ele>
        <time>2025-10-23T12:23:52.181Z</time>
      </trkpt>
      <trkpt lat="45.90985" lon="4.70492">
        <ele>203.53</ele>
        <time>2025-10-23T12:23:52.907Z</time>
      </trkpt>
      <trkpt lat="45.90976" lon="4.70475">
        <ele>203.74</ele>
        <time>2025-10-23T12:23:53.639Z</time>
      </trkpt>
      <trkpt lat="45.90975" lon="4.70473">
        <ele>203.92</ele>
        <time>2025-10-23T12:23:54.372Z</time>
      </trkpt>
      <trkpt lat="45.90974" lon="4.70472">
        <ele>204.09</ele>
        <time>2025-10-23T12:23:55.105Z</time>
      </trkpt>
      <trkpt lat="45.9097" lon="4.70466">
        <ele>204.27</ele>
        <time>2025-10-23T12:23:55.841Z</time>
      </trkpt>
      <trkpt lat="45.9096" lon="4.70452">
        <ele>204.45</ele>
        <time>2025-10-23T12:23:56.583Z</time>
      </trkpt>
      <trkpt lat="45.90956" lon="4.70446">
        <ele>204.61</ele>
        <time>2025-10-23T12:23:57.327Z</time>
      </trkpt>
      <trkpt lat="45.90947" lon="4.7043">
        <ele>204.78</ele>
        <time>2025-10-23T12:23:58.077Z</time>
      </trkpt>
      <trkpt lat="45.90945" lon="4.70428">
        <ele>204.91</ele>
        <time>2025-10-23T12:23:58.828Z</time>
      </trkpt>
      <trkpt lat="45.90942" lon="4.70426">
        <ele>205.04</ele>
        <time>2025-10-23T12:23:59.580Z</time>
      </trkpt>
      <trkpt lat="45.90934" lon="4.70418">
        <ele>205.17</ele>
        <time>2025-10-23T12:24:00.336Z</time>
      </trkpt>
      <trkpt lat="45.90933" lon="4.70417">
        <ele>205.29</ele>
        <time>2025-10-23T12:24:01.093Z</time>
      </trkpt>
      <trkpt lat="45.90923" lon="4.70414">
        <ele>205.4</ele>
        <time>2025-10-23T12:24:01.854Z</time>
      </trkpt>
      <trkpt lat="45.90921" lon="4.70413">
        <ele>205.5</ele>
        <time>2025-10-23T12:24:02.616Z</time>
      </trkpt>
      <trkpt lat="45.90908" lon="4.70406">
        <ele>205.61</ele>
        <time>2025-10-23T12:24:03.384Z</time>
      </trkpt>
      <trkpt lat="45.90899" lon="4.70401">
        <ele>205.71</ele>
        <time>2025-10-23T12:24:04.156Z</time>
      </trkpt>
      <trkpt lat="45.90891" lon="4.70396">
        <ele>205.8</ele>
        <time>2025-10-23T12:24:04.931Z</time>
      </trkpt>
      <trkpt lat="45.90886" lon="4.70395">
        <ele>205.9</ele>
        <time>2025-10-23T12:24:05.708Z</time>
      </trkpt>
      <trkpt lat="45.90882" lon="4.70395">
        <ele>205.99</ele>
        <time>2025-10-23T12:24:06.487Z</time>
      </trkpt>
      <trkpt lat="45.90873" lon="4.70395">
        <ele>206.08</ele>
        <time>2025-10-23T12:24:07.270Z</time>
      </trkpt>
      <trkpt lat="45.90869" lon="4.70394">
        <ele>206.18</ele>
        <time>2025-10-23T12:24:08.054Z</time>
      </trkpt>
      <trkpt lat="45.90865" lon="4.70393">
        <ele>206.3</ele>
        <time>2025-10-23T12:24:08.840Z</time>
      </trkpt>
      <trkpt lat="45.90863" lon="4.70393">
        <ele>206.41</ele>
        <time>2025-10-23T12:24:09.627Z</time>
      </trkpt>
      <trkpt lat="45.90847" lon="4.70385">
        <ele>206.56</ele>
        <time>2025-10-23T12:24:10.421Z</time>
      </trkpt>
      <trkpt lat="45.90844" lon="4.70383">
        <ele>206.7</ele>
        <time>2025-10-23T12:24:11.216Z</time>
      </trkpt>
      <trkpt lat="45.90841" lon="4.70381">
        <ele>206.85</ele>
        <time>2025-10-23T12:24:12.013Z</time>
      </trkpt>
      <trkpt lat="45.90833" lon="4.70376">
        <ele>207.02</ele>
        <time>2025-10-23T12:24:12.813Z</time>
      </trkpt>
      <trkpt lat="45.9082" lon="4.70368">
        <ele>207.2</ele>
        <time>2025-10-23T12:24:13.619Z</time>
      </trkpt>
      <trkpt lat="45.90818" lon="4.70367">
        <ele>207.41</ele>
        <time>2025-10-23T12:24:14.426Z</time>
      </trkpt>
      <trkpt lat="45.90807" lon="4.70362">
        <ele>207.63</ele>
        <time>2025-10-23T12:24:15.238Z</time>
      </trkpt>
      <trkpt lat="45.90805" lon="4.70361">
        <ele>207.87</ele>
        <time>2025-10-23T12:24:16.051Z</time>
      </trkpt>
      <trkpt lat="45.90799" lon="4.70359">
        <ele>208.15</ele>
        <time>2025-10-23T12:24:16.866Z</time>
      </trkpt>
      <trkpt lat="45.90795" lon="4.70356">
        <ele>208.45</ele>
        <time>2025-10-23T12:24:17.683Z</time>
      </trkpt>
      <trkpt lat="45.90793" lon="4.70354">
        <ele>208.78</ele>
        <time>2025-10-23T12:24:18.501Z</time>
      </trkpt>
      <trkpt lat="45.90789" lon="4.7035">
        <ele>209.15</ele>
        <time>2025-10-23T12:24:19.321Z</time>
      </trkpt>
      <trkpt lat="45.90785" lon="4.70348">
        <ele>209.56</ele>
        <time>2025-10-23T12:24:20.143Z</time>
      </trkpt>
      <trkpt lat="45.90769" lon="4.70339">
        <ele>210.05</ele>
        <time>2025-10-23T12:24:20.972Z</time>
      </trkpt>
      <trkpt lat="45.90767" lon="4.70337">
        <ele>210.51</ele>
        <time>2025-10-23T12:24:21.802Z</time>
      </trkpt>
      <trkpt lat="45.90754" lon="4.70328">
        <ele>211.08</ele>
        <time>2025-10-23T12:24:22.638Z</time>
      </trkpt>
      <trkpt lat="45.90748" lon="4.70323">
        <ele>211.63</ele>
        <time>2025-10-23T12:24:23.477Z</time>
      </trkpt>
      <trkpt lat="45.90742" lon="4.70318">
        <ele>212.2</ele>
        <time>2025-10-23T12:24:24.319Z</time>
      </trkpt>
      <trkpt lat="45.90738" lon="4.70315">
        <ele>212.77</ele>
        <time>2025-10-23T12:24:25.163Z</time>
      </trkpt>
      <trkpt lat="45.9073" lon="4.70309">
        <ele>213.39</ele>
        <time>2025-10-23T12:24:26.010Z</time>
      </trkpt>
      <trkpt lat="45.9072" lon="4.70304">
        <ele>214</ele>
        <time>2025-10-23T12:24:26.862Z</time>
      </trkpt>
      <trkpt lat="45.90711" lon="4.70299">
        <ele>214.62</ele>
        <time>2025-10-23T12:24:27.718Z</time>
      </trkpt>
      <trkpt lat="45.90699" lon="4.7028">
        <ele>215.24</ele>
        <time>2025-10-23T12:24:28.581Z</time>
      </trkpt>
      <trkpt lat="45.90699" lon="4.70267">
        <ele>215.88</ele>
        <time>2025-10-23T12:24:29.448Z</time>
      </trkpt>
      <trkpt lat="45.90699" lon="4.70255">
        <ele>216.52</ele>
        <time>2025-10-23T12:24:30.318Z</time>
      </trkpt>
      <trkpt lat="45.90699" lon="4.70227">
        <ele>217.15</ele>
        <time>2025-10-23T12:24:31.196Z</time>
      </trkpt>
      <trkpt lat="45.90699" lon="4.70224">
        <ele>217.8</ele>
        <time>2025-10-23T12:24:32.075Z</time>
      </trkpt>
      <trkpt lat="45.90699" lon="4.70222">
        <ele>218.44</ele>
        <time>2025-10-23T12:24:32.955Z</time>
      </trkpt>
      <trkpt lat="45.907" lon="4.70201">
        <ele>219.13</ele>
        <time>2025-10-23T12:24:33.841Z</time>
      </trkpt>
      <trkpt lat="45.907" lon="4.70198">
        <ele>219.8</ele>
        <time>2025-10-23T12:24:34.728Z</time>
      </trkpt>
      <trkpt lat="45.90701" lon="4.70192">
        <ele>220.48</ele>
        <time>2025-10-23T12:24:35.617Z</time>
      </trkpt>
      <trkpt lat="45.907" lon="4.70168">
        <ele>221.22</ele>
        <time>2025-10-23T12:24:36.512Z</time>
      </trkpt>
      <trkpt lat="45.907" lon="4.70165">
        <ele>221.89</ele>
        <time>2025-10-23T12:24:37.408Z</time>
      </trkpt>
      <trkpt lat="45.90706" lon="4.70147">
        <ele>222.59</ele>
        <time>2025-10-23T12:24:38.310Z</time>
      </trkpt>
      <trkpt lat="45.90709" lon="4.70133">
        <ele>223.25</ele>
        <time>2025-10-23T12:24:39.216Z</time>
      </trkpt>
      <trkpt lat="45.90703" lon="4.70116">
        <ele>223.94</ele>
        <time>2025-10-23T12:24:40.128Z</time>
      </trkpt>
      <trkpt lat="45.90702" lon="4.70102">
        <ele>224.58</ele>
        <time>2025-10-23T12:24:41.044Z</time>
      </trkpt>
      <trkpt lat="45.90701" lon="4.70084">
        <ele>225.23</ele>
        <time>2025-10-23T12:24:41.965Z</time>
      </trkpt>
      <trkpt lat="45.90701" lon="4.70081">
        <ele>225.84</ele>
        <time>2025-10-23T12:24:42.887Z</time>
      </trkpt>
      <trkpt lat="45.90701" lon="4.70075">
        <ele>226.45</ele>
        <time>2025-10-23T12:24:43.811Z</time>
      </trkpt>
      <trkpt lat="45.90701" lon="4.70063">
        <ele>227.05</ele>
        <time>2025-10-23T12:24:44.738Z</time>
      </trkpt>
      <trkpt lat="45.907" lon="4.7005">
        <ele>227.63</ele>
        <time>2025-10-23T12:24:45.669Z</time>
      </trkpt>
      <trkpt lat="45.907" lon="4.70037">
        <ele>228.21</ele>
        <time>2025-10-23T12:24:46.604Z</time>
      </trkpt>
      <trkpt lat="45.90699" lon="4.70025">
        <ele>228.75</ele>
        <time>2025-10-23T12:24:47.542Z</time>
      </trkpt>
      <trkpt lat="45.90698" lon="4.70019">
        <ele>229.26</ele>
        <time>2025-10-23T12:24:48.482Z</time>
      </trkpt>
      <trkpt lat="45.90695" lon="4.69995">
        <ele>229.79</ele>
        <time>2025-10-23T12:24:49.429Z</time>
      </trkpt>
      <trkpt lat="45.90694" lon="4.69989">
        <ele>230.28</ele>
        <time>2025-10-23T12:24:50.378Z</time>
      </trkpt>
      <trkpt lat="45.90692" lon="4.69971">
        <ele>230.78</ele>
        <time>2025-10-23T12:24:51.332Z</time>
      </trkpt>
      <trkpt lat="45.90692" lon="4.69968">
        <ele>231.22</ele>
        <time>2025-10-23T12:24:52.287Z</time>
      </trkpt>
      <trkpt lat="45.90691" lon="4.69954">
        <ele>231.69</ele>
        <time>2025-10-23T12:24:53.246Z</time>
      </trkpt>
      <trkpt lat="45.9069" lon="4.69942">
        <ele>232.15</ele>
        <time>2025-10-23T12:24:54.208Z</time>
      </trkpt>
      <trkpt lat="45.90689" lon="4.69937">
        <ele>232.54</ele>
        <time>2025-10-23T12:24:55.172Z</time>
      </trkpt>
      <trkpt lat="45.90688" lon="4.69936">
        <ele>232.86</ele>
        <time>2025-10-23T12:24:56.137Z</time>
      </trkpt>
      <trkpt lat="45.90687" lon="4.69937">
        <ele>233.15</ele>
        <time>2025-10-23T12:24:57.102Z</time>
      </trkpt>
      <trkpt lat="45.90684" lon="4.69939">
        <ele>233.4</ele>
        <time>2025-10-23T12:24:58.068Z</time>
      </trkpt>
      <trkpt lat="45.90675" lon="4.69945">
        <ele>233.59</ele>
        <time>2025-10-23T12:24:59.039Z</time>
      </trkpt>
      <trkpt lat="45.90662" lon="4.69951">
        <ele>233.78</ele>
        <time>2025-10-23T12:25:00.015Z</time>
      </trkpt>
      <trkpt lat="45.90661" lon="4.69951">
        <ele>233.95</ele>
        <time>2025-10-23T12:25:00.992Z</time>
      </trkpt>
      <trkpt lat="45.90647" lon="4.69955">
        <ele>234.1</ele>
        <time>2025-10-23T12:25:01.974Z</time>
      </trkpt>
      <trkpt lat="45.90643" lon="4.69954">
        <ele>234.22</ele>
        <time>2025-10-23T12:25:02.958Z</time>
      </trkpt>
      <trkpt lat="45.9063" lon="4.69956">
        <ele>234.3</ele>
        <time>2025-10-23T12:25:03.948Z</time>
      </trkpt>
      <trkpt lat="45.9061" lon="4.69956">
        <ele>234.38</ele>
        <time>2025-10-23T12:25:04.946Z</time>
      </trkpt>
      <trkpt lat="45.90597" lon="4.69947">
        <ele>234.47</ele>
        <time>2025-10-23T12:25:05.950Z</time>
      </trkpt>
      <trkpt lat="45.90594" lon="4.69946">
        <ele>234.48</ele>
        <time>2025-10-23T12:25:06.955Z</time>
      </trkpt>
      <trkpt lat="45.90579" lon="4.69945">
        <ele>234.47</ele>
        <time>2025-10-23T12:25:07.966Z</time>
      </trkpt>
      <trkpt lat="45.90576" lon="4.69944">
        <ele>234.42</ele>
        <time>2025-10-23T12:25:08.979Z</time>
      </trkpt>
      <trkpt lat="45.9057" lon="4.69945">
        <ele>234.33</ele>
        <time>2025-10-23T12:25:09.994Z</time>
      </trkpt>
      <trkpt lat="45.90551" lon="4.69947">
        <ele>234.22</ele>
        <time>2025-10-23T12:25:11.017Z</time>
      </trkpt>
      <trkpt lat="45.90532" lon="4.69947">
        <ele>234.11</ele>
        <time>2025-10-23T12:25:12.048Z</time>
      </trkpt>
      <trkpt lat="45.90511" lon="4.69948">
        <ele>233.97</ele>
        <time>2025-10-23T12:25:13.087Z</time>
      </trkpt>
      <trkpt lat="45.90506" lon="4.69948">
        <ele>233.74</ele>
        <time>2025-10-23T12:25:14.129Z</time>
      </trkpt>
      <trkpt lat="45.90504" lon="4.69949">
        <ele>233.51</ele>
        <time>2025-10-23T12:25:15.172Z</time>
      </trkpt>
      <trkpt lat="45.90487" lon="4.69954">
        <ele>233.15</ele>
        <time>2025-10-23T12:25:16.222Z</time>
      </trkpt>
      <trkpt lat="45.9048" lon="4.69956">
        <ele>232.86</ele>
        <time>2025-10-23T12:25:17.275Z</time>
      </trkpt>
      <trkpt lat="45.90468" lon="4.69959">
        <ele>232.56</ele>
        <time>2025-10-23T12:25:18.333Z</time>
      </trkpt>
      <trkpt lat="45.90461" lon="4.69961">
        <ele>232.26</ele>
        <time>2025-10-23T12:25:19.394Z</time>
      </trkpt>
      <trkpt lat="45.90451" lon="4.69965">
        <ele>231.96</ele>
        <time>2025-10-23T12:25:20.459Z</time>
      </trkpt>
      <trkpt lat="45.90441" lon="4.69969">
        <ele>231.69</ele>
        <time>2025-10-23T12:25:21.528Z</time>
      </trkpt>
      <trkpt lat="45.90434" lon="4.69972">
        <ele>231.42</ele>
        <time>2025-10-23T12:25:22.600Z</time>
      </trkpt>
      <trkpt lat="45.90431" lon="4.69973">
        <ele>231.13</ele>
        <time>2025-10-23T12:25:23.673Z</time>
      </trkpt>
      <trkpt lat="45.90423" lon="4.69977">
        <ele>230.83</ele>
        <time>2025-10-23T12:25:24.750Z</time>
      </trkpt>
      <trkpt lat="45.90419" lon="4.69978">
        <ele>230.52</ele>
        <time>2025-10-23T12:25:25.829Z</time>
      </trkpt>
      <trkpt lat="45.90415" lon="4.69981">
        <ele>230.21</ele>
        <time>2025-10-23T12:25:26.909Z</time>
      </trkpt>
      <trkpt lat="45.90411" lon="4.69983">
        <ele>229.9</ele>
        <time>2025-10-23T12:25:27.991Z</time>
      </trkpt>
      <trkpt lat="45.90405" lon="4.69985">
        <ele>229.61</ele>
        <time>2025-10-23T12:25:29.076Z</time>
      </trkpt>
      <trkpt lat="45.90401" lon="4.69986">
        <ele>229.32</ele>
        <time>2025-10-23T12:25:30.163Z</time>
      </trkpt>
      <trkpt lat="45.9039" lon="4.6999">
        <ele>228.97</ele>
        <time>2025-10-23T12:25:31.254Z</time>
      </trkpt>
      <trkpt lat="45.90389" lon="4.6999">
        <ele>228.7</ele>
        <time>2025-10-23T12:25:32.346Z</time>
      </trkpt>
      <trkpt lat="45.90373" lon="4.6998">
        <ele>228.41</ele>
        <time>2025-10-23T12:25:33.445Z</time>
      </trkpt>
      <trkpt lat="45.90372" lon="4.69979">
        <ele>228.17</ele>
        <time>2025-10-23T12:25:34.544Z</time>
      </trkpt>
      <trkpt lat="45.90367" lon="4.69975">
        <ele>227.96</ele>
        <time>2025-10-23T12:25:35.646Z</time>
      </trkpt>
      <trkpt lat="45.90365" lon="4.69975">
        <ele>227.76</ele>
        <time>2025-10-23T12:25:36.749Z</time>
      </trkpt>
      <trkpt lat="45.90357" lon="4.69971">
        <ele>227.58</ele>
        <time>2025-10-23T12:25:37.855Z</time>
      </trkpt>
      <trkpt lat="45.90352" lon="4.69966">
        <ele>227.43</ele>
        <time>2025-10-23T12:25:38.964Z</time>
      </trkpt>
      <trkpt lat="45.90343" lon="4.69961">
        <ele>227.29</ele>
        <time>2025-10-23T12:25:40.077Z</time>
      </trkpt>
      <trkpt lat="45.90327" lon="4.69955">
        <ele>227.23</ele>
        <time>2025-10-23T12:25:41.196Z</time>
      </trkpt>
      <trkpt lat="45.90323" lon="4.69955">
        <ele>227.14</ele>
        <time>2025-10-23T12:25:42.317Z</time>
      </trkpt>
      <trkpt lat="45.90313" lon="4.69956">
        <ele>227.1</ele>
        <time>2025-10-23T12:25:43.442Z</time>
      </trkpt>
      <trkpt lat="45.903" lon="4.69961">
        <ele>227.06</ele>
        <time>2025-10-23T12:25:44.573Z</time>
      </trkpt>
      <trkpt lat="45.90294" lon="4.69964">
        <ele>227.06</ele>
        <time>2025-10-23T12:25:45.707Z</time>
      </trkpt>
      <trkpt lat="45.9029" lon="4.69966">
        <ele>227.08</ele>
        <time>2025-10-23T12:25:46.843Z</time>
      </trkpt>
      <trkpt lat="45.90281" lon="4.69973">
        <ele>227.11</ele>
        <time>2025-10-23T12:25:47.983Z</time>
      </trkpt>
      <trkpt lat="45.90274" lon="4.69976">
        <ele>227.16</ele>
        <time>2025-10-23T12:25:49.125Z</time>
      </trkpt>
      <trkpt lat="45.90258" lon="4.69985">
        <ele>227.23</ele>
        <time>2025-10-23T12:25:50.275Z</time>
      </trkpt>
      <trkpt lat="45.90246" lon="4.69991">
        <ele>227.31</ele>
        <time>2025-10-23T12:25:51.430Z</time>
      </trkpt>
      <trkpt lat="45.90231" lon="4.7">
        <ele>227.35</ele>
        <time>2025-10-23T12:25:52.592Z</time>
      </trkpt>
      <trkpt lat="45.90219" lon="4.70004">
        <ele>227.53</ele>
        <time>2025-10-23T12:25:53.759Z</time>
      </trkpt>
      <trkpt lat="45.90209" lon="4.70005">
        <ele>227.76</ele>
        <time>2025-10-23T12:25:54.930Z</time>
      </trkpt>
      <trkpt lat="45.90191" lon="4.70005">
        <ele>228.1</ele>
        <time>2025-10-23T12:25:56.109Z</time>
      </trkpt>
      <trkpt lat="45.90188" lon="4.70005">
        <ele>228.41</ele>
        <time>2025-10-23T12:25:57.288Z</time>
      </trkpt>
      <trkpt lat="45.90169" lon="4.70005">
        <ele>228.82</ele>
        <time>2025-10-23T12:25:58.475Z</time>
      </trkpt>
      <trkpt lat="45.90161" lon="4.70006">
        <ele>229.21</ele>
        <time>2025-10-23T12:25:59.666Z</time>
      </trkpt>
      <trkpt lat="45.90149" lon="4.70008">
        <ele>229.65</ele>
        <time>2025-10-23T12:26:00.862Z</time>
      </trkpt>
      <trkpt lat="45.90131" lon="4.70013">
        <ele>230.06</ele>
        <time>2025-10-23T12:26:02.066Z</time>
      </trkpt>
      <trkpt lat="45.9012" lon="4.70015">
        <ele>230.54</ele>
        <time>2025-10-23T12:26:03.274Z</time>
      </trkpt>
      <trkpt lat="45.90107" lon="4.70012">
        <ele>231.1</ele>
        <time>2025-10-23T12:26:04.487Z</time>
      </trkpt>
      <trkpt lat="45.90106" lon="4.70009">
        <ele>231.69</ele>
        <time>2025-10-23T12:26:05.701Z</time>
      </trkpt>
      <trkpt lat="45.90105" lon="4.69995">
        <ele>232.41</ele>
        <time>2025-10-23T12:26:06.920Z</time>
      </trkpt>
      <trkpt lat="45.90105" lon="4.69991">
        <ele>233.09</ele>
        <time>2025-10-23T12:26:08.139Z</time>
      </trkpt>
      <trkpt lat="45.90106" lon="4.69978">
        <ele>233.87</ele>
        <time>2025-10-23T12:26:09.362Z</time>
      </trkpt>
      <trkpt lat="45.90108" lon="4.69969">
        <ele>234.63</ele>
        <time>2025-10-23T12:26:10.588Z</time>
      </trkpt>
      <trkpt lat="45.9011" lon="4.69966">
        <ele>235.41</ele>
        <time>2025-10-23T12:26:11.815Z</time>
      </trkpt>
      <trkpt lat="45.90108" lon="4.69953">
        <ele>236.26</ele>
        <time>2025-10-23T12:26:13.046Z</time>
      </trkpt>
      <trkpt lat="45.90108" lon="4.69949">
        <ele>237.09</ele>
        <time>2025-10-23T12:26:14.278Z</time>
      </trkpt>
      <trkpt lat="45.90106" lon="4.69936">
        <ele>237.96</ele>
        <time>2025-10-23T12:26:15.514Z</time>
      </trkpt>
      <trkpt lat="45.90105" lon="4.6993">
        <ele>238.83</ele>
        <time>2025-10-23T12:26:16.752Z</time>
      </trkpt>
      <trkpt lat="45.90104" lon="4.69919">
        <ele>239.74</ele>
        <time>2025-10-23T12:26:17.993Z</time>
      </trkpt>
      <trkpt lat="45.90102" lon="4.69902">
        <ele>240.72</ele>
        <time>2025-10-23T12:26:19.239Z</time>
      </trkpt>
      <trkpt lat="45.90101" lon="4.69896">
        <ele>241.66</ele>
        <time>2025-10-23T12:26:20.487Z</time>
      </trkpt>
      <trkpt lat="45.90101" lon="4.69892">
        <ele>242.58</ele>
        <time>2025-10-23T12:26:21.736Z</time>
      </trkpt>
      <trkpt lat="45.901" lon="4.69878">
        <ele>243.58</ele>
        <time>2025-10-23T12:26:22.989Z</time>
      </trkpt>
      <trkpt lat="45.90099" lon="4.69867">
        <ele>244.54</ele>
        <time>2025-10-23T12:26:24.245Z</time>
      </trkpt>
      <trkpt lat="45.90099" lon="4.6986">
        <ele>245.45</ele>
        <time>2025-10-23T12:26:25.503Z</time>
      </trkpt>
      <trkpt lat="45.90098" lon="4.69857">
        <ele>246.32</ele>
        <time>2025-10-23T12:26:26.762Z</time>
      </trkpt>
      <trkpt lat="45.90097" lon="4.69847">
        <ele>247.2</ele>
        <time>2025-10-23T12:26:28.024Z</time>
      </trkpt>
      <trkpt lat="45.90096" lon="4.69837">
        <ele>248.04</ele>
        <time>2025-10-23T12:26:29.289Z</time>
      </trkpt>
      <trkpt lat="45.90095" lon="4.69827">
        <ele>248.86</ele>
        <time>2025-10-23T12:26:30.557Z</time>
      </trkpt>
      <trkpt lat="45.90095" lon="4.69819">
        <ele>249.63</ele>
        <time>2025-10-23T12:26:31.827Z</time>
      </trkpt>
      <trkpt lat="45.90095" lon="4.69816">
        <ele>250.34</ele>
        <time>2025-10-23T12:26:33.098Z</time>
      </trkpt>
      <trkpt lat="45.90095" lon="4.69809">
        <ele>251.03</ele>
        <time>2025-10-23T12:26:34.371Z</time>
      </trkpt>
      <trkpt lat="45.90094" lon="4.69799">
        <ele>251.69</ele>
        <time>2025-10-23T12:26:35.647Z</time>
      </trkpt>
      <trkpt lat="45.90094" lon="4.69787">
        <ele>252.31</ele>
        <time>2025-10-23T12:26:36.927Z</time>
      </trkpt>
      <trkpt lat="45.90095" lon="4.69778">
        <ele>252.85</ele>
        <time>2025-10-23T12:26:38.209Z</time>
      </trkpt>
      <trkpt lat="45.90095" lon="4.69777">
        <ele>253.32</ele>
        <time>2025-10-23T12:26:39.492Z</time>
      </trkpt>
      <trkpt lat="45.90096" lon="4.6977">
        <ele>253.74</ele>
        <time>2025-10-23T12:26:40.777Z</time>
      </trkpt>
      <trkpt lat="45.90096" lon="4.69767">
        <ele>254.11</ele>
        <time>2025-10-23T12:26:42.062Z</time>
      </trkpt>
      <trkpt lat="45.90096" lon="4.69764">
        <ele>254.44</ele>
        <time>2025-10-23T12:26:43.348Z</time>
      </trkpt>
      <trkpt lat="45.90097" lon="4.69755">
        <ele>254.73</ele>
        <time>2025-10-23T12:26:44.637Z</time>
      </trkpt>
      <trkpt lat="45.90097" lon="4.69754">
        <ele>254.96</ele>
        <time>2025-10-23T12:26:45.926Z</time>
      </trkpt>
      <trkpt lat="45.90097" lon="4.69754">
        <ele>255.15</ele>
        <time>2025-10-23T12:26:47.215Z</time>
      </trkpt>
      <trkpt lat="45.90097" lon="4.69753">
        <ele>255.3</ele>
        <time>2025-10-23T12:26:48.504Z</time>
      </trkpt>
      <trkpt lat="45.90098" lon="4.6975">
        <ele>255.41</ele>
        <time>2025-10-23T12:26:49.795Z</time>
      </trkpt>
      <trkpt lat="45.901" lon="4.69737">
        <ele>255.5</ele>
        <time>2025-10-23T12:26:51.089Z</time>
      </trkpt>
      <trkpt lat="45.901" lon="4.69732">
        <ele>255.55</ele>
        <time>2025-10-23T12:26:52.385Z</time>
      </trkpt>
      <trkpt lat="45.90103" lon="4.69716">
        <ele>255.56</ele>
        <time>2025-10-23T12:26:53.685Z</time>
      </trkpt>
      <trkpt lat="45.90103" lon="4.69714">
        <ele>255.57</ele>
        <time>2025-10-23T12:26:54.986Z</time>
      </trkpt>
      <trkpt lat="45.90103" lon="4.69707">
        <ele>255.55</ele>
        <time>2025-10-23T12:26:56.289Z</time>
      </trkpt>
      <trkpt lat="45.90103" lon="4.69702">
        <ele>255.53</ele>
        <time>2025-10-23T12:26:57.594Z</time>
      </trkpt>
      <trkpt lat="45.90104" lon="4.69698">
        <ele>255.51</ele>
        <time>2025-10-23T12:26:58.900Z</time>
      </trkpt>
      <trkpt lat="45.90106" lon="4.69689">
        <ele>255.49</ele>
        <time>2025-10-23T12:27:00.208Z</time>
      </trkpt>
      <trkpt lat="45.90108" lon="4.69672">
        <ele>255.48</ele>
        <time>2025-10-23T12:27:01.522Z</time>
      </trkpt>
      <trkpt lat="45.90109" lon="4.69664">
        <ele>255.47</ele>
        <time>2025-10-23T12:27:02.838Z</time>
      </trkpt>
      <trkpt lat="45.90111" lon="4.69652">
        <ele>255.47</ele>
        <time>2025-10-23T12:27:04.158Z</time>
      </trkpt>
      <trkpt lat="45.90112" lon="4.69645">
        <ele>255.49</ele>
        <time>2025-10-23T12:27:05.480Z</time>
      </trkpt>
      <trkpt lat="45.90112" lon="4.69634">
        <ele>255.53</ele>
        <time>2025-10-23T12:27:06.805Z</time>
      </trkpt>
      <trkpt lat="45.90115" lon="4.69617">
        <ele>255.58</ele>
        <time>2025-10-23T12:27:08.135Z</time>
      </trkpt>
      <trkpt lat="45.90126" lon="4.69603">
        <ele>255.65</ele>
        <time>2025-10-23T12:27:09.471Z</time>
      </trkpt>
      <trkpt lat="45.90133" lon="4.69599">
        <ele>255.76</ele>
        <time>2025-10-23T12:27:10.810Z</time>
      </trkpt>
      <trkpt lat="45.90139" lon="4.69593">
        <ele>255.88</ele>
        <time>2025-10-23T12:27:12.152Z</time>
      </trkpt>
      <trkpt lat="45.90146" lon="4.69577">
        <ele>256.01</ele>
        <time>2025-10-23T12:27:13.499Z</time>
      </trkpt>
      <trkpt lat="45.90147" lon="4.69574">
        <ele>256.17</ele>
        <time>2025-10-23T12:27:14.847Z</time>
      </trkpt>
      <trkpt lat="45.90149" lon="4.69565">
        <ele>256.35</ele>
        <time>2025-10-23T12:27:16.198Z</time>
      </trkpt>
      <trkpt lat="45.90151" lon="4.69561">
        <ele>256.57</ele>
        <time>2025-10-23T12:27:17.550Z</time>
      </trkpt>
      <trkpt lat="45.90152" lon="4.69555">
        <ele>256.85</ele>
        <time>2025-10-23T12:27:18.904Z</time>
      </trkpt>
      <trkpt lat="45.90155" lon="4.69546">
        <ele>257.17</ele>
        <time>2025-10-23T12:27:20.261Z</time>
      </trkpt>
      <trkpt lat="45.90159" lon="4.69527">
        <ele>257.55</ele>
        <time>2025-10-23T12:27:21.624Z</time>
      </trkpt>
      <trkpt lat="45.90161" lon="4.69518">
        <ele>257.91</ele>
        <time>2025-10-23T12:27:22.989Z</time>
      </trkpt>
      <trkpt lat="45.90165" lon="4.69503">
        <ele>258.31</ele>
        <time>2025-10-23T12:27:24.359Z</time>
      </trkpt>
      <trkpt lat="45.90167" lon="4.69497">
        <ele>258.68</ele>
        <time>2025-10-23T12:27:25.731Z</time>
      </trkpt>
      <trkpt lat="45.90174" lon="4.6947">
        <ele>259.11</ele>
        <time>2025-10-23T12:27:27.111Z</time>
      </trkpt>
      <trkpt lat="45.90175" lon="4.69464">
        <ele>259.49</ele>
        <time>2025-10-23T12:27:28.493Z</time>
      </trkpt>
      <trkpt lat="45.90179" lon="4.69445">
        <ele>259.88</ele>
        <time>2025-10-23T12:27:29.881Z</time>
      </trkpt>
      <trkpt lat="45.90183" lon="4.69434">
        <ele>260.28</ele>
        <time>2025-10-23T12:27:31.272Z</time>
      </trkpt>
      <trkpt lat="45.90186" lon="4.69424">
        <ele>260.66</ele>
        <time>2025-10-23T12:27:32.667Z</time>
      </trkpt>
      <trkpt lat="45.90194" lon="4.69406">
        <ele>261.09</ele>
        <time>2025-10-23T12:27:34.068Z</time>
      </trkpt>
      <trkpt lat="45.90197" lon="4.69401">
        <ele>261.49</ele>
        <time>2025-10-23T12:27:35.471Z</time>
      </trkpt>
      <trkpt lat="45.90198" lon="4.69399">
        <ele>261.88</ele>
        <time>2025-10-23T12:27:36.875Z</time>
      </trkpt>
      <trkpt lat="45.9021" lon="4.69385">
        <ele>262.29</ele>
        <time>2025-10-23T12:27:38.285Z</time>
      </trkpt>
      <trkpt lat="45.90222" lon="4.6937">
        <ele>262.7</ele>
        <time>2025-10-23T12:27:39.701Z</time>
      </trkpt>
      <trkpt lat="45.90227" lon="4.69363">
        <ele>263.11</ele>
        <time>2025-10-23T12:27:41.120Z</time>
      </trkpt>
      <trkpt lat="45.90234" lon="4.6935">
        <ele>263.55</ele>
        <time>2025-10-23T12:27:42.544Z</time>
      </trkpt>
      <trkpt lat="45.90234" lon="4.69348">
        <ele>263.93</ele>
        <time>2025-10-23T12:27:43.969Z</time>
      </trkpt>
      <trkpt lat="45.90233" lon="4.69337">
        <ele>264.35</ele>
        <time>2025-10-23T12:27:45.397Z</time>
      </trkpt>
      <trkpt lat="45.90222" lon="4.69326">
        <ele>264.72</ele>
        <time>2025-10-23T12:27:46.830Z</time>
      </trkpt>
      <trkpt lat="45.90205" lon="4.69315">
        <ele>265.08</ele>
        <time>2025-10-23T12:27:48.271Z</time>
      </trkpt>
      <trkpt lat="45.9019" lon="4.69309">
        <ele>265.44</ele>
        <time>2025-10-23T12:27:49.718Z</time>
      </trkpt>
      <trkpt lat="45.90183" lon="4.69307">
        <ele>265.81</ele>
        <time>2025-10-23T12:27:51.169Z</time>
      </trkpt>
      <trkpt lat="45.90168" lon="4.69303">
        <ele>266.18</ele>
        <time>2025-10-23T12:27:52.626Z</time>
      </trkpt>
      <trkpt lat="45.90163" lon="4.69302">
        <ele>266.56</ele>
        <time>2025-10-23T12:27:54.085Z</time>
      </trkpt>
      <trkpt lat="45.90146" lon="4.69298">
        <ele>266.94</ele>
        <time>2025-10-23T12:27:55.551Z</time>
      </trkpt>
      <trkpt lat="45.90144" lon="4.69295">
        <ele>267.36</ele>
        <time>2025-10-23T12:27:57.018Z</time>
      </trkpt>
      <trkpt lat="45.90142" lon="4.69279">
        <ele>267.82</ele>
        <time>2025-10-23T12:27:58.490Z</time>
      </trkpt>
      <trkpt lat="45.90145" lon="4.6926">
        <ele>268.32</ele>
        <time>2025-10-23T12:27:59.968Z</time>
      </trkpt>
      <trkpt lat="45.90146" lon="4.69257">
        <ele>268.78</ele>
        <time>2025-10-23T12:28:01.447Z</time>
      </trkpt>
      <trkpt lat="45.90147" lon="4.69254">
        <ele>269.25</ele>
        <time>2025-10-23T12:28:02.927Z</time>
      </trkpt>
      <trkpt lat="45.90153" lon="4.69227">
        <ele>269.82</ele>
        <time>2025-10-23T12:28:04.415Z</time>
      </trkpt>
      <trkpt lat="45.90155" lon="4.69222">
        <ele>270.32</ele>
        <time>2025-10-23T12:28:05.904Z</time>
      </trkpt>
      <trkpt lat="45.90158" lon="4.69207">
        <ele>270.87</ele>
        <time>2025-10-23T12:28:07.398Z</time>
      </trkpt>
      <trkpt lat="45.90163" lon="4.69196">
        <ele>271.42</ele>
        <time>2025-10-23T12:28:08.896Z</time>
      </trkpt>
      <trkpt lat="45.90165" lon="4.69191">
        <ele>271.95</ele>
        <time>2025-10-23T12:28:10.395Z</time>
      </trkpt>
      <trkpt lat="45.90169" lon="4.6918">
        <ele>272.5</ele>
        <time>2025-10-23T12:28:11.898Z</time>
      </trkpt>
      <trkpt lat="45.90171" lon="4.69171">
        <ele>273.05</ele>
        <time>2025-10-23T12:28:13.404Z</time>
      </trkpt>
      <trkpt lat="45.90171" lon="4.69168">
        <ele>273.61</ele>
        <time>2025-10-23T12:28:14.911Z</time>
      </trkpt>
      <trkpt lat="45.90175" lon="4.69148">
        <ele>274.24</ele>
        <time>2025-10-23T12:28:16.424Z</time>
      </trkpt>
      <trkpt lat="45.90175" lon="4.69145">
        <ele>274.82</ele>
        <time>2025-10-23T12:28:17.937Z</time>
      </trkpt>
      <trkpt lat="45.90178" lon="4.69129">
        <ele>275.45</ele>
        <time>2025-10-23T12:28:19.455Z</time>
      </trkpt>
      <trkpt lat="45.90178" lon="4.69126">
        <ele>276.04</ele>
        <time>2025-10-23T12:28:20.974Z</time>
      </trkpt>
      <trkpt lat="45.90179" lon="4.69123">
        <ele>276.63</ele>
        <time>2025-10-23T12:28:22.494Z</time>
      </trkpt>
      <trkpt lat="45.90181" lon="4.69108">
        <ele>277.28</ele>
        <time>2025-10-23T12:28:24.019Z</time>
      </trkpt>
      <trkpt lat="45.90182" lon="4.69102">
        <ele>277.9</ele>
        <time>2025-10-23T12:28:25.545Z</time>
      </trkpt>
      <trkpt lat="45.90183" lon="4.69097">
        <ele>278.52</ele>
        <time>2025-10-23T12:28:27.073Z</time>
      </trkpt>
      <trkpt lat="45.90186" lon="4.6908">
        <ele>279.17</ele>
        <time>2025-10-23T12:28:28.606Z</time>
      </trkpt>
      <trkpt lat="45.90186" lon="4.69078">
        <ele>279.77</ele>
        <time>2025-10-23T12:28:30.140Z</time>
      </trkpt>
      <trkpt lat="45.90188" lon="4.69062">
        <ele>280.43</ele>
        <time>2025-10-23T12:28:31.678Z</time>
      </trkpt>
      <trkpt lat="45.90191" lon="4.69054">
        <ele>281.05</ele>
        <time>2025-10-23T12:28:33.219Z</time>
      </trkpt>
      <trkpt lat="45.90192" lon="4.69053">
        <ele>281.64</ele>
        <time>2025-10-23T12:28:34.760Z</time>
      </trkpt>
      <trkpt lat="45.90198" lon="4.69046">
        <ele>282.25</ele>
        <time>2025-10-23T12:28:36.304Z</time>
      </trkpt>
      <trkpt lat="45.90206" lon="4.69038">
        <ele>282.85</ele>
        <time>2025-10-23T12:28:37.853Z</time>
      </trkpt>
      <trkpt lat="45.90212" lon="4.69033">
        <ele>283.44</ele>
        <time>2025-10-23T12:28:39.404Z</time>
      </trkpt>
      <trkpt lat="45.90217" lon="4.69026">
        <ele>284.03</ele>
        <time>2025-10-23T12:28:40.958Z</time>
      </trkpt>
      <trkpt lat="45.90222" lon="4.69019">
        <ele>284.63</ele>
        <time>2025-10-23T12:28:42.515Z</time>
      </trkpt>
      <trkpt lat="45.90227" lon="4.69013">
        <ele>285.24</ele>
        <time>2025-10-23T12:28:44.075Z</time>
      </trkpt>
      <trkpt lat="45.90231" lon="4.69008">
        <ele>285.84</ele>
        <time>2025-10-23T12:28:45.637Z</time>
      </trkpt>
      <trkpt lat="45.90241" lon="4.69002">
        <ele>286.43</ele>
        <time>2025-10-23T12:28:47.204Z</time>
      </trkpt>
      <trkpt lat="45.90242" lon="4.69">
        <ele>287</ele>
        <time>2025-10-23T12:28:48.771Z</time>
      </trkpt>
      <trkpt lat="45.90251" lon="4.68991">
        <ele>287.61</ele>
        <time>2025-10-23T12:28:50.343Z</time>
      </trkpt>
      <trkpt lat="45.90256" lon="4.68985">
        <ele>288.21</ele>
        <time>2025-10-23T12:28:51.917Z</time>
      </trkpt>
      <trkpt lat="45.90265" lon="4.68977">
        <ele>288.83</ele>
        <time>2025-10-23T12:28:53.496Z</time>
      </trkpt>
      <trkpt lat="45.90274" lon="4.68965">
        <ele>289.49</ele>
        <time>2025-10-23T12:28:55.080Z</time>
      </trkpt>
      <trkpt lat="45.90277" lon="4.68962">
        <ele>290.08</ele>
        <time>2025-10-23T12:28:56.665Z</time>
      </trkpt>
      <trkpt lat="45.90285" lon="4.68953">
        <ele>290.72</ele>
        <time>2025-10-23T12:28:58.255Z</time>
      </trkpt>
      <trkpt lat="45.90288" lon="4.6895">
        <ele>291.31</ele>
        <time>2025-10-23T12:28:59.846Z</time>
      </trkpt>
      <trkpt lat="45.90289" lon="4.68949">
        <ele>291.89</ele>
        <time>2025-10-23T12:29:01.438Z</time>
      </trkpt>
      <trkpt lat="45.90295" lon="4.68945">
        <ele>292.49</ele>
        <time>2025-10-23T12:29:03.032Z</time>
      </trkpt>
      <trkpt lat="45.90301" lon="4.6894">
        <ele>293.09</ele>
        <time>2025-10-23T12:29:04.629Z</time>
      </trkpt>
      <trkpt lat="45.90308" lon="4.68933">
        <ele>293.68</ele>
        <time>2025-10-23T12:29:06.230Z</time>
      </trkpt>
      <trkpt lat="45.90315" lon="4.68927">
        <ele>294.24</ele>
        <time>2025-10-23T12:29:07.834Z</time>
      </trkpt>
      <trkpt lat="45.90317" lon="4.68926">
        <ele>294.8</ele>
        <time>2025-10-23T12:29:09.439Z</time>
      </trkpt>
      <trkpt lat="45.90327" lon="4.68916">
        <ele>295.4</ele>
        <time>2025-10-23T12:29:11.049Z</time>
      </trkpt>
      <trkpt lat="45.9033" lon="4.68913">
        <ele>295.98</ele>
        <time>2025-10-23T12:29:12.661Z</time>
      </trkpt>
      <trkpt lat="45.90342" lon="4.68903">
        <ele>296.6</ele>
        <time>2025-10-23T12:29:14.279Z</time>
      </trkpt>
      <trkpt lat="45.90349" lon="4.68898">
        <ele>297.19</ele>
        <time>2025-10-23T12:29:15.900Z</time>
      </trkpt>
      <trkpt lat="45.90359" lon="4.68891">
        <ele>297.8</ele>
        <time>2025-10-23T12:29:17.525Z</time>
      </trkpt>
      <trkpt lat="45.9036" lon="4.68889">
        <ele>298.37</ele>
        <time>2025-10-23T12:29:19.151Z</time>
      </trkpt>
      <trkpt lat="45.90371" lon="4.68877">
        <ele>298.99</ele>
        <time>2025-10-23T12:29:20.783Z</time>
      </trkpt>
      <trkpt lat="45.90372" lon="4.68875">
        <ele>299.55</ele>
        <time>2025-10-23T12:29:22.415Z</time>
      </trkpt>
      <trkpt lat="45.90377" lon="4.68867">
        <ele>300.12</ele>
        <time>2025-10-23T12:29:24.051Z</time>
      </trkpt>
      <trkpt lat="45.90381" lon="4.68861">
        <ele>300.68</ele>
        <time>2025-10-23T12:29:25.689Z</time>
      </trkpt>
      <trkpt lat="45.90388" lon="4.68849">
        <ele>301.24</ele>
        <time>2025-10-23T12:29:27.332Z</time>
      </trkpt>
      <trkpt lat="45.90395" lon="4.68837">
        <ele>301.8</ele>
        <time>2025-10-23T12:29:28.979Z</time>
      </trkpt>
      <trkpt lat="45.90396" lon="4.68835">
        <ele>302.33</ele>
        <time>2025-10-23T12:29:30.627Z</time>
      </trkpt>
      <trkpt lat="45.90398" lon="4.68833">
        <ele>302.86</ele>
        <time>2025-10-23T12:29:32.276Z</time>
      </trkpt>
      <trkpt lat="45.90401" lon="4.68827">
        <ele>303.41</ele>
        <time>2025-10-23T12:29:33.927Z</time>
      </trkpt>
      <trkpt lat="45.90404" lon="4.68822">
        <ele>303.95</ele>
        <time>2025-10-23T12:29:35.580Z</time>
      </trkpt>
      <trkpt lat="45.90409" lon="4.68811">
        <ele>304.5</ele>
        <time>2025-10-23T12:29:37.237Z</time>
      </trkpt>
      <trkpt lat="45.90411" lon="4.68801">
        <ele>305.02</ele>
        <time>2025-10-23T12:29:38.896Z</time>
      </trkpt>
      <trkpt lat="45.90414" lon="4.68789">
        <ele>305.55</ele>
        <time>2025-10-23T12:29:40.559Z</time>
      </trkpt>
      <trkpt lat="45.90415" lon="4.68782">
        <ele>306.05</ele>
        <time>2025-10-23T12:29:42.224Z</time>
      </trkpt>
      <trkpt lat="45.9042" lon="4.68775">
        <ele>306.52</ele>
        <time>2025-10-23T12:29:43.892Z</time>
      </trkpt>
      <trkpt lat="45.90425" lon="4.68768">
        <ele>307</ele>
        <time>2025-10-23T12:29:45.563Z</time>
      </trkpt>
      <trkpt lat="45.90426" lon="4.68766">
        <ele>307.42</ele>
        <time>2025-10-23T12:29:47.235Z</time>
      </trkpt>
      <trkpt lat="45.90434" lon="4.68755">
        <ele>307.87</ele>
        <time>2025-10-23T12:29:48.911Z</time>
      </trkpt>
      <trkpt lat="45.90435" lon="4.68754">
        <ele>308.25</ele>
        <time>2025-10-23T12:29:50.588Z</time>
      </trkpt>
      <trkpt lat="45.9044" lon="4.68743">
        <ele>308.66</ele>
        <time>2025-10-23T12:29:52.269Z</time>
      </trkpt>
      <trkpt lat="45.9044" lon="4.68743">
        <ele>308.97</ele>
        <time>2025-10-23T12:29:53.950Z</time>
      </trkpt>
      <trkpt lat="45.9044" lon="4.68744">
        <ele>309.25</ele>
        <time>2025-10-23T12:29:55.631Z</time>
      </trkpt>
      <trkpt lat="45.90438" lon="4.6875">
        <ele>309.48</ele>
        <time>2025-10-23T12:29:57.314Z</time>
      </trkpt>
      <trkpt lat="45.90437" lon="4.68752">
        <ele>309.71</ele>
        <time>2025-10-23T12:29:58.998Z</time>
      </trkpt>
      <trkpt lat="45.90432" lon="4.6876">
        <ele>309.86</ele>
        <time>2025-10-23T12:30:00.685Z</time>
      </trkpt>
      <trkpt lat="45.90431" lon="4.68761">
        <ele>310.04</ele>
        <time>2025-10-23T12:30:02.373Z</time>
      </trkpt>
      <trkpt lat="45.90428" lon="4.68765">
        <ele>310.19</ele>
        <time>2025-10-23T12:30:04.062Z</time>
      </trkpt>
      <trkpt lat="45.90429" lon="4.68763">
        <ele>310.34</ele>
        <time>2025-10-23T12:30:05.751Z</time>
      </trkpt>
      <trkpt lat="45.9043" lon="4.6876">
        <ele>310.48</ele>
        <time>2025-10-23T12:30:07.442Z</time>
      </trkpt>
      <trkpt lat="45.9043" lon="4.68759">
        <ele>310.59</ele>
        <time>2025-10-23T12:30:09.133Z</time>
      </trkpt>
      <trkpt lat="45.90432" lon="4.68753">
        <ele>310.7</ele>
        <time>2025-10-23T12:30:10.826Z</time>
      </trkpt>
      <trkpt lat="45.90436" lon="4.68742">
        <ele>310.82</ele>
        <time>2025-10-23T12:30:12.522Z</time>
      </trkpt>
      <trkpt lat="45.90437" lon="4.68741">
        <ele>310.86</ele>
        <time>2025-10-23T12:30:14.219Z</time>
      </trkpt>
      <trkpt lat="45.90435" lon="4.68731">
        <ele>310.92</ele>
        <time>2025-10-23T12:30:15.919Z</time>
      </trkpt>
      <trkpt lat="45.90422" lon="4.68718">
        <ele>310.91</ele>
        <time>2025-10-23T12:30:17.625Z</time>
      </trkpt>
      <trkpt lat="45.90416" lon="4.68713">
        <ele>310.85</ele>
        <time>2025-10-23T12:30:19.334Z</time>
      </trkpt>
      <trkpt lat="45.90411" lon="4.68711">
        <ele>310.77</ele>
        <time>2025-10-23T12:30:21.045Z</time>
      </trkpt>
      <trkpt lat="45.90408" lon="4.68709">
        <ele>310.68</ele>
        <time>2025-10-23T12:30:22.757Z</time>
      </trkpt>
      <trkpt lat="45.90401" lon="4.68706">
        <ele>310.55</ele>
        <time>2025-10-23T12:30:24.472Z</time>
      </trkpt>
      <trkpt lat="45.90397" lon="4.68703">
        <ele>310.41</ele>
        <time>2025-10-23T12:30:26.189Z</time>
      </trkpt>
      <trkpt lat="45.90391" lon="4.68699">
        <ele>310.25</ele>
        <time>2025-10-23T12:30:27.909Z</time>
      </trkpt>
      <trkpt lat="45.90389" lon="4.68698">
        <ele>310.08</ele>
        <time>2025-10-23T12:30:29.630Z</time>
      </trkpt>
      <trkpt lat="45.90377" lon="4.68697">
        <ele>309.86</ele>
        <time>2025-10-23T12:30:31.356Z</time>
      </trkpt>
      <trkpt lat="45.90375" lon="4.68697">
        <ele>309.65</ele>
        <time>2025-10-23T12:30:33.083Z</time>
      </trkpt>
      <trkpt lat="45.90367" lon="4.68697">
        <ele>309.42</ele>
        <time>2025-10-23T12:30:34.813Z</time>
      </trkpt>
      <trkpt lat="45.90362" lon="4.68697">
        <ele>309.19</ele>
        <time>2025-10-23T12:30:36.545Z</time>
      </trkpt>
      <trkpt lat="45.90357" lon="4.68697">
        <ele>308.94</ele>
        <time>2025-10-23T12:30:38.279Z</time>
      </trkpt>
      <trkpt lat="45.90352" lon="4.68697">
        <ele>308.68</ele>
        <time>2025-10-23T12:30:40.016Z</time>
      </trkpt>
      <trkpt lat="45.90347" lon="4.68698">
        <ele>308.41</ele>
        <time>2025-10-23T12:30:41.755Z</time>
      </trkpt>
      <trkpt lat="45.90344" lon="4.68698">
        <ele>308.13</ele>
        <time>2025-10-23T12:30:43.495Z</time>
      </trkpt>
      <trkpt lat="45.90336" lon="4.68699">
        <ele>307.84</ele>
        <time>2025-10-23T12:30:45.238Z</time>
      </trkpt>
      <trkpt lat="45.90329" lon="4.68699">
        <ele>307.54</ele>
        <time>2025-10-23T12:30:46.984Z</time>
      </trkpt>
      <trkpt lat="45.90321" lon="4.687">
        <ele>307.25</ele>
        <time>2025-10-23T12:30:48.733Z</time>
      </trkpt>
      <trkpt lat="45.90303" lon="4.687">
        <ele>306.96</ele>
        <time>2025-10-23T12:30:50.490Z</time>
      </trkpt>
      <trkpt lat="45.90289" lon="4.68699">
        <ele>306.69</ele>
        <time>2025-10-23T12:30:52.253Z</time>
      </trkpt>
      <trkpt lat="45.90286" lon="4.68699">
        <ele>306.42</ele>
        <time>2025-10-23T12:30:54.017Z</time>
      </trkpt>
      <trkpt lat="45.9028" lon="4.68697">
        <ele>306.15</ele>
        <time>2025-10-23T12:30:55.783Z</time>
      </trkpt>
      <trkpt lat="45.90265" lon="4.68693">
        <ele>305.87</ele>
        <time>2025-10-23T12:30:57.556Z</time>
      </trkpt>
      <trkpt lat="45.9026" lon="4.6869">
        <ele>305.64</ele>
        <time>2025-10-23T12:30:59.331Z</time>
      </trkpt>
      <trkpt lat="45.90242" lon="4.68681">
        <ele>305.38</ele>
        <time>2025-10-23T12:31:01.114Z</time>
      </trkpt>
      <trkpt lat="45.90236" lon="4.68678">
        <ele>305.18</ele>
        <time>2025-10-23T12:31:02.899Z</time>
      </trkpt>
      <trkpt lat="45.90225" lon="4.68675">
        <ele>305.03</ele>
        <time>2025-10-23T12:31:04.689Z</time>
      </trkpt>
      <trkpt lat="45.9021" lon="4.6867">
        <ele>304.91</ele>
        <time>2025-10-23T12:31:06.485Z</time>
      </trkpt>
      <trkpt lat="45.90205" lon="4.68669">
        <ele>304.82</ele>
        <time>2025-10-23T12:31:08.284Z</time>
      </trkpt>
      <trkpt lat="45.90194" lon="4.68668">
        <ele>304.77</ele>
        <time>2025-10-23T12:31:10.087Z</time>
      </trkpt>
      <trkpt lat="45.90178" lon="4.68664">
        <ele>304.78</ele>
        <time>2025-10-23T12:31:11.897Z</time>
      </trkpt>
      <trkpt lat="45.90161" lon="4.68655">
        <ele>304.8</ele>
        <time>2025-10-23T12:31:13.715Z</time>
      </trkpt>
      <trkpt lat="45.90158" lon="4.68654">
        <ele>304.84</ele>
        <time>2025-10-23T12:31:15.534Z</time>
      </trkpt>
      <trkpt lat="45.90154" lon="4.68649">
        <ele>304.92</ele>
        <time>2025-10-23T12:31:17.355Z</time>
      </trkpt>
      <trkpt lat="45.90155" lon="4.68646">
        <ele>305.04</ele>
        <time>2025-10-23T12:31:19.177Z</time>
      </trkpt>
      <trkpt lat="45.90156" lon="4.68644">
        <ele>305.19</ele>
        <time>2025-10-23T12:31:21.000Z</time>
      </trkpt>
      <trkpt lat="45.90159" lon="4.68638">
        <ele>305.36</ele>
        <time>2025-10-23T12:31:22.825Z</time>
      </trkpt>
      <trkpt lat="45.90161" lon="4.68632">
        <ele>305.57</ele>
        <time>2025-10-23T12:31:24.652Z</time>
      </trkpt>
      <trkpt lat="45.90163" lon="4.68627">
        <ele>305.83</ele>
        <time>2025-10-23T12:31:26.480Z</time>
      </trkpt>
      <trkpt lat="45.90164" lon="4.68624">
        <ele>306.13</ele>
        <time>2025-10-23T12:31:28.310Z</time>
      </trkpt>
      <trkpt lat="45.90167" lon="4.68615">
        <ele>306.48</ele>
        <time>2025-10-23T12:31:30.143Z</time>
      </trkpt>
      <trkpt lat="45.90173" lon="4.68595">
        <ele>306.91</ele>
        <time>2025-10-23T12:31:31.982Z</time>
      </trkpt>
      <trkpt lat="45.90179" lon="4.68581">
        <ele>307.36</ele>
        <time>2025-10-23T12:31:33.825Z</time>
      </trkpt>
      <trkpt lat="45.9018" lon="4.68579">
        <ele>307.82</ele>
        <time>2025-10-23T12:31:35.669Z</time>
      </trkpt>
      <trkpt lat="45.90183" lon="4.68573">
        <ele>308.33</ele>
        <time>2025-10-23T12:31:37.515Z</time>
      </trkpt>
      <trkpt lat="45.90185" lon="4.68561">
        <ele>308.89</ele>
        <time>2025-10-23T12:31:39.365Z</time>
      </trkpt>
      <trkpt lat="45.90187" lon="4.68552">
        <ele>309.47</ele>
        <time>2025-10-23T12:31:41.218Z</time>
      </trkpt>
      <trkpt lat="45.90188" lon="4.68541">
        <ele>310.08</ele>
        <time>2025-10-23T12:31:43.074Z</time>
      </trkpt>
      <trkpt lat="45.90188" lon="4.68539">
        <ele>310.69</ele>
        <time>2025-10-23T12:31:44.931Z</time>
      </trkpt>
      <trkpt lat="45.90189" lon="4.68534">
        <ele>311.33</ele>
        <time>2025-10-23T12:31:46.789Z</time>
      </trkpt>
      <trkpt lat="45.90189" lon="4.68528">
        <ele>312.01</ele>
        <time>2025-10-23T12:31:48.649Z</time>
      </trkpt>
      <trkpt lat="45.90189" lon="4.68522">
        <ele>312.7</ele>
        <time>2025-10-23T12:31:50.510Z</time>
      </trkpt>
      <trkpt lat="45.9019" lon="4.68516">
        <ele>313.41</ele>
        <time>2025-10-23T12:31:52.373Z</time>
      </trkpt>
      <trkpt lat="45.9019" lon="4.68503">
        <ele>314.18</ele>
        <time>2025-10-23T12:31:54.240Z</time>
      </trkpt>
      <trkpt lat="45.90189" lon="4.68489">
        <ele>314.96</ele>
        <time>2025-10-23T12:31:56.111Z</time>
      </trkpt>
      <trkpt lat="45.90188" lon="4.68471">
        <ele>315.79</ele>
        <time>2025-10-23T12:31:57.987Z</time>
      </trkpt>
      <trkpt lat="45.90188" lon="4.68467">
        <ele>316.53</ele>
        <time>2025-10-23T12:31:59.864Z</time>
      </trkpt>
      <trkpt lat="45.90186" lon="4.68453">
        <ele>317.31</ele>
        <time>2025-10-23T12:32:01.746Z</time>
      </trkpt>
      <trkpt lat="45.90186" lon="4.6845">
        <ele>318.05</ele>
        <time>2025-10-23T12:32:03.628Z</time>
      </trkpt>
      <trkpt lat="45.90185" lon="4.68445">
        <ele>318.78</ele>
        <time>2025-10-23T12:32:05.512Z</time>
      </trkpt>
      <trkpt lat="45.90184" lon="4.68443">
        <ele>319.51</ele>
        <time>2025-10-23T12:32:07.396Z</time>
      </trkpt>
      <trkpt lat="45.90182" lon="4.68442">
        <ele>320.24</ele>
        <time>2025-10-23T12:32:09.281Z</time>
      </trkpt>
      <trkpt lat="45.90182" lon="4.68442">
        <ele>320.97</ele>
        <time>2025-10-23T12:32:11.166Z</time>
      </trkpt>
      <trkpt lat="45.90182" lon="4.68436">
        <ele>321.71</ele>
        <time>2025-10-23T12:32:13.053Z</time>
      </trkpt>
      <trkpt lat="45.90182" lon="4.68418">
        <ele>322.45</ele>
        <time>2025-10-23T12:32:14.945Z</time>
      </trkpt>
      <trkpt lat="45.90182" lon="4.68416">
        <ele>323.19</ele>
        <time>2025-10-23T12:32:16.838Z</time>
      </trkpt>
      <trkpt lat="45.90182" lon="4.68409">
        <ele>323.93</ele>
        <time>2025-10-23T12:32:18.733Z</time>
      </trkpt>
      <trkpt lat="45.90181" lon="4.68404">
        <ele>324.67</ele>
        <time>2025-10-23T12:32:20.629Z</time>
      </trkpt>
      <trkpt lat="45.90181" lon="4.68398">
        <ele>325.41</ele>
        <time>2025-10-23T12:32:22.527Z</time>
      </trkpt>
      <trkpt lat="45.9018" lon="4.68392">
        <ele>326.16</ele>
        <time>2025-10-23T12:32:24.427Z</time>
      </trkpt>
      <trkpt lat="45.90179" lon="4.68387">
        <ele>326.92</ele>
        <time>2025-10-23T12:32:26.329Z</time>
      </trkpt>
      <trkpt lat="45.90178" lon="4.68376">
        <ele>327.71</ele>
        <time>2025-10-23T12:32:28.234Z</time>
      </trkpt>
      <trkpt lat="45.90177" lon="4.6837">
        <ele>328.47</ele>
        <time>2025-10-23T12:32:30.140Z</time>
      </trkpt>
      <trkpt lat="45.90176" lon="4.68364">
        <ele>329.23</ele>
        <time>2025-10-23T12:32:32.048Z</time>
      </trkpt>
      <trkpt lat="45.90174" lon="4.68352">
        <ele>330.03</ele>
        <time>2025-10-23T12:32:33.960Z</time>
      </trkpt>
      <trkpt lat="45.90173" lon="4.68346">
        <ele>330.75</ele>
        <time>2025-10-23T12:32:35.873Z</time>
      </trkpt>
      <trkpt lat="45.90172" lon="4.6834">
        <ele>331.45</ele>
        <time>2025-10-23T12:32:37.788Z</time>
      </trkpt>
      <trkpt lat="45.90171" lon="4.68332">
        <ele>332.18</ele>
        <time>2025-10-23T12:32:39.706Z</time>
      </trkpt>
      <trkpt lat="45.90171" lon="4.68322">
        <ele>332.87</ele>
        <time>2025-10-23T12:32:41.627Z</time>
      </trkpt>
      <trkpt lat="45.9017" lon="4.68319">
        <ele>333.45</ele>
        <time>2025-10-23T12:32:43.548Z</time>
      </trkpt>
      <trkpt lat="45.90169" lon="4.68313">
        <ele>334.02</ele>
        <time>2025-10-23T12:32:45.471Z</time>
      </trkpt>
      <trkpt lat="45.90169" lon="4.68312">
        <ele>334.48</ele>
        <time>2025-10-23T12:32:47.395Z</time>
      </trkpt>
      <trkpt lat="45.90167" lon="4.68304">
        <ele>334.96</ele>
        <time>2025-10-23T12:32:49.321Z</time>
      </trkpt>
      <trkpt lat="45.90162" lon="4.68308">
        <ele>335.31</ele>
        <time>2025-10-23T12:32:51.249Z</time>
      </trkpt>
      <trkpt lat="45.90154" lon="4.68314">
        <ele>335.59</ele>
        <time>2025-10-23T12:32:53.181Z</time>
      </trkpt>
      <trkpt lat="45.90147" lon="4.6832">
        <ele>335.77</ele>
        <time>2025-10-23T12:32:55.116Z</time>
      </trkpt>
      <trkpt lat="45.90141" lon="4.68325">
        <ele>335.88</ele>
        <time>2025-10-23T12:32:57.054Z</time>
      </trkpt>
      <trkpt lat="45.90132" lon="4.68329">
        <ele>335.95</ele>
        <time>2025-10-23T12:32:58.996Z</time>
      </trkpt>
      <trkpt lat="45.90125" lon="4.68332">
        <ele>335.98</ele>
        <time>2025-10-23T12:33:00.941Z</time>
      </trkpt>
      <trkpt lat="45.90107" lon="4.68334">
        <ele>335.92</ele>
        <time>2025-10-23T12:33:02.894Z</time>
      </trkpt>
      <trkpt lat="45.90102" lon="4.68334">
        <ele>335.8</ele>
        <time>2025-10-23T12:33:04.849Z</time>
      </trkpt>
      <trkpt lat="45.90085" lon="4.68333">
        <ele>335.6</ele>
        <time>2025-10-23T12:33:06.811Z</time>
      </trkpt>
      <trkpt lat="45.90066" lon="4.68327">
        <ele>335.37</ele>
        <time>2025-10-23T12:33:08.781Z</time>
      </trkpt>
      <trkpt lat="45.90061" lon="4.68324">
        <ele>335.12</ele>
        <time>2025-10-23T12:33:10.753Z</time>
      </trkpt>
      <trkpt lat="45.90042" lon="4.68314">
        <ele>334.92</ele>
        <time>2025-10-23T12:33:12.734Z</time>
      </trkpt>
      <trkpt lat="45.90039" lon="4.68313">
        <ele>334.52</ele>
        <time>2025-10-23T12:33:14.716Z</time>
      </trkpt>
      <trkpt lat="45.90019" lon="4.68309">
        <ele>334.06</ele>
        <time>2025-10-23T12:33:16.706Z</time>
      </trkpt>
      <trkpt lat="45.90017" lon="4.68309">
        <ele>333.53</ele>
        <time>2025-10-23T12:33:18.697Z</time>
      </trkpt>
      <trkpt lat="45.90009" lon="4.68309">
        <ele>332.93</ele>
        <time>2025-10-23T12:33:20.691Z</time>
      </trkpt>
      <trkpt lat="45.89999" lon="4.68312">
        <ele>332.21</ele>
        <time>2025-10-23T12:33:22.689Z</time>
      </trkpt>
      <trkpt lat="45.89997" lon="4.68313">
        <ele>331.5</ele>
        <time>2025-10-23T12:33:24.688Z</time>
      </trkpt>
      <trkpt lat="45.89988" lon="4.6832">
        <ele>330.65</ele>
        <time>2025-10-23T12:33:26.692Z</time>
      </trkpt>
      <trkpt lat="45.89981" lon="4.68323">
        <ele>329.82</ele>
        <time>2025-10-23T12:33:28.698Z</time>
      </trkpt>
      <trkpt lat="45.89977" lon="4.68324">
        <ele>328.98</ele>
        <time>2025-10-23T12:33:30.706Z</time>
      </trkpt>
      <trkpt lat="45.89961" lon="4.68329">
        <ele>328.03</ele>
        <time>2025-10-23T12:33:32.721Z</time>
      </trkpt>
      <trkpt lat="45.89954" lon="4.68332">
        <ele>327.14</ele>
        <time>2025-10-23T12:33:34.739Z</time>
      </trkpt>
      <trkpt lat="45.89943" lon="4.68334">
        <ele>326.26</ele>
        <time>2025-10-23T12:33:36.762Z</time>
      </trkpt>
      <trkpt lat="45.89932" lon="4.68334">
        <ele>325.4</ele>
        <time>2025-10-23T12:33:38.789Z</time>
      </trkpt>
      <trkpt lat="45.89912" lon="4.68336">
        <ele>324.47</ele>
        <time>2025-10-23T12:33:40.824Z</time>
      </trkpt>
      <trkpt lat="45.89904" lon="4.68335">
        <ele>323.61</ele>
        <time>2025-10-23T12:33:42.863Z</time>
      </trkpt>
      <trkpt lat="45.89902" lon="4.68335">
        <ele>322.78</ele>
        <time>2025-10-23T12:33:44.903Z</time>
      </trkpt>
      <trkpt lat="45.89883" lon="4.68333">
        <ele>321.95</ele>
        <time>2025-10-23T12:33:46.951Z</time>
      </trkpt>
      <trkpt lat="45.8988" lon="4.68333">
        <ele>321.17</ele>
        <time>2025-10-23T12:33:49.000Z</time>
      </trkpt>
      <trkpt lat="45.89869" lon="4.68332">
        <ele>320.4</ele>
        <time>2025-10-23T12:33:51.053Z</time>
      </trkpt>
      <trkpt lat="45.89853" lon="4.68329">
        <ele>319.6</ele>
        <time>2025-10-23T12:33:53.113Z</time>
      </trkpt>
      <trkpt lat="45.89851" lon="4.68327">
        <ele>318.9</ele>
        <time>2025-10-23T12:33:55.174Z</time>
      </trkpt>
      <trkpt lat="45.89846" lon="4.68333">
        <ele>318.17</ele>
        <time>2025-10-23T12:33:57.238Z</time>
      </trkpt>
      <trkpt lat="45.89844" lon="4.68333">
        <ele>317.52</ele>
        <time>2025-10-23T12:33:59.302Z</time>
      </trkpt>
      <trkpt lat="45.89838" lon="4.68331">
        <ele>316.88</ele>
        <time>2025-10-23T12:34:01.369Z</time>
      </trkpt>
      <trkpt lat="45.89835" lon="4.68329">
        <ele>316.3</ele>
        <time>2025-10-23T12:34:03.437Z</time>
      </trkpt>
      <trkpt lat="45.89817" lon="4.68316">
        <ele>315.74</ele>
        <time>2025-10-23T12:34:05.514Z</time>
      </trkpt>
      <trkpt lat="45.89812" lon="4.68311">
        <ele>315.21</ele>
        <time>2025-10-23T12:34:07.593Z</time>
      </trkpt>
      <trkpt lat="45.89801" lon="4.68302">
        <ele>314.67</ele>
        <time>2025-10-23T12:34:09.678Z</time>
      </trkpt>
      <trkpt lat="45.89795" lon="4.68292">
        <ele>314.17</ele>
        <time>2025-10-23T12:34:11.766Z</time>
      </trkpt>
      <trkpt lat="45.89783" lon="4.68276">
        <ele>313.66</ele>
        <time>2025-10-23T12:34:13.861Z</time>
      </trkpt>
      <trkpt lat="45.89779" lon="4.68256">
        <ele>313.3</ele>
        <time>2025-10-23T12:34:15.962Z</time>
      </trkpt>
      <trkpt lat="45.89776" lon="4.68231">
        <ele>312.97</ele>
        <time>2025-10-23T12:34:18.071Z</time>
      </trkpt>
      <trkpt lat="45.89776" lon="4.68227">
        <ele>312.6</ele>
        <time>2025-10-23T12:34:20.181Z</time>
      </trkpt>
      <trkpt lat="45.89775" lon="4.68224">
        <ele>312.23</ele>
        <time>2025-10-23T12:34:22.292Z</time>
      </trkpt>
      <trkpt lat="45.89771" lon="4.682">
        <ele>311.88</ele>
        <time>2025-10-23T12:34:24.410Z</time>
      </trkpt>
      <trkpt lat="45.89762" lon="4.68184">
        <ele>311.47</ele>
        <time>2025-10-23T12:34:26.533Z</time>
      </trkpt>
      <trkpt lat="45.8975" lon="4.68178">
        <ele>311.1</ele>
        <time>2025-10-23T12:34:28.662Z</time>
      </trkpt>
      <trkpt lat="45.89742" lon="4.68184">
        <ele>310.71</ele>
        <time>2025-10-23T12:34:30.795Z</time>
      </trkpt>
      <trkpt lat="45.89741" lon="4.68186">
        <ele>310.33</ele>
        <time>2025-10-23T12:34:32.928Z</time>
      </trkpt>
      <trkpt lat="45.89739" lon="4.68189">
        <ele>309.93</ele>
        <time>2025-10-23T12:34:35.062Z</time>
      </trkpt>
      <trkpt lat="45.89735" lon="4.68193">
        <ele>309.5</ele>
        <time>2025-10-23T12:34:37.199Z</time>
      </trkpt>
      <trkpt lat="45.89725" lon="4.68197">
        <ele>309.07</ele>
        <time>2025-10-23T12:34:39.340Z</time>
      </trkpt>
      <trkpt lat="45.89722" lon="4.68198">
        <ele>308.65</ele>
        <time>2025-10-23T12:34:41.482Z</time>
      </trkpt>
      <trkpt lat="45.8972" lon="4.682">
        <ele>308.23</ele>
        <time>2025-10-23T12:34:43.625Z</time>
      </trkpt>
      <trkpt lat="45.89707" lon="4.68207">
        <ele>307.74</ele>
        <time>2025-10-23T12:34:45.774Z</time>
      </trkpt>
      <trkpt lat="45.89689" lon="4.68217">
        <ele>307.2</ele>
        <time>2025-10-23T12:34:47.931Z</time>
      </trkpt>
      <trkpt lat="45.89687" lon="4.68219">
        <ele>306.75</ele>
        <time>2025-10-23T12:34:50.089Z</time>
      </trkpt>
      <trkpt lat="45.89684" lon="4.68221">
        <ele>306.3</ele>
        <time>2025-10-23T12:34:52.248Z</time>
      </trkpt>
      <trkpt lat="45.89671" lon="4.68227">
        <ele>305.81</ele>
        <time>2025-10-23T12:34:54.413Z</time>
      </trkpt>
      <trkpt lat="45.89666" lon="4.68229">
        <ele>305.34</ele>
        <time>2025-10-23T12:34:56.580Z</time>
      </trkpt>
      <trkpt lat="45.89651" lon="4.68238">
        <ele>304.88</ele>
        <time>2025-10-23T12:34:58.754Z</time>
      </trkpt>
      <trkpt lat="45.89644" lon="4.68244">
        <ele>304.43</ele>
        <time>2025-10-23T12:35:00.931Z</time>
      </trkpt>
      <trkpt lat="45.8963" lon="4.68257">
        <ele>303.94</ele>
        <time>2025-10-23T12:35:03.115Z</time>
      </trkpt>
      <trkpt lat="45.89626" lon="4.68263">
        <ele>303.46</ele>
        <time>2025-10-23T12:35:05.301Z</time>
      </trkpt>
      <trkpt lat="45.89617" lon="4.68278">
        <ele>302.96</ele>
        <time>2025-10-23T12:35:07.493Z</time>
      </trkpt>
      <trkpt lat="45.8961" lon="4.68289">
        <ele>302.46</ele>
        <time>2025-10-23T12:35:09.689Z</time>
      </trkpt>
      <trkpt lat="45.89606" lon="4.68295">
        <ele>301.99</ele>
        <time>2025-10-23T12:35:11.888Z</time>
      </trkpt>
      <trkpt lat="45.89588" lon="4.68309">
        <ele>301.51</ele>
        <time>2025-10-23T12:35:14.095Z</time>
      </trkpt>
      <trkpt lat="45.89575" lon="4.68316">
        <ele>301.02</ele>
        <time>2025-10-23T12:35:16.308Z</time>
      </trkpt>
      <trkpt lat="45.89569" lon="4.68319">
        <ele>300.56</ele>
        <time>2025-10-23T12:35:18.524Z</time>
      </trkpt>
      <trkpt lat="45.89552" lon="4.68324">
        <ele>300.08</ele>
        <time>2025-10-23T12:35:20.747Z</time>
      </trkpt>
      <trkpt lat="45.89538" lon="4.68328">
        <ele>299.65</ele>
        <time>2025-10-23T12:35:22.976Z</time>
      </trkpt>
      <trkpt lat="45.89522" lon="4.68333">
        <ele>299.25</ele>
        <time>2025-10-23T12:35:25.212Z</time>
      </trkpt>
      <trkpt lat="45.89514" lon="4.68336">
        <ele>298.88</ele>
        <time>2025-10-23T12:35:27.451Z</time>
      </trkpt>
      <trkpt lat="45.89497" lon="4.68345">
        <ele>298.49</ele>
        <time>2025-10-23T12:35:29.698Z</time>
      </trkpt>
      <trkpt lat="45.89492" lon="4.68348">
        <ele>298.17</ele>
        <time>2025-10-23T12:35:31.947Z</time>
      </trkpt>
      <trkpt lat="45.89484" lon="4.68352">
        <ele>297.92</ele>
        <time>2025-10-23T12:35:34.199Z</time>
      </trkpt>
      <trkpt lat="45.89479" lon="4.68355">
        <ele>297.7</ele>
        <time>2025-10-23T12:35:36.453Z</time>
      </trkpt>
      <trkpt lat="45.89474" lon="4.68358">
        <ele>297.51</ele>
        <time>2025-10-23T12:35:38.710Z</time>
      </trkpt>
      <trkpt lat="45.89469" lon="4.68362">
        <ele>297.37</ele>
        <time>2025-10-23T12:35:40.969Z</time>
      </trkpt>
      <trkpt lat="45.89457" lon="4.68379">
        <ele>297.22</ele>
        <time>2025-10-23T12:35:43.235Z</time>
      </trkpt>
      <trkpt lat="45.89453" lon="4.68397">
        <ele>297.12</ele>
        <time>2025-10-23T12:35:45.507Z</time>
      </trkpt>
      <trkpt lat="45.89452" lon="4.684">
        <ele>297.09</ele>
        <time>2025-10-23T12:35:47.780Z</time>
      </trkpt>
      <trkpt lat="45.89448" lon="4.68423">
        <ele>297.07</ele>
        <time>2025-10-23T12:35:50.059Z</time>
      </trkpt>
      <trkpt lat="45.89446" lon="4.68433">
        <ele>297.14</ele>
        <time>2025-10-23T12:35:52.342Z</time>
      </trkpt>
      <trkpt lat="45.89439" lon="4.68445">
        <ele>297.28</ele>
        <time>2025-10-23T12:35:54.629Z</time>
      </trkpt>
      <trkpt lat="45.89429" lon="4.6845">
        <ele>297.51</ele>
        <time>2025-10-23T12:35:56.920Z</time>
      </trkpt>
      <trkpt lat="45.89421" lon="4.68453">
        <ele>297.76</ele>
        <time>2025-10-23T12:35:59.215Z</time>
      </trkpt>
      <trkpt lat="45.89411" lon="4.68456">
        <ele>298.05</ele>
        <time>2025-10-23T12:36:01.514Z</time>
      </trkpt>
      <trkpt lat="45.89409" lon="4.68457">
        <ele>298.32</ele>
        <time>2025-10-23T12:36:03.814Z</time>
      </trkpt>
      <trkpt lat="45.89392" lon="4.68458">
        <ele>298.65</ele>
        <time>2025-10-23T12:36:06.121Z</time>
      </trkpt>
      <trkpt lat="45.8939" lon="4.68458">
        <ele>298.97</ele>
        <time>2025-10-23T12:36:08.429Z</time>
      </trkpt>
      <trkpt lat="45.89382" lon="4.68458">
        <ele>299.32</ele>
        <time>2025-10-23T12:36:10.740Z</time>
      </trkpt>
      <trkpt lat="45.89376" lon="4.6846">
        <ele>299.7</ele>
        <time>2025-10-23T12:36:13.054Z</time>
      </trkpt>
      <trkpt lat="45.8937" lon="4.68464">
        <ele>300.12</ele>
        <time>2025-10-23T12:36:15.371Z</time>
      </trkpt>
      <trkpt lat="45.89361" lon="4.68469">
        <ele>300.57</ele>
        <time>2025-10-23T12:36:17.692Z</time>
      </trkpt>
      <trkpt lat="45.89357" lon="4.68471">
        <ele>301.03</ele>
        <time>2025-10-23T12:36:20.014Z</time>
      </trkpt>
      <trkpt lat="45.8935" lon="4.68466">
        <ele>301.52</ele>
        <time>2025-10-23T12:36:22.339Z</time>
      </trkpt>
      <trkpt lat="45.89349" lon="4.68464">
        <ele>302.03</ele>
        <time>2025-10-23T12:36:24.665Z</time>
      </trkpt>
      <trkpt lat="45.89349" lon="4.68462">
        <ele>302.55</ele>
        <time>2025-10-23T12:36:26.992Z</time>
      </trkpt>
      <trkpt lat="45.89347" lon="4.68442">
        <ele>303.11</ele>
        <time>2025-10-23T12:36:29.325Z</time>
      </trkpt>
      <trkpt lat="45.89346" lon="4.68425">
        <ele>303.67</ele>
        <time>2025-10-23T12:36:31.663Z</time>
      </trkpt>
      <trkpt lat="45.89345" lon="4.68421">
        <ele>304.25</ele>
        <time>2025-10-23T12:36:34.002Z</time>
      </trkpt>
      <trkpt lat="45.89343" lon="4.68395">
        <ele>304.92</ele>
        <time>2025-10-23T12:36:36.348Z</time>
      </trkpt>
      <trkpt lat="45.89337" lon="4.68381">
        <ele>305.57</ele>
        <time>2025-10-23T12:36:38.699Z</time>
      </trkpt>
      <trkpt lat="45.89335" lon="4.68379">
        <ele>306.18</ele>
        <time>2025-10-23T12:36:41.051Z</time>
      </trkpt>
      <trkpt lat="45.89326" lon="4.68375">
        <ele>306.81</ele>
        <time>2025-10-23T12:36:43.407Z</time>
      </trkpt>
      <trkpt lat="45.89321" lon="4.68371">
        <ele>307.42</ele>
        <time>2025-10-23T12:36:45.765Z</time>
      </trkpt>
      <trkpt lat="45.89317" lon="4.68366">
        <ele>308.04</ele>
        <time>2025-10-23T12:36:48.126Z</time>
      </trkpt>
      <trkpt lat="45.89314" lon="4.68362">
        <ele>308.63</ele>
        <time>2025-10-23T12:36:50.488Z</time>
      </trkpt>
      <trkpt lat="45.89299" lon="4.68344">
        <ele>309.22</ele>
        <time>2025-10-23T12:36:52.858Z</time>
      </trkpt>
      <trkpt lat="45.89297" lon="4.68342">
        <ele>309.79</ele>
        <time>2025-10-23T12:36:55.229Z</time>
      </trkpt>
      <trkpt lat="45.89284" lon="4.68325">
        <ele>310.37</ele>
        <time>2025-10-23T12:36:57.608Z</time>
      </trkpt>
      <trkpt lat="45.89277" lon="4.68315">
        <ele>310.93</ele>
        <time>2025-10-23T12:36:59.991Z</time>
      </trkpt>
      <trkpt lat="45.89262" lon="4.68296">
        <ele>311.52</ele>
        <time>2025-10-23T12:37:02.382Z</time>
      </trkpt>
      <trkpt lat="45.89261" lon="4.68294">
        <ele>312.03</ele>
        <time>2025-10-23T12:37:04.774Z</time>
      </trkpt>
      <trkpt lat="45.89259" lon="4.68292">
        <ele>312.51</ele>
        <time>2025-10-23T12:37:07.167Z</time>
      </trkpt>
      <trkpt lat="45.89245" lon="4.68271">
        <ele>313.04</ele>
        <time>2025-10-23T12:37:09.568Z</time>
      </trkpt>
      <trkpt lat="45.89242" lon="4.68265">
        <ele>313.48</ele>
        <time>2025-10-23T12:37:11.971Z</time>
      </trkpt>
      <trkpt lat="45.89231" lon="4.68251">
        <ele>313.91</ele>
        <time>2025-10-23T12:37:14.380Z</time>
      </trkpt>
      <trkpt lat="45.89227" lon="4.68247">
        <ele>314.25</ele>
        <time>2025-10-23T12:37:16.791Z</time>
      </trkpt>
      <trkpt lat="45.89213" lon="4.68227">
        <ele>314.55</ele>
        <time>2025-10-23T12:37:19.210Z</time>
      </trkpt>
      <trkpt lat="45.8921" lon="4.68223">
        <ele>314.84</ele>
        <time>2025-10-23T12:37:21.631Z</time>
      </trkpt>
      <trkpt lat="45.89208" lon="4.6822">
        <ele>315.08</ele>
        <time>2025-10-23T12:37:24.053Z</time>
      </trkpt>
      <trkpt lat="45.89206" lon="4.68216">
        <ele>315.29</ele>
        <time>2025-10-23T12:37:26.477Z</time>
      </trkpt>
      <trkpt lat="45.892" lon="4.6821">
        <ele>315.48</ele>
        <time>2025-10-23T12:37:28.904Z</time>
      </trkpt>
      <trkpt lat="45.89198" lon="4.68207">
        <ele>315.61</ele>
        <time>2025-10-23T12:37:31.332Z</time>
      </trkpt>
      <trkpt lat="45.89195" lon="4.68202">
        <ele>315.7</ele>
        <time>2025-10-23T12:37:33.762Z</time>
      </trkpt>
      <trkpt lat="45.89186" lon="4.68188">
        <ele>315.8</ele>
        <time>2025-10-23T12:37:36.197Z</time>
      </trkpt>
      <trkpt lat="45.89181" lon="4.68181">
        <ele>315.83</ele>
        <time>2025-10-23T12:37:38.635Z</time>
      </trkpt>
      <trkpt lat="45.89174" lon="4.68169">
        <ele>315.82</ele>
        <time>2025-10-23T12:37:41.078Z</time>
      </trkpt>
      <trkpt lat="45.89166" lon="4.68155">
        <ele>315.73</ele>
        <time>2025-10-23T12:37:43.526Z</time>
      </trkpt>
      <trkpt lat="45.89153" lon="4.68134">
        <ele>315.59</ele>
        <time>2025-10-23T12:37:45.982Z</time>
      </trkpt>
      <trkpt lat="45.89147" lon="4.68125">
        <ele>315.42</ele>
        <time>2025-10-23T12:37:48.442Z</time>
      </trkpt>
      <trkpt lat="45.89145" lon="4.68123">
        <ele>315.24</ele>
        <time>2025-10-23T12:37:50.903Z</time>
      </trkpt>
      <trkpt lat="45.89141" lon="4.68118">
        <ele>315.02</ele>
        <time>2025-10-23T12:37:53.366Z</time>
      </trkpt>
      <trkpt lat="45.89138" lon="4.68114">
        <ele>314.78</ele>
        <time>2025-10-23T12:37:55.831Z</time>
      </trkpt>
      <trkpt lat="45.89135" lon="4.68104">
        <ele>314.49</ele>
        <time>2025-10-23T12:37:58.299Z</time>
      </trkpt>
      <trkpt lat="45.89134" lon="4.68097">
        <ele>314.22</ele>
        <time>2025-10-23T12:38:00.769Z</time>
      </trkpt>
      <trkpt lat="45.89133" lon="4.68081">
        <ele>313.94</ele>
        <time>2025-10-23T12:38:03.244Z</time>
      </trkpt>
      <trkpt lat="45.8913" lon="4.68068">
        <ele>313.66</ele>
        <time>2025-10-23T12:38:05.722Z</time>
      </trkpt>
      <trkpt lat="45.89129" lon="4.68065">
        <ele>313.4</ele>
        <time>2025-10-23T12:38:08.202Z</time>
      </trkpt>
      <trkpt lat="45.89126" lon="4.68052">
        <ele>313.12</ele>
        <time>2025-10-23T12:38:10.685Z</time>
      </trkpt>
      <trkpt lat="45.89123" lon="4.68031">
        <ele>312.85</ele>
        <time>2025-10-23T12:38:13.175Z</time>
      </trkpt>
      <trkpt lat="45.89122" lon="4.68023">
        <ele>312.64</ele>
        <time>2025-10-23T12:38:15.667Z</time>
      </trkpt>
      <trkpt lat="45.8912" lon="4.68014">
        <ele>312.45</ele>
        <time>2025-10-23T12:38:18.162Z</time>
      </trkpt>
      <trkpt lat="45.89118" lon="4.68">
        <ele>312.3</ele>
        <time>2025-10-23T12:38:20.661Z</time>
      </trkpt>
      <trkpt lat="45.89116" lon="4.67976">
        <ele>312.21</ele>
        <time>2025-10-23T12:38:23.167Z</time>
      </trkpt>
      <trkpt lat="45.89114" lon="4.67947">
        <ele>312.18</ele>
        <time>2025-10-23T12:38:25.681Z</time>
      </trkpt>
      <trkpt lat="45.89114" lon="4.67945">
        <ele>312.14</ele>
        <time>2025-10-23T12:38:28.196Z</time>
      </trkpt>
      <trkpt lat="45.89114" lon="4.67939">
        <ele>312.14</ele>
        <time>2025-10-23T12:38:30.713Z</time>
      </trkpt>
      <trkpt lat="45.89114" lon="4.67928">
        <ele>312.18</ele>
        <time>2025-10-23T12:38:33.233Z</time>
      </trkpt>
      <trkpt lat="45.89113" lon="4.6792">
        <ele>312.27</ele>
        <time>2025-10-23T12:38:35.755Z</time>
      </trkpt>
      <trkpt lat="45.89113" lon="4.67912">
        <ele>312.42</ele>
        <time>2025-10-23T12:38:38.280Z</time>
      </trkpt>
      <trkpt lat="45.89113" lon="4.67903">
        <ele>312.63</ele>
        <time>2025-10-23T12:38:40.807Z</time>
      </trkpt>
      <trkpt lat="45.89113" lon="4.67899">
        <ele>312.88</ele>
        <time>2025-10-23T12:38:43.335Z</time>
      </trkpt>
      <trkpt lat="45.89113" lon="4.67891">
        <ele>313.2</ele>
        <time>2025-10-23T12:38:45.865Z</time>
      </trkpt>
      <trkpt lat="45.89113" lon="4.67883">
        <ele>313.58</ele>
        <time>2025-10-23T12:38:48.398Z</time>
      </trkpt>
      <trkpt lat="45.89113" lon="4.6788">
        <ele>314</ele>
        <time>2025-10-23T12:38:50.932Z</time>
      </trkpt>
      <trkpt lat="45.89113" lon="4.67873">
        <ele>314.49</ele>
        <time>2025-10-23T12:38:53.468Z</time>
      </trkpt>
      <trkpt lat="45.89115" lon="4.67862">
        <ele>315.05</ele>
        <time>2025-10-23T12:38:56.007Z</time>
      </trkpt>
      <trkpt lat="45.89116" lon="4.6785">
        <ele>315.68</ele>
        <time>2025-10-23T12:38:58.550Z</time>
      </trkpt>
      <trkpt lat="45.89117" lon="4.6784">
        <ele>316.36</ele>
        <time>2025-10-23T12:39:01.095Z</time>
      </trkpt>
      <trkpt lat="45.8912" lon="4.67833">
        <ele>317.1</ele>
        <time>2025-10-23T12:39:03.643Z</time>
      </trkpt>
      <trkpt lat="45.8912" lon="4.6783">
        <ele>317.87</ele>
        <time>2025-10-23T12:39:06.192Z</time>
      </trkpt>
      <trkpt lat="45.89121" lon="4.67815">
        <ele>318.72</ele>
        <time>2025-10-23T12:39:08.745Z</time>
      </trkpt>
      <trkpt lat="45.89121" lon="4.67808">
        <ele>319.59</ele>
        <time>2025-10-23T12:39:11.300Z</time>
      </trkpt>
      <trkpt lat="45.89121" lon="4.67804">
        <ele>320.48</ele>
        <time>2025-10-23T12:39:13.856Z</time>
      </trkpt>
      <trkpt lat="45.89124" lon="4.67785">
        <ele>321.44</ele>
        <time>2025-10-23T12:39:16.418Z</time>
      </trkpt>
      <trkpt lat="45.89126" lon="4.6777">
        <ele>322.45</ele>
        <time>2025-10-23T12:39:18.984Z</time>
      </trkpt>
      <trkpt lat="45.89127" lon="4.67765">
        <ele>323.46</ele>
        <time>2025-10-23T12:39:21.552Z</time>
      </trkpt>
      <trkpt lat="45.89128" lon="4.67758">
        <ele>324.5</ele>
        <time>2025-10-23T12:39:24.122Z</time>
      </trkpt>
      <trkpt lat="45.89128" lon="4.67747">
        <ele>325.61</ele>
        <time>2025-10-23T12:39:26.695Z</time>
      </trkpt>
      <trkpt lat="45.89129" lon="4.67743">
        <ele>326.69</ele>
        <time>2025-10-23T12:39:29.269Z</time>
      </trkpt>
      <trkpt lat="45.8913" lon="4.67732">
        <ele>327.82</ele>
        <time>2025-10-23T12:39:31.847Z</time>
      </trkpt>
      <trkpt lat="45.89131" lon="4.67723">
        <ele>328.93</ele>
        <time>2025-10-23T12:39:34.427Z</time>
      </trkpt>
      <trkpt lat="45.89133" lon="4.67709">
        <ele>330.1</ele>
        <time>2025-10-23T12:39:37.011Z</time>
      </trkpt>
      <trkpt lat="45.89134" lon="4.67703">
        <ele>331.2</ele>
        <time>2025-10-23T12:39:39.597Z</time>
      </trkpt>
      <trkpt lat="45.89134" lon="4.67697">
        <ele>332.29</ele>
        <time>2025-10-23T12:39:42.185Z</time>
      </trkpt>
      <trkpt lat="45.89134" lon="4.67685">
        <ele>333.41</ele>
        <time>2025-10-23T12:39:44.776Z</time>
      </trkpt>
      <trkpt lat="45.89135" lon="4.67675">
        <ele>334.49</ele>
        <time>2025-10-23T12:39:47.370Z</time>
      </trkpt>
      <trkpt lat="45.89137" lon="4.67667">
        <ele>335.52</ele>
        <time>2025-10-23T12:39:49.967Z</time>
      </trkpt>
      <trkpt lat="45.89139" lon="4.6766">
        <ele>336.49</ele>
        <time>2025-10-23T12:39:52.566Z</time>
      </trkpt>
      <trkpt lat="45.8914" lon="4.67657">
        <ele>337.39</ele>
        <time>2025-10-23T12:39:55.166Z</time>
      </trkpt>
      <trkpt lat="45.8914" lon="4.67656">
        <ele>338.23</ele>
        <time>2025-10-23T12:39:57.766Z</time>
      </trkpt>
      <trkpt lat="45.89137" lon="4.67651">
        <ele>339.03</ele>
        <time>2025-10-23T12:40:00.368Z</time>
      </trkpt>
      <trkpt lat="45.89135" lon="4.6765">
        <ele>339.75</ele>
        <time>2025-10-23T12:40:02.971Z</time>
      </trkpt>
      <trkpt lat="45.89132" lon="4.6765">
        <ele>340.39</ele>
        <time>2025-10-23T12:40:05.575Z</time>
      </trkpt>
      <trkpt lat="45.89127" lon="4.67641">
        <ele>341.06</ele>
        <time>2025-10-23T12:40:08.182Z</time>
      </trkpt>
      <trkpt lat="45.89126" lon="4.67639">
        <ele>341.61</ele>
        <time>2025-10-23T12:40:10.790Z</time>
      </trkpt>
      <trkpt lat="45.89124" lon="4.67629">
        <ele>342.14</ele>
        <time>2025-10-23T12:40:13.401Z</time>
      </trkpt>
      <trkpt lat="45.89123" lon="4.67622">
        <ele>342.6</ele>
        <time>2025-10-23T12:40:16.014Z</time>
      </trkpt>
      <trkpt lat="45.89122" lon="4.67618">
        <ele>342.99</ele>
        <time>2025-10-23T12:40:18.628Z</time>
      </trkpt>
      <trkpt lat="45.89122" lon="4.67615">
        <ele>343.33</ele>
        <time>2025-10-23T12:40:21.243Z</time>
      </trkpt>
      <trkpt lat="45.89122" lon="4.67613">
        <ele>343.61</ele>
        <time>2025-10-23T12:40:23.859Z</time>
      </trkpt>
      <trkpt lat="45.89123" lon="4.67611">
        <ele>343.84</ele>
        <time>2025-10-23T12:40:26.476Z</time>
      </trkpt>
      <trkpt lat="45.89123" lon="4.67608">
        <ele>344.03</ele>
        <time>2025-10-23T12:40:29.093Z</time>
      </trkpt>
      <trkpt lat="45.8912" lon="4.67604">
        <ele>344.16</ele>
        <time>2025-10-23T12:40:31.712Z</time>
      </trkpt>
      <trkpt lat="45.89117" lon="4.67602">
        <ele>344.24</ele>
        <time>2025-10-23T12:40:34.332Z</time>
      </trkpt>
      <trkpt lat="45.89113" lon="4.67597">
        <ele>344.3</ele>
        <time>2025-10-23T12:40:36.955Z</time>
      </trkpt>
      <trkpt lat="45.89109" lon="4.67593">
        <ele>344.33</ele>
        <time>2025-10-23T12:40:39.580Z</time>
      </trkpt>
      <trkpt lat="45.89105" lon="4.6759">
        <ele>344.35</ele>
        <time>2025-10-23T12:40:42.206Z</time>
      </trkpt>
      <trkpt lat="45.89103" lon="4.67585">
        <ele>344.36</ele>
        <time>2025-10-23T12:40:44.834Z</time>
      </trkpt>
      <trkpt lat="45.89099" lon="4.6758">
        <ele>344.35</ele>
        <time>2025-10-23T12:40:47.464Z</time>
      </trkpt>
      <trkpt lat="45.89098" lon="4.67578">
        <ele>344.35</ele>
        <time>2025-10-23T12:40:50.095Z</time>
      </trkpt>
      <trkpt lat="45.89095" lon="4.67573">
        <ele>344.35</ele>
        <time>2025-10-23T12:40:52.728Z</time>
      </trkpt>
      <trkpt lat="45.89093" lon="4.6757">
        <ele>344.37</ele>
        <time>2025-10-23T12:40:55.362Z</time>
      </trkpt>
      <trkpt lat="45.8909" lon="4.67565">
        <ele>344.4</ele>
        <time>2025-10-23T12:40:57.998Z</time>
      </trkpt>
      <trkpt lat="45.89088" lon="4.67562">
        <ele>344.46</ele>
        <time>2025-10-23T12:41:00.635Z</time>
      </trkpt>
      <trkpt lat="45.89084" lon="4.67553">
        <ele>344.56</ele>
        <time>2025-10-23T12:41:03.275Z</time>
      </trkpt>
      <trkpt lat="45.89082" lon="4.6755">
        <ele>344.68</ele>
        <time>2025-10-23T12:41:05.916Z</time>
      </trkpt>
      <trkpt lat="45.89079" lon="4.67545">
        <ele>344.84</ele>
        <time>2025-10-23T12:41:08.559Z</time>
      </trkpt>
      <trkpt lat="45.89073" lon="4.67538">
        <ele>345.04</ele>
        <time>2025-10-23T12:41:11.205Z</time>
      </trkpt>
      <trkpt lat="45.8907" lon="4.67532">
        <ele>345.29</ele>
        <time>2025-10-23T12:41:13.853Z</time>
      </trkpt>
      <trkpt lat="45.89065" lon="4.67524">
        <ele>345.61</ele>
        <time>2025-10-23T12:41:16.505Z</time>
      </trkpt>
      <trkpt lat="45.89063" lon="4.67521">
        <ele>345.94</ele>
        <time>2025-10-23T12:41:19.158Z</time>
      </trkpt>
      <trkpt lat="45.89058" lon="4.67514">
        <ele>346.34</ele>
        <time>2025-10-23T12:41:21.814Z</time>
      </trkpt>
      <trkpt lat="45.89056" lon="4.67511">
        <ele>346.77</ele>
        <time>2025-10-23T12:41:24.471Z</time>
      </trkpt>
      <trkpt lat="45.89055" lon="4.67508">
        <ele>347.24</ele>
        <time>2025-10-23T12:41:27.129Z</time>
      </trkpt>
      <trkpt lat="45.89053" lon="4.67505">
        <ele>347.76</ele>
        <time>2025-10-23T12:41:29.788Z</time>
      </trkpt>
      <trkpt lat="45.89051" lon="4.67503">
        <ele>348.32</ele>
        <time>2025-10-23T12:41:32.448Z</time>
      </trkpt>
      <trkpt lat="45.89044" lon="4.67493">
        <ele>348.97</ele>
        <time>2025-10-23T12:41:35.112Z</time>
      </trkpt>
      <trkpt lat="45.89041" lon="4.67487">
        <ele>349.64</ele>
        <time>2025-10-23T12:41:37.778Z</time>
      </trkpt>
      <trkpt lat="45.8903" lon="4.67468">
        <ele>350.41</ele>
        <time>2025-10-23T12:41:40.451Z</time>
      </trkpt>
      <trkpt lat="45.89024" lon="4.67451">
        <ele>351.23</ele>
        <time>2025-10-23T12:41:43.130Z</time>
      </trkpt>
      <trkpt lat="45.89017" lon="4.67439">
        <ele>351.97</ele>
        <time>2025-10-23T12:41:45.813Z</time>
      </trkpt>
      <trkpt lat="45.89006" lon="4.67415">
        <ele>352.77</ele>
        <time>2025-10-23T12:41:48.505Z</time>
      </trkpt>
      <trkpt lat="45.89003" lon="4.67405">
        <ele>353.6</ele>
        <time>2025-10-23T12:41:51.200Z</time>
      </trkpt>
      <trkpt lat="45.89003" lon="4.67402">
        <ele>354.43</ele>
        <time>2025-10-23T12:41:53.896Z</time>
      </trkpt>
      <trkpt lat="45.89003" lon="4.67399">
        <ele>355.28</ele>
        <time>2025-10-23T12:41:56.593Z</time>
      </trkpt>
      <trkpt lat="45.89002" lon="4.67392">
        <ele>356.16</ele>
        <time>2025-10-23T12:41:59.292Z</time>
      </trkpt>
      <trkpt lat="45.89001" lon="4.67386">
        <ele>357.06</ele>
        <time>2025-10-23T12:42:01.993Z</time>
      </trkpt>
      <trkpt lat="45.89001" lon="4.67379">
        <ele>357.98</ele>
        <time>2025-10-23T12:42:04.696Z</time>
      </trkpt>
      <trkpt lat="45.88999" lon="4.67369">
        <ele>358.93</ele>
        <time>2025-10-23T12:42:07.401Z</time>
      </trkpt>
      <trkpt lat="45.88998" lon="4.67357">
        <ele>359.89</ele>
        <time>2025-10-23T12:42:10.110Z</time>
      </trkpt>
      <trkpt lat="45.88998" lon="4.67353">
        <ele>360.79</ele>
        <time>2025-10-23T12:42:12.820Z</time>
      </trkpt>
      <trkpt lat="45.88997" lon="4.67346">
        <ele>361.7</ele>
        <time>2025-10-23T12:42:15.532Z</time>
      </trkpt>
      <trkpt lat="45.88997" lon="4.67337">
        <ele>362.62</ele>
        <time>2025-10-23T12:42:18.247Z</time>
      </trkpt>
      <trkpt lat="45.88997" lon="4.67334">
        <ele>363.46</ele>
        <time>2025-10-23T12:42:20.963Z</time>
      </trkpt>
      <trkpt lat="45.88996" lon="4.67327">
        <ele>364.31</ele>
        <time>2025-10-23T12:42:23.681Z</time>
      </trkpt>
      <trkpt lat="45.88996" lon="4.67321">
        <ele>365.14</ele>
        <time>2025-10-23T12:42:26.400Z</time>
      </trkpt>
      <trkpt lat="45.88996" lon="4.67311">
        <ele>365.99</ele>
        <time>2025-10-23T12:42:29.122Z</time>
      </trkpt>
      <trkpt lat="45.88996" lon="4.67308">
        <ele>366.76</ele>
        <time>2025-10-23T12:42:31.845Z</time>
      </trkpt>
      <trkpt lat="45.88997" lon="4.67299">
        <ele>367.56</ele>
        <time>2025-10-23T12:42:34.571Z</time>
      </trkpt>
      <trkpt lat="45.88997" lon="4.67285">
        <ele>368.33</ele>
        <time>2025-10-23T12:42:37.301Z</time>
      </trkpt>
      <trkpt lat="45.88998" lon="4.67276">
        <ele>369.05</ele>
        <time>2025-10-23T12:42:40.034Z</time>
      </trkpt>
      <trkpt lat="45.89001" lon="4.67267">
        <ele>369.75</ele>
        <time>2025-10-23T12:42:42.769Z</time>
      </trkpt>
      <trkpt lat="45.89001" lon="4.67264">
        <ele>370.4</ele>
        <time>2025-10-23T12:42:45.505Z</time>
      </trkpt>
      <trkpt lat="45.89002" lon="4.67261">
        <ele>371.03</ele>
        <time>2025-10-23T12:42:48.242Z</time>
      </trkpt>
      <trkpt lat="45.89" lon="4.67254">
        <ele>371.65</ele>
        <time>2025-10-23T12:42:50.981Z</time>
      </trkpt>
      <trkpt lat="45.88999" lon="4.67252">
        <ele>372.25</ele>
        <time>2025-10-23T12:42:53.721Z</time>
      </trkpt>
      <trkpt lat="45.88987" lon="4.67248">
        <ele>372.81</ele>
        <time>2025-10-23T12:42:56.466Z</time>
      </trkpt>
      <trkpt lat="45.88976" lon="4.67247">
        <ele>373.38</ele>
        <time>2025-10-23T12:42:59.216Z</time>
      </trkpt>
      <trkpt lat="45.88973" lon="4.67247">
        <ele>373.97</ele>
        <time>2025-10-23T12:43:01.967Z</time>
      </trkpt>
      <trkpt lat="45.88953" lon="4.67246">
        <ele>374.6</ele>
        <time>2025-10-23T12:43:04.726Z</time>
      </trkpt>
      <trkpt lat="45.88946" lon="4.67245">
        <ele>375.23</ele>
        <time>2025-10-23T12:43:07.488Z</time>
      </trkpt>
      <trkpt lat="45.88942" lon="4.67242">
        <ele>375.86</ele>
        <time>2025-10-23T12:43:10.252Z</time>
      </trkpt>
      <trkpt lat="45.88941" lon="4.67239">
        <ele>376.48</ele>
        <time>2025-10-23T12:43:13.017Z</time>
      </trkpt>
      <trkpt lat="45.88941" lon="4.67236">
        <ele>377.11</ele>
        <time>2025-10-23T12:43:15.783Z</time>
      </trkpt>
      <trkpt lat="45.88942" lon="4.67233">
        <ele>377.77</ele>
        <time>2025-10-23T12:43:18.550Z</time>
      </trkpt>
      <trkpt lat="45.88942" lon="4.67226">
        <ele>378.45</ele>
        <time>2025-10-23T12:43:21.319Z</time>
      </trkpt>
      <trkpt lat="45.88942" lon="4.67213">
        <ele>379.18</ele>
        <time>2025-10-23T12:43:24.091Z</time>
      </trkpt>
      <trkpt lat="45.88942" lon="4.67207">
        <ele>379.91</ele>
        <time>2025-10-23T12:43:26.865Z</time>
      </trkpt>
      <trkpt lat="45.88942" lon="4.67197">
        <ele>380.68</ele>
        <time>2025-10-23T12:43:29.642Z</time>
      </trkpt>
      <trkpt lat="45.88942" lon="4.67185">
        <ele>381.5</ele>
        <time>2025-10-23T12:43:32.423Z</time>
      </trkpt>
      <trkpt lat="45.88943" lon="4.67172">
        <ele>382.34</ele>
        <time>2025-10-23T12:43:35.207Z</time>
      </trkpt>
      <trkpt lat="45.88944" lon="4.67162">
        <ele>383.21</ele>
        <time>2025-10-23T12:43:37.994Z</time>
      </trkpt>
      <trkpt lat="45.88944" lon="4.67159">
        <ele>384.07</ele>
        <time>2025-10-23T12:43:40.782Z</time>
      </trkpt>
      <trkpt lat="45.88944" lon="4.67153">
        <ele>384.98</ele>
        <time>2025-10-23T12:43:43.572Z</time>
      </trkpt>
      <trkpt lat="45.88946" lon="4.67143">
        <ele>385.95</ele>
        <time>2025-10-23T12:43:46.365Z</time>
      </trkpt>
      <trkpt lat="45.88946" lon="4.67135">
        <ele>386.91</ele>
        <time>2025-10-23T12:43:49.160Z</time>
      </trkpt>
      <trkpt lat="45.88945" lon="4.67122">
        <ele>387.95</ele>
        <time>2025-10-23T12:43:51.959Z</time>
      </trkpt>
      <trkpt lat="45.88946" lon="4.67114">
        <ele>388.94</ele>
        <time>2025-10-23T12:43:54.760Z</time>
      </trkpt>
      <trkpt lat="45.88946" lon="4.67113">
        <ele>389.88</ele>
        <time>2025-10-23T12:43:57.562Z</time>
      </trkpt>
      <trkpt lat="45.88946" lon="4.67109">
        <ele>390.83</ele>
        <time>2025-10-23T12:44:00.365Z</time>
      </trkpt>
      <trkpt lat="45.88945" lon="4.67106">
        <ele>391.79</ele>
        <time>2025-10-23T12:44:03.168Z</time>
      </trkpt>
      <trkpt lat="45.88945" lon="4.67098">
        <ele>392.79</ele>
        <time>2025-10-23T12:44:05.974Z</time>
      </trkpt>
      <trkpt lat="45.88945" lon="4.67093">
        <ele>393.79</ele>
        <time>2025-10-23T12:44:08.781Z</time>
      </trkpt>
      <trkpt lat="45.88947" lon="4.67082">
        <ele>394.83</ele>
        <time>2025-10-23T12:44:11.592Z</time>
      </trkpt>
      <trkpt lat="45.88946" lon="4.67076">
        <ele>395.84</ele>
        <time>2025-10-23T12:44:14.404Z</time>
      </trkpt>
      <trkpt lat="45.88946" lon="4.67073">
        <ele>396.85</ele>
        <time>2025-10-23T12:44:17.217Z</time>
      </trkpt>
      <trkpt lat="45.88946" lon="4.67068">
        <ele>397.87</ele>
        <time>2025-10-23T12:44:20.032Z</time>
      </trkpt>
      <trkpt lat="45.88946" lon="4.67056">
        <ele>398.92</ele>
        <time>2025-10-23T12:44:22.850Z</time>
      </trkpt>
      <trkpt lat="45.88946" lon="4.67047">
        <ele>399.97</ele>
        <time>2025-10-23T12:44:25.671Z</time>
      </trkpt>
      <trkpt lat="45.88946" lon="4.67045">
        <ele>400.97</ele>
        <time>2025-10-23T12:44:28.492Z</time>
      </trkpt>
      <trkpt lat="45.88948" lon="4.67038">
        <ele>402.01</ele>
        <time>2025-10-23T12:44:31.315Z</time>
      </trkpt>
      <trkpt lat="45.88949" lon="4.67031">
        <ele>403.05</ele>
        <time>2025-10-23T12:44:34.141Z</time>
      </trkpt>
      <trkpt lat="45.88951" lon="4.67021">
        <ele>404.11</ele>
        <time>2025-10-23T12:44:36.969Z</time>
      </trkpt>
      <trkpt lat="45.88952" lon="4.67014">
        <ele>405.14</ele>
        <time>2025-10-23T12:44:39.800Z</time>
      </trkpt>
      <trkpt lat="45.88953" lon="4.6701">
        <ele>406.15</ele>
        <time>2025-10-23T12:44:42.632Z</time>
      </trkpt>
      <trkpt lat="45.88953" lon="4.67007">
        <ele>407.13</ele>
        <time>2025-10-23T12:44:45.465Z</time>
      </trkpt>
      <trkpt lat="45.88953" lon="4.66996">
        <ele>408.15</ele>
        <time>2025-10-23T12:44:48.301Z</time>
      </trkpt>
      <trkpt lat="45.88954" lon="4.66988">
        <ele>409.12</ele>
        <time>2025-10-23T12:44:51.139Z</time>
      </trkpt>
      <trkpt lat="45.88955" lon="4.66985">
        <ele>410.04</ele>
        <time>2025-10-23T12:44:53.978Z</time>
      </trkpt>
      <trkpt lat="45.88956" lon="4.66975">
        <ele>410.99</ele>
        <time>2025-10-23T12:44:56.820Z</time>
      </trkpt>
      <trkpt lat="45.88957" lon="4.66966">
        <ele>411.9</ele>
        <time>2025-10-23T12:44:59.665Z</time>
      </trkpt>
      <trkpt lat="45.88958" lon="4.66953">
        <ele>412.8</ele>
        <time>2025-10-23T12:45:02.513Z</time>
      </trkpt>
      <trkpt lat="45.88959" lon="4.66948">
        <ele>413.63</ele>
        <time>2025-10-23T12:45:05.363Z</time>
      </trkpt>
      <trkpt lat="45.8896" lon="4.66942">
        <ele>414.42</ele>
        <time>2025-10-23T12:45:08.215Z</time>
      </trkpt>
      <trkpt lat="45.88962" lon="4.66933">
        <ele>415.2</ele>
        <time>2025-10-23T12:45:11.070Z</time>
      </trkpt>
      <trkpt lat="45.88963" lon="4.66918">
        <ele>415.96</ele>
        <time>2025-10-23T12:45:13.929Z</time>
      </trkpt>
      <trkpt lat="45.88965" lon="4.66901">
        <ele>416.7</ele>
        <time>2025-10-23T12:45:16.793Z</time>
      </trkpt>
      <trkpt lat="45.88966" lon="4.66895">
        <ele>417.34</ele>
        <time>2025-10-23T12:45:19.659Z</time>
      </trkpt>
      <trkpt lat="45.88966" lon="4.66892">
        <ele>417.9</ele>
        <time>2025-10-23T12:45:22.526Z</time>
      </trkpt>
      <trkpt lat="45.88967" lon="4.66889">
        <ele>418.4</ele>
        <time>2025-10-23T12:45:25.393Z</time>
      </trkpt>
      <trkpt lat="45.88968" lon="4.6688">
        <ele>418.88</ele>
        <time>2025-10-23T12:45:28.263Z</time>
      </trkpt>
      <trkpt lat="45.88968" lon="4.66876">
        <ele>419.27</ele>
        <time>2025-10-23T12:45:31.134Z</time>
      </trkpt>
      <trkpt lat="45.88968" lon="4.66874">
        <ele>419.61</ele>
        <time>2025-10-23T12:45:34.006Z</time>
      </trkpt>
      <trkpt lat="45.88969" lon="4.66869">
        <ele>419.9</ele>
        <time>2025-10-23T12:45:36.879Z</time>
      </trkpt>
      <trkpt lat="45.88972" lon="4.66865">
        <ele>420.13</ele>
        <time>2025-10-23T12:45:39.754Z</time>
      </trkpt>
      <trkpt lat="45.88973" lon="4.66862">
        <ele>420.3</ele>
        <time>2025-10-23T12:45:42.630Z</time>
      </trkpt>
      <trkpt lat="45.88979" lon="4.66849">
        <ele>420.43</ele>
        <time>2025-10-23T12:45:45.510Z</time>
      </trkpt>
      <trkpt lat="45.88985" lon="4.66837">
        <ele>420.49</ele>
        <time>2025-10-23T12:45:48.395Z</time>
      </trkpt>
      <trkpt lat="45.88988" lon="4.66832">
        <ele>420.48</ele>
        <time>2025-10-23T12:45:51.282Z</time>
      </trkpt>
      <trkpt lat="45.89004" lon="4.66817">
        <ele>420.4</ele>
        <time>2025-10-23T12:45:54.177Z</time>
      </trkpt>
      <trkpt lat="45.89006" lon="4.66815">
        <ele>420.31</ele>
        <time>2025-10-23T12:45:57.073Z</time>
      </trkpt>
      <trkpt lat="45.89011" lon="4.6681">
        <ele>420.17</ele>
        <time>2025-10-23T12:45:59.971Z</time>
      </trkpt>
      <trkpt lat="45.89015" lon="4.66807">
        <ele>419.98</ele>
        <time>2025-10-23T12:46:02.871Z</time>
      </trkpt>
      <trkpt lat="45.89029" lon="4.66806">
        <ele>419.76</ele>
        <time>2025-10-23T12:46:05.777Z</time>
      </trkpt>
      <trkpt lat="45.89032" lon="4.66807">
        <ele>419.52</ele>
        <time>2025-10-23T12:46:08.684Z</time>
      </trkpt>
      <trkpt lat="45.8904" lon="4.6681">
        <ele>419.24</ele>
        <time>2025-10-23T12:46:11.594Z</time>
      </trkpt>
      <trkpt lat="45.89042" lon="4.66816">
        <ele>418.93</ele>
        <time>2025-10-23T12:46:14.507Z</time>
      </trkpt>
      <trkpt lat="45.89041" lon="4.66834">
        <ele>418.57</ele>
        <time>2025-10-23T12:46:17.424Z</time>
      </trkpt>
      <trkpt lat="45.89042" lon="4.66841">
        <ele>418.21</ele>
        <time>2025-10-23T12:46:20.344Z</time>
      </trkpt>
      <trkpt lat="45.89044" lon="4.66844">
        <ele>417.84</ele>
        <time>2025-10-23T12:46:23.265Z</time>
      </trkpt>
      <trkpt lat="45.89048" lon="4.6685">
        <ele>417.46</ele>
        <time>2025-10-23T12:46:26.188Z</time>
      </trkpt>
      <trkpt lat="45.89068" lon="4.66853">
        <ele>417.07</ele>
        <time>2025-10-23T12:46:29.120Z</time>
      </trkpt>
      <trkpt lat="45.89082" lon="4.66859">
        <ele>416.68</ele>
        <time>2025-10-23T12:46:32.058Z</time>
      </trkpt>
      <trkpt lat="45.89085" lon="4.66862">
        <ele>416.3</ele>
        <time>2025-10-23T12:46:34.997Z</time>
      </trkpt>
      <trkpt lat="45.89091" lon="4.66867">
        <ele>415.93</ele>
        <time>2025-10-23T12:46:37.939Z</time>
      </trkpt>
      <trkpt lat="45.89103" lon="4.66871">
        <ele>415.56</ele>
        <time>2025-10-23T12:46:40.886Z</time>
      </trkpt>
      <trkpt lat="45.89117" lon="4.66877">
        <ele>415.19</ele>
        <time>2025-10-23T12:46:43.839Z</time>
      </trkpt>
      <trkpt lat="45.8913" lon="4.66879">
        <ele>414.89</ele>
        <time>2025-10-23T12:46:46.798Z</time>
      </trkpt>
      <trkpt lat="45.89137" lon="4.6688">
        <ele>414.63</ele>
        <time>2025-10-23T12:46:49.760Z</time>
      </trkpt>
      <trkpt lat="45.89151" lon="4.66875">
        <ele>414.42</ele>
        <time>2025-10-23T12:46:52.727Z</time>
      </trkpt>
      <trkpt lat="45.89154" lon="4.66857">
        <ele>414.2</ele>
        <time>2025-10-23T12:46:55.700Z</time>
      </trkpt>
      <trkpt lat="45.89156" lon="4.66855">
        <ele>414.03</ele>
        <time>2025-10-23T12:46:58.674Z</time>
      </trkpt>
      <trkpt lat="45.89161" lon="4.66855">
        <ele>413.9</ele>
        <time>2025-10-23T12:47:01.650Z</time>
      </trkpt>
      <trkpt lat="45.89171" lon="4.66862">
        <ele>413.84</ele>
        <time>2025-10-23T12:47:04.630Z</time>
      </trkpt>
      <trkpt lat="45.89176" lon="4.66864">
        <ele>413.81</ele>
        <time>2025-10-23T12:47:07.613Z</time>
      </trkpt>
      <trkpt lat="45.89183" lon="4.6687">
        <ele>413.81</ele>
        <time>2025-10-23T12:47:10.599Z</time>
      </trkpt>
      <trkpt lat="45.8919" lon="4.66876">
        <ele>413.87</ele>
        <time>2025-10-23T12:47:13.588Z</time>
      </trkpt>
      <trkpt lat="45.89196" lon="4.6688">
        <ele>413.96</ele>
        <time>2025-10-23T12:47:16.580Z</time>
      </trkpt>
      <trkpt lat="45.89206" lon="4.66883">
        <ele>414.12</ele>
        <time>2025-10-23T12:47:19.576Z</time>
      </trkpt>
      <trkpt lat="45.8921" lon="4.66885">
        <ele>414.3</ele>
        <time>2025-10-23T12:47:22.574Z</time>
      </trkpt>
      <trkpt lat="45.89218" lon="4.66887">
        <ele>414.54</ele>
        <time>2025-10-23T12:47:25.575Z</time>
      </trkpt>
      <trkpt lat="45.89223" lon="4.66888">
        <ele>414.83</ele>
        <time>2025-10-23T12:47:28.578Z</time>
      </trkpt>
      <trkpt lat="45.89228" lon="4.66891">
        <ele>415.17</ele>
        <time>2025-10-23T12:47:31.584Z</time>
      </trkpt>
      <trkpt lat="45.89234" lon="4.66892">
        <ele>415.56</ele>
        <time>2025-10-23T12:47:34.592Z</time>
      </trkpt>
      <trkpt lat="45.89237" lon="4.66893">
        <ele>416.02</ele>
        <time>2025-10-23T12:47:37.602Z</time>
      </trkpt>
      <trkpt lat="45.8924" lon="4.66894">
        <ele>416.54</ele>
        <time>2025-10-23T12:47:40.613Z</time>
      </trkpt>
      <trkpt lat="45.89248" lon="4.66899">
        <ele>417.13</ele>
        <time>2025-10-23T12:47:43.627Z</time>
      </trkpt>
      <trkpt lat="45.89252" lon="4.66905">
        <ele>417.76</ele>
        <time>2025-10-23T12:47:46.644Z</time>
      </trkpt>
      <trkpt lat="45.89254" lon="4.66909">
        <ele>418.44</ele>
        <time>2025-10-23T12:47:49.662Z</time>
      </trkpt>
      <trkpt lat="45.89259" lon="4.66915">
        <ele>419.17</ele>
        <time>2025-10-23T12:47:52.683Z</time>
      </trkpt>
      <trkpt lat="45.89262" lon="4.66915">
        <ele>419.94</ele>
        <time>2025-10-23T12:47:55.705Z</time>
      </trkpt>
      <trkpt lat="45.89273" lon="4.66917">
        <ele>420.81</ele>
        <time>2025-10-23T12:47:58.732Z</time>
      </trkpt>
      <trkpt lat="45.89278" lon="4.66918">
        <ele>421.68</ele>
        <time>2025-10-23T12:48:01.761Z</time>
      </trkpt>
      <trkpt lat="45.89283" lon="4.6692">
        <ele>422.59</ele>
        <time>2025-10-23T12:48:04.792Z</time>
      </trkpt>
      <trkpt lat="45.89292" lon="4.66923">
        <ele>423.55</ele>
        <time>2025-10-23T12:48:07.827Z</time>
      </trkpt>
      <trkpt lat="45.89299" lon="4.66926">
        <ele>424.52</ele>
        <time>2025-10-23T12:48:10.865Z</time>
      </trkpt>
      <trkpt lat="45.89301" lon="4.66926">
        <ele>425.5</ele>
        <time>2025-10-23T12:48:13.904Z</time>
      </trkpt>
      <trkpt lat="45.89305" lon="4.66927">
        <ele>426.51</ele>
        <time>2025-10-23T12:48:16.944Z</time>
      </trkpt>
      <trkpt lat="45.89314" lon="4.6693">
        <ele>427.55</ele>
        <time>2025-10-23T12:48:19.988Z</time>
      </trkpt>
      <trkpt lat="45.89321" lon="4.66933">
        <ele>428.62</ele>
        <time>2025-10-23T12:48:23.035Z</time>
      </trkpt>
      <trkpt lat="45.89332" lon="4.66938">
        <ele>429.75</ele>
        <time>2025-10-23T12:48:26.087Z</time>
      </trkpt>
      <trkpt lat="45.8934" lon="4.66942">
        <ele>430.86</ele>
        <time>2025-10-23T12:48:29.142Z</time>
      </trkpt>
      <trkpt lat="45.89351" lon="4.66946">
        <ele>432.01</ele>
        <time>2025-10-23T12:48:32.202Z</time>
      </trkpt>
      <trkpt lat="45.89359" lon="4.6695">
        <ele>433.11</ele>
        <time>2025-10-23T12:48:35.266Z</time>
      </trkpt>
      <trkpt lat="45.89367" lon="4.66956">
        <ele>434.19</ele>
        <time>2025-10-23T12:48:38.333Z</time>
      </trkpt>
      <trkpt lat="45.89375" lon="4.66963">
        <ele>435.22</ele>
        <time>2025-10-23T12:48:41.404Z</time>
      </trkpt>
      <trkpt lat="45.89384" lon="4.66973">
        <ele>436.19</ele>
        <time>2025-10-23T12:48:44.480Z</time>
      </trkpt>
      <trkpt lat="45.89393" lon="4.66983">
        <ele>437.12</ele>
        <time>2025-10-23T12:48:47.561Z</time>
      </trkpt>
      <trkpt lat="45.89401" lon="4.66993">
        <ele>437.97</ele>
        <time>2025-10-23T12:48:50.646Z</time>
      </trkpt>
      <trkpt lat="45.89408" lon="4.67001">
        <ele>438.74</ele>
        <time>2025-10-23T12:48:53.735Z</time>
      </trkpt>
      <trkpt lat="45.89414" lon="4.67013">
        <ele>439.43</ele>
        <time>2025-10-23T12:48:56.828Z</time>
      </trkpt>
      <trkpt lat="45.8942" lon="4.6702">
        <ele>440.09</ele>
        <time>2025-10-23T12:48:59.924Z</time>
      </trkpt>
      <trkpt lat="45.89437" lon="4.67034">
        <ele>440.7</ele>
        <time>2025-10-23T12:49:03.028Z</time>
      </trkpt>
      <trkpt lat="45.89452" lon="4.67045">
        <ele>441.25</ele>
        <time>2025-10-23T12:49:06.139Z</time>
      </trkpt>
      <trkpt lat="45.89467" lon="4.67061">
        <ele>441.75</ele>
        <time>2025-10-23T12:49:09.258Z</time>
      </trkpt>
      <trkpt lat="45.89469" lon="4.67065">
        <ele>442.17</ele>
        <time>2025-10-23T12:49:12.379Z</time>
      </trkpt>
      <trkpt lat="45.89475" lon="4.67073">
        <ele>442.55</ele>
        <time>2025-10-23T12:49:15.503Z</time>
      </trkpt>
      <trkpt lat="45.89489" lon="4.67092">
        <ele>442.91</ele>
        <time>2025-10-23T12:49:18.635Z</time>
      </trkpt>
      <trkpt lat="45.89491" lon="4.67094">
        <ele>443.14</ele>
        <time>2025-10-23T12:49:21.768Z</time>
      </trkpt>
      <trkpt lat="45.89499" lon="4.67112">
        <ele>443.34</ele>
        <time>2025-10-23T12:49:24.907Z</time>
      </trkpt>
      <trkpt lat="45.89501" lon="4.67117">
        <ele>443.45</ele>
        <time>2025-10-23T12:49:28.048Z</time>
      </trkpt>
      <trkpt lat="45.89503" lon="4.67133">
        <ele>443.47</ele>
        <time>2025-10-23T12:49:31.194Z</time>
      </trkpt>
      <trkpt lat="45.89506" lon="4.67141">
        <ele>443.45</ele>
        <time>2025-10-23T12:49:34.342Z</time>
      </trkpt>
      <trkpt lat="45.89508" lon="4.67157">
        <ele>443.34</ele>
        <time>2025-10-23T12:49:37.495Z</time>
      </trkpt>
      <trkpt lat="45.89508" lon="4.6716">
        <ele>443.21</ele>
        <time>2025-10-23T12:49:40.649Z</time>
      </trkpt>
      <trkpt lat="45.89509" lon="4.67164">
        <ele>443.04</ele>
        <time>2025-10-23T12:49:43.804Z</time>
      </trkpt>
      <trkpt lat="45.89516" lon="4.67187">
        <ele>442.73</ele>
        <time>2025-10-23T12:49:46.966Z</time>
      </trkpt>
      <trkpt lat="45.89523" lon="4.67209">
        <ele>442.4</ele>
        <time>2025-10-23T12:49:50.135Z</time>
      </trkpt>
      <trkpt lat="45.89533" lon="4.67227">
        <ele>442.09</ele>
        <time>2025-10-23T12:49:53.311Z</time>
      </trkpt>
      <trkpt lat="45.89536" lon="4.67231">
        <ele>441.81</ele>
        <time>2025-10-23T12:49:56.489Z</time>
      </trkpt>
      <trkpt lat="45.89543" lon="4.67241">
        <ele>441.48</ele>
        <time>2025-10-23T12:49:59.671Z</time>
      </trkpt>
      <trkpt lat="45.89549" lon="4.67247">
        <ele>441.15</ele>
        <time>2025-10-23T12:50:02.856Z</time>
      </trkpt>
      <trkpt lat="45.89564" lon="4.67257">
        <ele>440.8</ele>
        <time>2025-10-23T12:50:06.048Z</time>
      </trkpt>
      <trkpt lat="45.89578" lon="4.67263">
        <ele>440.48</ele>
        <time>2025-10-23T12:50:09.246Z</time>
      </trkpt>
      <trkpt lat="45.89583" lon="4.67265">
        <ele>440.15</ele>
        <time>2025-10-23T12:50:12.446Z</time>
      </trkpt>
      <trkpt lat="45.89603" lon="4.6727">
        <ele>439.86</ele>
        <time>2025-10-23T12:50:15.654Z</time>
      </trkpt>
      <trkpt lat="45.89606" lon="4.6727">
        <ele>439.52</ele>
        <time>2025-10-23T12:50:18.863Z</time>
      </trkpt>
      <trkpt lat="45.89622" lon="4.6727">
        <ele>439.23</ele>
        <time>2025-10-23T12:50:22.079Z</time>
      </trkpt>
      <trkpt lat="45.89628" lon="4.67269">
        <ele>438.86</ele>
        <time>2025-10-23T12:50:25.297Z</time>
      </trkpt>
      <trkpt lat="45.89646" lon="4.6727">
        <ele>438.45</ele>
        <time>2025-10-23T12:50:28.523Z</time>
      </trkpt>
      <trkpt lat="45.89649" lon="4.6727">
        <ele>438.09</ele>
        <time>2025-10-23T12:50:31.750Z</time>
      </trkpt>
      <trkpt lat="45.89665" lon="4.67267">
        <ele>437.74</ele>
        <time>2025-10-23T12:50:34.984Z</time>
      </trkpt>
      <trkpt lat="45.89669" lon="4.67265">
        <ele>437.41</ele>
        <time>2025-10-23T12:50:38.220Z</time>
      </trkpt>
      <trkpt lat="45.89687" lon="4.67257">
        <ele>437.12</ele>
        <time>2025-10-23T12:50:41.463Z</time>
      </trkpt>
      <trkpt lat="45.89692" lon="4.67254">
        <ele>436.79</ele>
        <time>2025-10-23T12:50:44.709Z</time>
      </trkpt>
      <trkpt lat="45.8971" lon="4.6725">
        <ele>436.4</ele>
        <time>2025-10-23T12:50:47.962Z</time>
      </trkpt>
      <trkpt lat="45.89722" lon="4.67247">
        <ele>436</ele>
        <time>2025-10-23T12:50:51.220Z</time>
      </trkpt>
      <trkpt lat="45.8973" lon="4.67245">
        <ele>435.61</ele>
        <time>2025-10-23T12:50:54.482Z</time>
      </trkpt>
      <trkpt lat="45.89736" lon="4.67243">
        <ele>435.24</ele>
        <time>2025-10-23T12:50:57.746Z</time>
      </trkpt>
      <trkpt lat="45.89755" lon="4.67238">
        <ele>434.81</ele>
        <time>2025-10-23T12:51:01.018Z</time>
      </trkpt>
      <trkpt lat="45.89758" lon="4.67237">
        <ele>434.46</ele>
        <time>2025-10-23T12:51:04.292Z</time>
      </trkpt>
      <trkpt lat="45.89772" lon="4.67231">
        <ele>434.18</ele>
        <time>2025-10-23T12:51:07.571Z</time>
      </trkpt>
      <trkpt lat="45.89787" lon="4.67229">
        <ele>433.86</ele>
        <time>2025-10-23T12:51:10.857Z</time>
      </trkpt>
      <trkpt lat="45.89794" lon="4.67227">
        <ele>433.55</ele>
        <time>2025-10-23T12:51:14.146Z</time>
      </trkpt>
      <trkpt lat="45.89804" lon="4.67226">
        <ele>433.24</ele>
        <time>2025-10-23T12:51:17.439Z</time>
      </trkpt>
      <trkpt lat="45.89816" lon="4.67223">
        <ele>432.94</ele>
        <time>2025-10-23T12:51:20.737Z</time>
      </trkpt>
      <trkpt lat="45.89825" lon="4.67222">
        <ele>432.54</ele>
        <time>2025-10-23T12:51:24.039Z</time>
      </trkpt>
      <trkpt lat="45.89843" lon="4.67215">
        <ele>432.15</ele>
        <time>2025-10-23T12:51:27.349Z</time>
      </trkpt>
      <trkpt lat="45.89848" lon="4.67214">
        <ele>431.72</ele>
        <time>2025-10-23T12:51:30.660Z</time>
      </trkpt>
      <trkpt lat="45.89855" lon="4.67214">
        <ele>431.23</ele>
        <time>2025-10-23T12:51:33.975Z</time>
      </trkpt>
      <trkpt lat="45.89872" lon="4.67216">
        <ele>430.66</ele>
        <time>2025-10-23T12:51:37.296Z</time>
      </trkpt>
      <trkpt lat="45.8989" lon="4.67219">
        <ele>430.05</ele>
        <time>2025-10-23T12:51:40.625Z</time>
      </trkpt>
      <trkpt lat="45.89894" lon="4.67221">
        <ele>429.53</ele>
        <time>2025-10-23T12:51:43.956Z</time>
      </trkpt>
      <trkpt lat="45.89896" lon="4.67221">
        <ele>428.99</ele>
        <time>2025-10-23T12:51:47.288Z</time>
      </trkpt>
      <trkpt lat="45.89914" lon="4.67223">
        <ele>428.49</ele>
        <time>2025-10-23T12:51:50.627Z</time>
      </trkpt>
      <trkpt lat="45.89923" lon="4.67224">
        <ele>427.97</ele>
        <time>2025-10-23T12:51:53.970Z</time>
      </trkpt>
      <trkpt lat="45.89934" lon="4.67225">
        <ele>427.38</ele>
        <time>2025-10-23T12:51:57.317Z</time>
      </trkpt>
      <trkpt lat="45.8995" lon="4.67228">
        <ele>426.72</ele>
        <time>2025-10-23T12:52:00.671Z</time>
      </trkpt>
      <trkpt lat="45.89957" lon="4.67226">
        <ele>426.1</ele>
        <time>2025-10-23T12:52:04.028Z</time>
      </trkpt>
      <trkpt lat="45.89962" lon="4.67226">
        <ele>425.44</ele>
        <time>2025-10-23T12:52:07.387Z</time>
      </trkpt>
      <trkpt lat="45.89973" lon="4.67232">
        <ele>424.7</ele>
        <time>2025-10-23T12:52:10.751Z</time>
      </trkpt>
      <trkpt lat="45.89979" lon="4.67235">
        <ele>423.97</ele>
        <time>2025-10-23T12:52:14.118Z</time>
      </trkpt>
      <trkpt lat="45.89985" lon="4.67238">
        <ele>423.23</ele>
        <time>2025-10-23T12:52:17.487Z</time>
      </trkpt>
      <trkpt lat="45.89996" lon="4.67245">
        <ele>422.46</ele>
        <time>2025-10-23T12:52:20.861Z</time>
      </trkpt>
      <trkpt lat="45.90007" lon="4.6725">
        <ele>421.69</ele>
        <time>2025-10-23T12:52:24.240Z</time>
      </trkpt>
      <trkpt lat="45.90016" lon="4.67255">
        <ele>420.88</ele>
        <time>2025-10-23T12:52:27.623Z</time>
      </trkpt>
      <trkpt lat="45.90019" lon="4.67258">
        <ele>420.08</ele>
        <time>2025-10-23T12:52:31.008Z</time>
      </trkpt>
      <trkpt lat="45.90031" lon="4.67264">
        <ele>419.24</ele>
        <time>2025-10-23T12:52:34.398Z</time>
      </trkpt>
      <trkpt lat="45.9004" lon="4.67266">
        <ele>418.43</ele>
        <time>2025-10-23T12:52:37.792Z</time>
      </trkpt>
      <trkpt lat="45.90054" lon="4.67272">
        <ele>417.53</ele>
        <time>2025-10-23T12:52:41.192Z</time>
      </trkpt>
      <trkpt lat="45.90059" lon="4.67274">
        <ele>416.71</ele>
        <time>2025-10-23T12:52:44.594Z</time>
      </trkpt>
      <trkpt lat="45.90079" lon="4.67279">
        <ele>415.84</ele>
        <time>2025-10-23T12:52:48.004Z</time>
      </trkpt>
      <trkpt lat="45.90081" lon="4.67281">
        <ele>415.07</ele>
        <time>2025-10-23T12:52:51.415Z</time>
      </trkpt>
      <trkpt lat="45.90098" lon="4.6729">
        <ele>414.28</ele>
        <time>2025-10-23T12:52:54.833Z</time>
      </trkpt>
      <trkpt lat="45.90115" lon="4.67295">
        <ele>413.51</ele>
        <time>2025-10-23T12:52:58.259Z</time>
      </trkpt>
      <trkpt lat="45.90127" lon="4.673">
        <ele>412.78</ele>
        <time>2025-10-23T12:53:01.690Z</time>
      </trkpt>
      <trkpt lat="45.90139" lon="4.67307">
        <ele>412.12</ele>
        <time>2025-10-23T12:53:05.126Z</time>
      </trkpt>
      <trkpt lat="45.9015" lon="4.67318">
        <ele>411.47</ele>
        <time>2025-10-23T12:53:08.568Z</time>
      </trkpt>
      <trkpt lat="45.90166" lon="4.6733">
        <ele>410.79</ele>
        <time>2025-10-23T12:53:12.017Z</time>
      </trkpt>
      <trkpt lat="45.90169" lon="4.67332">
        <ele>410.15</ele>
        <time>2025-10-23T12:53:15.468Z</time>
      </trkpt>
      <trkpt lat="45.90187" lon="4.67342">
        <ele>409.43</ele>
        <time>2025-10-23T12:53:18.927Z</time>
      </trkpt>
      <trkpt lat="45.90205" lon="4.67352">
        <ele>408.65</ele>
        <time>2025-10-23T12:53:22.394Z</time>
      </trkpt>
      <trkpt lat="45.90215" lon="4.67358">
        <ele>408.05</ele>
        <time>2025-10-23T12:53:25.865Z</time>
      </trkpt>
      <trkpt lat="45.90234" lon="4.6737">
        <ele>407.45</ele>
        <time>2025-10-23T12:53:29.345Z</time>
      </trkpt>
      <trkpt lat="45.90243" lon="4.67375">
        <ele>406.96</ele>
        <time>2025-10-23T12:53:32.829Z</time>
      </trkpt>
      <trkpt lat="45.9026" lon="4.67387">
        <ele>406.49</ele>
        <time>2025-10-23T12:53:36.321Z</time>
      </trkpt>
      <trkpt lat="45.90263" lon="4.67389">
        <ele>406.05</ele>
        <time>2025-10-23T12:53:39.814Z</time>
      </trkpt>
      <trkpt lat="45.90275" lon="4.67396">
        <ele>405.65</ele>
        <time>2025-10-23T12:53:43.312Z</time>
      </trkpt>
      <trkpt lat="45.90278" lon="4.67398">
        <ele>405.25</ele>
        <time>2025-10-23T12:53:46.812Z</time>
      </trkpt>
      <trkpt lat="45.90286" lon="4.67404">
        <ele>404.87</ele>
        <time>2025-10-23T12:53:50.315Z</time>
      </trkpt>
      <trkpt lat="45.90301" lon="4.67419">
        <ele>404.48</ele>
        <time>2025-10-23T12:53:53.826Z</time>
      </trkpt>
      <trkpt lat="45.90303" lon="4.67422">
        <ele>404.11</ele>
        <time>2025-10-23T12:53:57.338Z</time>
      </trkpt>
      <trkpt lat="45.90318" lon="4.67437">
        <ele>403.73</ele>
        <time>2025-10-23T12:54:00.858Z</time>
      </trkpt>
      <trkpt lat="45.9032" lon="4.67439">
        <ele>403.37</ele>
        <time>2025-10-23T12:54:04.379Z</time>
      </trkpt>
      <trkpt lat="45.90323" lon="4.67442">
        <ele>403.01</ele>
        <time>2025-10-23T12:54:07.901Z</time>
      </trkpt>
      <trkpt lat="45.90335" lon="4.67454">
        <ele>402.6</ele>
        <time>2025-10-23T12:54:11.430Z</time>
      </trkpt>
      <trkpt lat="45.90348" lon="4.67464">
        <ele>402.2</ele>
        <time>2025-10-23T12:54:14.965Z</time>
      </trkpt>
      <trkpt lat="45.90368" lon="4.67467">
        <ele>401.82</ele>
        <time>2025-10-23T12:54:18.508Z</time>
      </trkpt>
      <trkpt lat="45.90372" lon="4.67466">
        <ele>401.45</ele>
        <time>2025-10-23T12:54:22.053Z</time>
      </trkpt>
      <trkpt lat="45.90392" lon="4.67462">
        <ele>401.1</ele>
        <time>2025-10-23T12:54:25.606Z</time>
      </trkpt>
      <trkpt lat="45.90395" lon="4.67461">
        <ele>400.7</ele>
        <time>2025-10-23T12:54:29.160Z</time>
      </trkpt>
      <trkpt lat="45.90408" lon="4.6746">
        <ele>400.27</ele>
        <time>2025-10-23T12:54:32.720Z</time>
      </trkpt>
      <trkpt lat="45.90408" lon="4.67465">
        <ele>399.82</ele>
        <time>2025-10-23T12:54:36.281Z</time>
      </trkpt>
      <trkpt lat="45.90406" lon="4.67471">
        <ele>399.36</ele>
        <time>2025-10-23T12:54:39.844Z</time>
      </trkpt>
      <trkpt lat="45.90402" lon="4.67476">
        <ele>398.87</ele>
        <time>2025-10-23T12:54:43.410Z</time>
      </trkpt>
      <trkpt lat="45.90396" lon="4.67485">
        <ele>398.28</ele>
        <time>2025-10-23T12:54:46.979Z</time>
      </trkpt>
      <trkpt lat="45.90389" lon="4.67494">
        <ele>397.64</ele>
        <time>2025-10-23T12:54:50.552Z</time>
      </trkpt>
      <trkpt lat="45.90383" lon="4.67501">
        <ele>397.05</ele>
        <time>2025-10-23T12:54:54.128Z</time>
      </trkpt>
      <trkpt lat="45.90381" lon="4.67504">
        <ele>396.42</ele>
        <time>2025-10-23T12:54:57.705Z</time>
      </trkpt>
      <trkpt lat="45.9037" lon="4.67517">
        <ele>395.7</ele>
        <time>2025-10-23T12:55:01.288Z</time>
      </trkpt>
      <trkpt lat="45.90363" lon="4.67525">
        <ele>394.94</ele>
        <time>2025-10-23T12:55:04.875Z</time>
      </trkpt>
      <trkpt lat="45.90361" lon="4.67527">
        <ele>394.2</ele>
        <time>2025-10-23T12:55:08.463Z</time>
      </trkpt>
      <trkpt lat="45.90352" lon="4.67537">
        <ele>393.34</ele>
        <time>2025-10-23T12:55:12.056Z</time>
      </trkpt>
      <trkpt lat="45.90345" lon="4.67544">
        <ele>392.53</ele>
        <time>2025-10-23T12:55:15.652Z</time>
      </trkpt>
      <trkpt lat="45.9034" lon="4.67548">
        <ele>391.7</ele>
        <time>2025-10-23T12:55:19.250Z</time>
      </trkpt>
      <trkpt lat="45.90334" lon="4.67555">
        <ele>390.82</ele>
        <time>2025-10-23T12:55:22.852Z</time>
      </trkpt>
      <trkpt lat="45.90331" lon="4.67561">
        <ele>389.92</ele>
        <time>2025-10-23T12:55:26.456Z</time>
      </trkpt>
      <trkpt lat="45.90332" lon="4.67564">
        <ele>389.04</ele>
        <time>2025-10-23T12:55:30.061Z</time>
      </trkpt>
      <trkpt lat="45.90334" lon="4.67572">
        <ele>388.11</ele>
        <time>2025-10-23T12:55:33.668Z</time>
      </trkpt>
      <trkpt lat="45.90336" lon="4.6758">
        <ele>387.16</ele>
        <time>2025-10-23T12:55:37.278Z</time>
      </trkpt>
      <trkpt lat="45.90338" lon="4.67594">
        <ele>386.18</ele>
        <time>2025-10-23T12:55:40.892Z</time>
      </trkpt>
      <trkpt lat="45.9034" lon="4.67604">
        <ele>385.22</ele>
        <time>2025-10-23T12:55:44.509Z</time>
      </trkpt>
      <trkpt lat="45.90341" lon="4.67613">
        <ele>384.26</ele>
        <time>2025-10-23T12:55:48.129Z</time>
      </trkpt>
      <trkpt lat="45.90341" lon="4.67618">
        <ele>383.34</ele>
        <time>2025-10-23T12:55:51.750Z</time>
      </trkpt>
      <trkpt lat="45.90342" lon="4.67628">
        <ele>382.42</ele>
        <time>2025-10-23T12:55:55.374Z</time>
      </trkpt>
      <trkpt lat="45.90343" lon="4.67642">
        <ele>381.48</ele>
        <time>2025-10-23T12:55:59.002Z</time>
      </trkpt>
      <trkpt lat="45.90343" lon="4.67658">
        <ele>380.55</ele>
        <time>2025-10-23T12:56:02.635Z</time>
      </trkpt>
      <trkpt lat="45.90344" lon="4.67663">
        <ele>379.7</ele>
        <time>2025-10-23T12:56:06.269Z</time>
      </trkpt>
      <trkpt lat="45.90346" lon="4.67678">
        <ele>378.82</ele>
        <time>2025-10-23T12:56:09.907Z</time>
      </trkpt>
      <trkpt lat="45.90348" lon="4.67692">
        <ele>377.97</ele>
        <time>2025-10-23T12:56:13.550Z</time>
      </trkpt>
      <trkpt lat="45.90347" lon="4.67701">
        <ele>377.18</ele>
        <time>2025-10-23T12:56:17.195Z</time>
      </trkpt>
      <trkpt lat="45.90346" lon="4.67704">
        <ele>376.45</ele>
        <time>2025-10-23T12:56:20.841Z</time>
      </trkpt>
      <trkpt lat="45.90345" lon="4.67713">
        <ele>375.74</ele>
        <time>2025-10-23T12:56:24.490Z</time>
      </trkpt>
      <trkpt lat="45.90345" lon="4.67717">
        <ele>375.07</ele>
        <time>2025-10-23T12:56:28.140Z</time>
      </trkpt>
      <trkpt lat="45.90346" lon="4.67722">
        <ele>374.42</ele>
        <time>2025-10-23T12:56:31.791Z</time>
      </trkpt>
      <trkpt lat="45.90343" lon="4.67748">
        <ele>373.8</ele>
        <time>2025-10-23T12:56:35.450Z</time>
      </trkpt>
      <trkpt lat="45.90342" lon="4.67755">
        <ele>373.22</ele>
        <time>2025-10-23T12:56:39.111Z</time>
      </trkpt>
      <trkpt lat="45.90342" lon="4.67763">
        <ele>372.67</ele>
        <time>2025-10-23T12:56:42.774Z</time>
      </trkpt>
      <trkpt lat="45.90336" lon="4.67789">
        <ele>372.16</ele>
        <time>2025-10-23T12:56:46.445Z</time>
      </trkpt>
      <trkpt lat="45.90333" lon="4.67802">
        <ele>371.62</ele>
        <time>2025-10-23T12:56:50.120Z</time>
      </trkpt>
      <trkpt lat="45.90329" lon="4.6783">
        <ele>371.15</ele>
        <time>2025-10-23T12:56:53.804Z</time>
      </trkpt>
      <trkpt lat="45.90329" lon="4.67835">
        <ele>370.63</ele>
        <time>2025-10-23T12:56:57.489Z</time>
      </trkpt>
      <trkpt lat="45.90331" lon="4.67853">
        <ele>370.08</ele>
        <time>2025-10-23T12:57:01.179Z</time>
      </trkpt>
      <trkpt lat="45.90332" lon="4.67862">
        <ele>369.55</ele>
        <time>2025-10-23T12:57:04.872Z</time>
      </trkpt>
      <trkpt lat="45.90332" lon="4.6787">
        <ele>369.01</ele>
        <time>2025-10-23T12:57:08.567Z</time>
      </trkpt>
      <trkpt lat="45.90332" lon="4.6788">
        <ele>368.48</ele>
        <time>2025-10-23T12:57:12.265Z</time>
      </trkpt>
      <trkpt lat="45.9033" lon="4.67894">
        <ele>367.95</ele>
        <time>2025-10-23T12:57:15.967Z</time>
      </trkpt>
      <trkpt lat="45.90325" lon="4.67916">
        <ele>367.43</ele>
        <time>2025-10-23T12:57:19.676Z</time>
      </trkpt>
      <trkpt lat="45.90324" lon="4.6792">
        <ele>366.89</ele>
        <time>2025-10-23T12:57:23.386Z</time>
      </trkpt>
      <trkpt lat="45.90321" lon="4.67941">
        <ele>366.28</ele>
        <time>2025-10-23T12:57:27.102Z</time>
      </trkpt>
      <trkpt lat="45.9032" lon="4.67959">
        <ele>365.65</ele>
        <time>2025-10-23T12:57:30.824Z</time>
      </trkpt>
      <trkpt lat="45.9032" lon="4.67964">
        <ele>365.09</ele>
        <time>2025-10-23T12:57:34.547Z</time>
      </trkpt>
      <trkpt lat="45.90321" lon="4.67972">
        <ele>364.52</ele>
        <time>2025-10-23T12:57:38.272Z</time>
      </trkpt>
      <trkpt lat="45.90321" lon="4.67986">
        <ele>363.93</ele>
        <time>2025-10-23T12:57:42.001Z</time>
      </trkpt>
      <trkpt lat="45.90321" lon="4.67994">
        <ele>363.38</ele>
        <time>2025-10-23T12:57:45.733Z</time>
      </trkpt>
      <trkpt lat="45.90322" lon="4.67999">
        <ele>362.87</ele>
        <time>2025-10-23T12:57:49.466Z</time>
      </trkpt>
      <trkpt lat="45.90322" lon="4.68009">
        <ele>362.37</ele>
        <time>2025-10-23T12:57:53.202Z</time>
      </trkpt>
      <trkpt lat="45.90322" lon="4.68017">
        <ele>361.91</ele>
        <time>2025-10-23T12:57:56.940Z</time>
      </trkpt>
      <trkpt lat="45.90322" lon="4.68022">
        <ele>361.5</ele>
        <time>2025-10-23T12:58:00.680Z</time>
      </trkpt>
      <trkpt lat="45.90324" lon="4.68033">
        <ele>361.08</ele>
        <time>2025-10-23T12:58:04.423Z</time>
      </trkpt>
      <trkpt lat="45.90326" lon="4.68038">
        <ele>360.74</ele>
        <time>2025-10-23T12:58:08.168Z</time>
      </trkpt>
      <trkpt lat="45.90327" lon="4.68039">
        <ele>360.47</ele>
        <time>2025-10-23T12:58:11.913Z</time>
      </trkpt>
      <trkpt lat="45.90339" lon="4.68034">
        <ele>360.19</ele>
        <time>2025-10-23T12:58:15.664Z</time>
      </trkpt>
      <trkpt lat="45.90346" lon="4.68033">
        <ele>360.02</ele>
        <time>2025-10-23T12:58:19.417Z</time>
      </trkpt>
      <trkpt lat="45.90354" lon="4.68032">
        <ele>359.94</ele>
        <time>2025-10-23T12:58:23.174Z</time>
      </trkpt>
      <trkpt lat="45.90371" lon="4.6803">
        <ele>359.93</ele>
        <time>2025-10-23T12:58:26.938Z</time>
      </trkpt>
      <trkpt lat="45.90387" lon="4.68037">
        <ele>360.04</ele>
        <time>2025-10-23T12:58:30.709Z</time>
      </trkpt>
      <trkpt lat="45.90395" lon="4.68043">
        <ele>360.21</ele>
        <time>2025-10-23T12:58:34.483Z</time>
      </trkpt>
      <trkpt lat="45.90398" lon="4.68045">
        <ele>360.4</ele>
        <time>2025-10-23T12:58:38.259Z</time>
      </trkpt>
      <trkpt lat="45.90403" lon="4.68047">
        <ele>360.66</ele>
        <time>2025-10-23T12:58:42.037Z</time>
      </trkpt>
      <trkpt lat="45.90407" lon="4.68049">
        <ele>360.99</ele>
        <time>2025-10-23T12:58:45.817Z</time>
      </trkpt>
      <trkpt lat="45.90411" lon="4.68051">
        <ele>361.38</ele>
        <time>2025-10-23T12:58:49.598Z</time>
      </trkpt>
      <trkpt lat="45.90412" lon="4.68052">
        <ele>361.78</ele>
        <time>2025-10-23T12:58:53.380Z</time>
      </trkpt>
      <trkpt lat="45.90414" lon="4.68053">
        <ele>362.24</ele>
        <time>2025-10-23T12:58:57.163Z</time>
      </trkpt>
      <trkpt lat="45.90418" lon="4.68055">
        <ele>362.77</ele>
        <time>2025-10-23T12:59:00.948Z</time>
      </trkpt>
      <trkpt lat="45.90421" lon="4.68057">
        <ele>363.32</ele>
        <time>2025-10-23T12:59:04.734Z</time>
      </trkpt>
      <trkpt lat="45.90424" lon="4.68058">
        <ele>363.91</ele>
        <time>2025-10-23T12:59:08.521Z</time>
      </trkpt>
      <trkpt lat="45.90428" lon="4.68061">
        <ele>364.56</ele>
        <time>2025-10-23T12:59:12.310Z</time>
      </trkpt>
      <trkpt lat="45.90431" lon="4.68062">
        <ele>365.22</ele>
        <time>2025-10-23T12:59:16.100Z</time>
      </trkpt>
      <trkpt lat="45.90432" lon="4.68064">
        <ele>365.9</ele>
        <time>2025-10-23T12:59:19.891Z</time>
      </trkpt>
      <trkpt lat="45.90433" lon="4.68066">
        <ele>366.61</ele>
        <time>2025-10-23T12:59:23.683Z</time>
      </trkpt>
      <trkpt lat="45.90434" lon="4.6807">
        <ele>367.35</ele>
        <time>2025-10-23T12:59:27.476Z</time>
      </trkpt>
      <trkpt lat="45.90435" lon="4.68071">
        <ele>368.1</ele>
        <time>2025-10-23T12:59:31.269Z</time>
      </trkpt>
      <trkpt lat="45.90435" lon="4.68071">
        <ele>368.86</ele>
        <time>2025-10-23T12:59:35.063Z</time>
      </trkpt>
      <trkpt lat="45.90438" lon="4.68073">
        <ele>369.66</ele>
        <time>2025-10-23T12:59:38.858Z</time>
      </trkpt>
      <trkpt lat="45.90441" lon="4.68075">
        <ele>370.48</ele>
        <time>2025-10-23T12:59:42.654Z</time>
      </trkpt>
      <trkpt lat="45.90442" lon="4.68077">
        <ele>371.31</ele>
        <time>2025-10-23T12:59:46.451Z</time>
      </trkpt>
      <trkpt lat="45.90443" lon="4.68077">
        <ele>372.13</ele>
        <time>2025-10-23T12:59:50.249Z</time>
      </trkpt>
      <trkpt lat="45.90448" lon="4.68078">
        <ele>372.99</ele>
        <time>2025-10-23T12:59:54.048Z</time>
      </trkpt>
      <trkpt lat="45.90449" lon="4.68077">
        <ele>373.82</ele>
        <time>2025-10-23T12:59:57.848Z</time>
      </trkpt>
      <trkpt lat="45.90456" lon="4.68074">
        <ele>374.69</ele>
        <time>2025-10-23T13:00:01.651Z</time>
      </trkpt>
      <trkpt lat="45.90459" lon="4.68076">
        <ele>375.58</ele>
        <time>2025-10-23T13:00:05.455Z</time>
      </trkpt>
      <trkpt lat="45.90462" lon="4.68079">
        <ele>376.46</ele>
        <time>2025-10-23T13:00:09.261Z</time>
      </trkpt>
      <trkpt lat="45.90465" lon="4.68083">
        <ele>377.36</ele>
        <time>2025-10-23T13:00:13.069Z</time>
      </trkpt>
      <trkpt lat="45.90466" lon="4.68083">
        <ele>378.21</ele>
        <time>2025-10-23T13:00:16.877Z</time>
      </trkpt>
      <trkpt lat="45.90471" lon="4.68086">
        <ele>379.1</ele>
        <time>2025-10-23T13:00:20.687Z</time>
      </trkpt>
      <trkpt lat="45.90475" lon="4.6809">
        <ele>380</ele>
        <time>2025-10-23T13:00:24.499Z</time>
      </trkpt>
      <trkpt lat="45.90477" lon="4.68091">
        <ele>380.84</ele>
        <time>2025-10-23T13:00:28.312Z</time>
      </trkpt>
      <trkpt lat="45.90483" lon="4.68092">
        <ele>381.72</ele>
        <time>2025-10-23T13:00:32.127Z</time>
      </trkpt>
      <trkpt lat="45.90484" lon="4.68093">
        <ele>382.53</ele>
        <time>2025-10-23T13:00:35.943Z</time>
      </trkpt>
      <trkpt lat="45.90486" lon="4.68094">
        <ele>383.33</ele>
        <time>2025-10-23T13:00:39.760Z</time>
      </trkpt>
      <trkpt lat="45.9049" lon="4.68094">
        <ele>384.13</ele>
        <time>2025-10-23T13:00:43.579Z</time>
      </trkpt>
      <trkpt lat="45.90496" lon="4.68096">
        <ele>384.93</ele>
        <time>2025-10-23T13:00:47.400Z</time>
      </trkpt>
      <trkpt lat="45.905" lon="4.68095">
        <ele>385.71</ele>
        <time>2025-10-23T13:00:51.223Z</time>
      </trkpt>
      <trkpt lat="45.90502" lon="4.68082">
        <ele>386.45</ele>
        <time>2025-10-23T13:00:55.049Z</time>
      </trkpt>
      <trkpt lat="45.90505" lon="4.68067">
        <ele>387.15</ele>
        <time>2025-10-23T13:00:58.880Z</time>
      </trkpt>
      <trkpt lat="45.90508" lon="4.68062">
        <ele>387.88</ele>
        <time>2025-10-23T13:01:02.713Z</time>
      </trkpt>
      <trkpt lat="45.90513" lon="4.68057">
        <ele>388.59</ele>
        <time>2025-10-23T13:01:06.548Z</time>
      </trkpt>
      <trkpt lat="45.90524" lon="4.68056">
        <ele>389.33</ele>
        <time>2025-10-23T13:01:10.388Z</time>
      </trkpt>
      <trkpt lat="45.90529" lon="4.68057">
        <ele>390.04</ele>
        <time>2025-10-23T13:01:14.230Z</time>
      </trkpt>
      <trkpt lat="45.90531" lon="4.68058">
        <ele>390.73</ele>
        <time>2025-10-23T13:01:18.073Z</time>
      </trkpt>
      <trkpt lat="45.90541" lon="4.6806">
        <ele>391.44</ele>
        <time>2025-10-23T13:01:21.920Z</time>
      </trkpt>
      <trkpt lat="45.90549" lon="4.68062">
        <ele>392.13</ele>
        <time>2025-10-23T13:01:25.770Z</time>
      </trkpt>
      <trkpt lat="45.90558" lon="4.68066">
        <ele>392.81</ele>
        <time>2025-10-23T13:01:29.624Z</time>
      </trkpt>
      <trkpt lat="45.90561" lon="4.68067">
        <ele>393.4</ele>
        <time>2025-10-23T13:01:33.480Z</time>
      </trkpt>
      <trkpt lat="45.90565" lon="4.68069">
        <ele>393.98</ele>
        <time>2025-10-23T13:01:37.337Z</time>
      </trkpt>
      <trkpt lat="45.90569" lon="4.68071">
        <ele>394.51</ele>
        <time>2025-10-23T13:01:41.196Z</time>
      </trkpt>
      <trkpt lat="45.90572" lon="4.68073">
        <ele>394.99</ele>
        <time>2025-10-23T13:01:45.056Z</time>
      </trkpt>
      <trkpt lat="45.90575" lon="4.68078">
        <ele>395.44</ele>
        <time>2025-10-23T13:01:48.918Z</time>
      </trkpt>
      <trkpt lat="45.90576" lon="4.68082">
        <ele>395.82</ele>
        <time>2025-10-23T13:01:52.781Z</time>
      </trkpt>
      <trkpt lat="45.90578" lon="4.6809">
        <ele>396.18</ele>
        <time>2025-10-23T13:01:56.647Z</time>
      </trkpt>
      <trkpt lat="45.90579" lon="4.68097">
        <ele>396.44</ele>
        <time>2025-10-23T13:02:00.515Z</time>
      </trkpt>
      <trkpt lat="45.90578" lon="4.68112">
        <ele>396.65</ele>
        <time>2025-10-23T13:02:04.387Z</time>
      </trkpt>
      <trkpt lat="45.90579" lon="4.68126">
        <ele>396.75</ele>
        <time>2025-10-23T13:02:08.264Z</time>
      </trkpt>
      <trkpt lat="45.90578" lon="4.68131">
        <ele>396.75</ele>
        <time>2025-10-23T13:02:12.142Z</time>
      </trkpt>
      <trkpt lat="45.90578" lon="4.68139">
        <ele>396.67</ele>
        <time>2025-10-23T13:02:16.022Z</time>
      </trkpt>
      <trkpt lat="45.90579" lon="4.68143">
        <ele>396.54</ele>
        <time>2025-10-23T13:02:19.903Z</time>
      </trkpt>
      <trkpt lat="45.90582" lon="4.68147">
        <ele>396.32</ele>
        <time>2025-10-23T13:02:23.786Z</time>
      </trkpt>
      <trkpt lat="45.90584" lon="4.6815">
        <ele>396.03</ele>
        <time>2025-10-23T13:02:27.670Z</time>
      </trkpt>
      <trkpt lat="45.90601" lon="4.68158">
        <ele>395.68</ele>
        <time>2025-10-23T13:02:31.562Z</time>
      </trkpt>
      <trkpt lat="45.90604" lon="4.68159">
        <ele>395.23</ele>
        <time>2025-10-23T13:02:35.455Z</time>
      </trkpt>
      <trkpt lat="45.90607" lon="4.6816">
        <ele>394.71</ele>
        <time>2025-10-23T13:02:39.349Z</time>
      </trkpt>
      <trkpt lat="45.90616" lon="4.68161">
        <ele>394.1</ele>
        <time>2025-10-23T13:02:43.247Z</time>
      </trkpt>
      <trkpt lat="45.90628" lon="4.68163">
        <ele>393.41</ele>
        <time>2025-10-23T13:02:47.150Z</time>
      </trkpt>
      <trkpt lat="45.90649" lon="4.68161">
        <ele>392.62</ele>
        <time>2025-10-23T13:02:51.062Z</time>
      </trkpt>
      <trkpt lat="45.90651" lon="4.68161">
        <ele>391.79</ele>
        <time>2025-10-23T13:02:54.975Z</time>
      </trkpt>
      <trkpt lat="45.90666" lon="4.68159">
        <ele>390.87</ele>
        <time>2025-10-23T13:02:58.894Z</time>
      </trkpt>
      <trkpt lat="45.90672" lon="4.6816">
        <ele>389.91</ele>
        <time>2025-10-23T13:03:02.815Z</time>
      </trkpt>
      <trkpt lat="45.90678" lon="4.68166">
        <ele>388.88</ele>
        <time>2025-10-23T13:03:06.739Z</time>
      </trkpt>
      <trkpt lat="45.90685" lon="4.68175">
        <ele>387.77</ele>
        <time>2025-10-23T13:03:10.667Z</time>
      </trkpt>
      <trkpt lat="45.90687" lon="4.68178">
        <ele>386.67</ele>
        <time>2025-10-23T13:03:14.596Z</time>
      </trkpt>
      <trkpt lat="45.90693" lon="4.68184">
        <ele>385.51</ele>
        <time>2025-10-23T13:03:18.529Z</time>
      </trkpt>
      <trkpt lat="45.90702" lon="4.68191">
        <ele>384.31</ele>
        <time>2025-10-23T13:03:22.466Z</time>
      </trkpt>
      <trkpt lat="45.90711" lon="4.68197">
        <ele>383.09</ele>
        <time>2025-10-23T13:03:26.407Z</time>
      </trkpt>
      <trkpt lat="45.90718" lon="4.68201">
        <ele>381.88</ele>
        <time>2025-10-23T13:03:30.351Z</time>
      </trkpt>
      <trkpt lat="45.90724" lon="4.68206">
        <ele>380.67</ele>
        <time>2025-10-23T13:03:34.298Z</time>
      </trkpt>
      <trkpt lat="45.90732" lon="4.68213">
        <ele>379.46</ele>
        <time>2025-10-23T13:03:38.249Z</time>
      </trkpt>
      <trkpt lat="45.90738" lon="4.68219">
        <ele>378.29</ele>
        <time>2025-10-23T13:03:42.203Z</time>
      </trkpt>
      <trkpt lat="45.90741" lon="4.68221">
        <ele>377.18</ele>
        <time>2025-10-23T13:03:46.158Z</time>
      </trkpt>
      <trkpt lat="45.90745" lon="4.68224">
        <ele>376.11</ele>
        <time>2025-10-23T13:03:50.115Z</time>
      </trkpt>
      <trkpt lat="45.90756" lon="4.68229">
        <ele>375.03</ele>
        <time>2025-10-23T13:03:54.077Z</time>
      </trkpt>
      <trkpt lat="45.90766" lon="4.68235">
        <ele>373.99</ele>
        <time>2025-10-23T13:03:58.043Z</time>
      </trkpt>
      <trkpt lat="45.90772" lon="4.68237">
        <ele>373.07</ele>
        <time>2025-10-23T13:04:02.012Z</time>
      </trkpt>
      <trkpt lat="45.90777" lon="4.68239">
        <ele>372.24</ele>
        <time>2025-10-23T13:04:05.983Z</time>
      </trkpt>
      <trkpt lat="45.90788" lon="4.68239">
        <ele>371.45</ele>
        <time>2025-10-23T13:04:09.959Z</time>
      </trkpt>
      <trkpt lat="45.90801" lon="4.68239">
        <ele>370.83</ele>
        <time>2025-10-23T13:04:13.940Z</time>
      </trkpt>
      <trkpt lat="45.90807" lon="4.68239">
        <ele>370.29</ele>
        <time>2025-10-23T13:04:17.923Z</time>
      </trkpt>
      <trkpt lat="45.90817" lon="4.68242">
        <ele>369.83</ele>
        <time>2025-10-23T13:04:21.911Z</time>
      </trkpt>
      <trkpt lat="45.90829" lon="4.68255">
        <ele>369.49</ele>
        <time>2025-10-23T13:04:25.905Z</time>
      </trkpt>
      <trkpt lat="45.90839" lon="4.68279">
        <ele>369.22</ele>
        <time>2025-10-23T13:04:29.907Z</time>
      </trkpt>
      <trkpt lat="45.90844" lon="4.68285">
        <ele>369.08</ele>
        <time>2025-10-23T13:04:33.912Z</time>
      </trkpt>
      <trkpt lat="45.9085" lon="4.68289">
        <ele>369.08</ele>
        <time>2025-10-23T13:04:37.919Z</time>
      </trkpt>
      <trkpt lat="45.90858" lon="4.68294">
        <ele>369.19</ele>
        <time>2025-10-23T13:04:41.930Z</time>
      </trkpt>
      <trkpt lat="45.90866" lon="4.683">
        <ele>369.38</ele>
        <time>2025-10-23T13:04:45.945Z</time>
      </trkpt>
      <trkpt lat="45.90868" lon="4.68302">
        <ele>369.62</ele>
        <time>2025-10-23T13:04:49.961Z</time>
      </trkpt>
      <trkpt lat="45.90874" lon="4.68306">
        <ele>369.97</ele>
        <time>2025-10-23T13:04:53.980Z</time>
      </trkpt>
      <trkpt lat="45.90882" lon="4.68313">
        <ele>370.39</ele>
        <time>2025-10-23T13:04:58.002Z</time>
      </trkpt>
      <trkpt lat="45.90894" lon="4.68323">
        <ele>370.89</ele>
        <time>2025-10-23T13:05:02.030Z</time>
      </trkpt>
      <trkpt lat="45.90904" lon="4.68332">
        <ele>371.44</ele>
        <time>2025-10-23T13:05:06.063Z</time>
      </trkpt>
      <trkpt lat="45.90913" lon="4.68342">
        <ele>372.02</ele>
        <time>2025-10-23T13:05:10.101Z</time>
      </trkpt>
      <trkpt lat="45.90917" lon="4.68347">
        <ele>372.64</ele>
        <time>2025-10-23T13:05:14.141Z</time>
      </trkpt>
      <trkpt lat="45.90933" lon="4.68362">
        <ele>373.34</ele>
        <time>2025-10-23T13:05:18.189Z</time>
      </trkpt>
      <trkpt lat="45.90935" lon="4.68364">
        <ele>374.04</ele>
        <time>2025-10-23T13:05:22.238Z</time>
      </trkpt>
      <trkpt lat="45.90952" lon="4.68375">
        <ele>374.8</ele>
        <time>2025-10-23T13:05:26.295Z</time>
      </trkpt>
      <trkpt lat="45.9096" lon="4.6838">
        <ele>375.56</ele>
        <time>2025-10-23T13:05:30.355Z</time>
      </trkpt>
      <trkpt lat="45.90978" lon="4.68391">
        <ele>376.37</ele>
        <time>2025-10-23T13:05:34.423Z</time>
      </trkpt>
      <trkpt lat="45.9098" lon="4.68392">
        <ele>377.17</ele>
        <time>2025-10-23T13:05:38.492Z</time>
      </trkpt>
      <trkpt lat="45.9099" lon="4.68396">
        <ele>378</ele>
        <time>2025-10-23T13:05:42.565Z</time>
      </trkpt>
      <trkpt lat="45.91007" lon="4.68399">
        <ele>378.9</ele>
        <time>2025-10-23T13:05:46.646Z</time>
      </trkpt>
      <trkpt lat="45.91016" lon="4.68402">
        <ele>379.73</ele>
        <time>2025-10-23T13:05:50.731Z</time>
      </trkpt>
      <trkpt lat="45.91025" lon="4.68404">
        <ele>380.56</ele>
        <time>2025-10-23T13:05:54.819Z</time>
      </trkpt>
      <trkpt lat="45.91041" lon="4.68408">
        <ele>381.4</ele>
        <time>2025-10-23T13:05:58.914Z</time>
      </trkpt>
      <trkpt lat="45.91053" lon="4.68412">
        <ele>382.22</ele>
        <time>2025-10-23T13:06:03.014Z</time>
      </trkpt>
      <trkpt lat="45.91059" lon="4.68414">
        <ele>382.98</ele>
        <time>2025-10-23T13:06:07.117Z</time>
      </trkpt>
      <trkpt lat="45.91067" lon="4.68418">
        <ele>383.72</ele>
        <time>2025-10-23T13:06:11.223Z</time>
      </trkpt>
      <trkpt lat="45.91076" lon="4.68421">
        <ele>384.42</ele>
        <time>2025-10-23T13:06:15.333Z</time>
      </trkpt>
      <trkpt lat="45.91092" lon="4.68427">
        <ele>385.09</ele>
        <time>2025-10-23T13:06:19.450Z</time>
      </trkpt>
      <trkpt lat="45.91096" lon="4.68428">
        <ele>385.74</ele>
        <time>2025-10-23T13:06:23.569Z</time>
      </trkpt>
      <trkpt lat="45.91107" lon="4.6843">
        <ele>386.37</ele>
        <time>2025-10-23T13:06:27.692Z</time>
      </trkpt>
      <trkpt lat="45.91113" lon="4.68432">
        <ele>386.95</ele>
        <time>2025-10-23T13:06:31.818Z</time>
      </trkpt>
      <trkpt lat="45.91115" lon="4.68432">
        <ele>387.5</ele>
        <time>2025-10-23T13:06:35.945Z</time>
      </trkpt>
      <trkpt lat="45.91123" lon="4.6843">
        <ele>388.03</ele>
        <time>2025-10-23T13:06:40.075Z</time>
      </trkpt>
      <trkpt lat="45.91125" lon="4.6843">
        <ele>388.52</ele>
        <time>2025-10-23T13:06:44.206Z</time>
      </trkpt>
      <trkpt lat="45.91128" lon="4.6843">
        <ele>388.98</ele>
        <time>2025-10-23T13:06:48.338Z</time>
      </trkpt>
      <trkpt lat="45.91143" lon="4.68431">
        <ele>389.43</ele>
        <time>2025-10-23T13:06:52.476Z</time>
      </trkpt>
      <trkpt lat="45.91144" lon="4.68432">
        <ele>389.84</ele>
        <time>2025-10-23T13:06:56.615Z</time>
      </trkpt>
      <trkpt lat="45.91145" lon="4.68434">
        <ele>390.22</ele>
        <time>2025-10-23T13:07:00.754Z</time>
      </trkpt>
      <trkpt lat="45.91148" lon="4.68436">
        <ele>390.57</ele>
        <time>2025-10-23T13:07:04.895Z</time>
      </trkpt>
      <trkpt lat="45.91149" lon="4.68437">
        <ele>390.92</ele>
        <time>2025-10-23T13:07:09.036Z</time>
      </trkpt>
      <trkpt lat="45.91156" lon="4.68435">
        <ele>391.28</ele>
        <time>2025-10-23T13:07:13.180Z</time>
      </trkpt>
      <trkpt lat="45.91157" lon="4.68435">
        <ele>391.6</ele>
        <time>2025-10-23T13:07:17.325Z</time>
      </trkpt>
      <trkpt lat="45.91167" lon="4.68433">
        <ele>391.94</ele>
        <time>2025-10-23T13:07:21.474Z</time>
      </trkpt>
      <trkpt lat="45.91171" lon="4.68432">
        <ele>392.25</ele>
        <time>2025-10-23T13:07:25.624Z</time>
      </trkpt>
      <trkpt lat="45.91178" lon="4.68427">
        <ele>392.57</ele>
        <time>2025-10-23T13:07:29.778Z</time>
      </trkpt>
      <trkpt lat="45.9118" lon="4.68425">
        <ele>392.86</ele>
        <time>2025-10-23T13:07:33.933Z</time>
      </trkpt>
      <trkpt lat="45.91188" lon="4.68423">
        <ele>393.14</ele>
        <time>2025-10-23T13:07:38.091Z</time>
      </trkpt>
      <trkpt lat="45.91193" lon="4.68423">
        <ele>393.41</ele>
        <time>2025-10-23T13:07:42.251Z</time>
      </trkpt>
      <trkpt lat="45.91196" lon="4.68423">
        <ele>393.67</ele>
        <time>2025-10-23T13:07:46.412Z</time>
      </trkpt>
      <trkpt lat="45.91212" lon="4.68426">
        <ele>393.95</ele>
        <time>2025-10-23T13:07:50.580Z</time>
      </trkpt>
      <trkpt lat="45.91222" lon="4.68428">
        <ele>394.22</ele>
        <time>2025-10-23T13:07:54.752Z</time>
      </trkpt>
      <trkpt lat="45.91228" lon="4.68429">
        <ele>394.48</ele>
        <time>2025-10-23T13:07:58.927Z</time>
      </trkpt>
      <trkpt lat="45.91243" lon="4.68432">
        <ele>394.72</ele>
        <time>2025-10-23T13:08:03.108Z</time>
      </trkpt>
      <trkpt lat="45.91247" lon="4.68433">
        <ele>394.97</ele>
        <time>2025-10-23T13:08:07.291Z</time>
      </trkpt>
      <trkpt lat="45.91252" lon="4.68434">
        <ele>395.22</ele>
        <time>2025-10-23T13:08:11.476Z</time>
      </trkpt>
      <trkpt lat="45.91261" lon="4.68435">
        <ele>395.47</ele>
        <time>2025-10-23T13:08:15.664Z</time>
      </trkpt>
      <trkpt lat="45.91273" lon="4.68434">
        <ele>395.73</ele>
        <time>2025-10-23T13:08:19.858Z</time>
      </trkpt>
      <trkpt lat="45.91276" lon="4.68434">
        <ele>395.99</ele>
        <time>2025-10-23T13:08:24.053Z</time>
      </trkpt>
      <trkpt lat="45.91283" lon="4.68435">
        <ele>396.26</ele>
        <time>2025-10-23T13:08:28.250Z</time>
      </trkpt>
      <trkpt lat="45.91288" lon="4.68433">
        <ele>396.53</ele>
        <time>2025-10-23T13:08:32.450Z</time>
      </trkpt>
      <trkpt lat="45.91289" lon="4.68431">
        <ele>396.81</ele>
        <time>2025-10-23T13:08:36.651Z</time>
      </trkpt>
      <trkpt lat="45.91291" lon="4.68425">
        <ele>397.09</ele>
        <time>2025-10-23T13:08:40.853Z</time>
      </trkpt>
      <trkpt lat="45.91292" lon="4.68416">
        <ele>397.39</ele>
        <time>2025-10-23T13:08:45.058Z</time>
      </trkpt>
      <trkpt lat="45.91293" lon="4.68408">
        <ele>397.67</ele>
        <time>2025-10-23T13:08:49.265Z</time>
      </trkpt>
      <trkpt lat="45.91292" lon="4.68402">
        <ele>397.95</ele>
        <time>2025-10-23T13:08:53.474Z</time>
      </trkpt>
      <trkpt lat="45.91292" lon="4.68399">
        <ele>398.21</ele>
        <time>2025-10-23T13:08:57.684Z</time>
      </trkpt>
      <trkpt lat="45.91291" lon="4.68389">
        <ele>398.48</ele>
        <time>2025-10-23T13:09:01.897Z</time>
      </trkpt>
      <trkpt lat="45.9129" lon="4.68379">
        <ele>398.75</ele>
        <time>2025-10-23T13:09:06.113Z</time>
      </trkpt>
      <trkpt lat="45.91291" lon="4.68374">
        <ele>398.99</ele>
        <time>2025-10-23T13:09:10.330Z</time>
      </trkpt>
      <trkpt lat="45.91292" lon="4.68369">
        <ele>399.21</ele>
        <time>2025-10-23T13:09:14.549Z</time>
      </trkpt>
      <trkpt lat="45.91299" lon="4.6836">
        <ele>399.44</ele>
        <time>2025-10-23T13:09:18.772Z</time>
      </trkpt>
      <trkpt lat="45.91303" lon="4.68367">
        <ele>399.56</ele>
        <time>2025-10-23T13:09:22.997Z</time>
      </trkpt>
      <trkpt lat="45.91305" lon="4.68372">
        <ele>399.66</ele>
        <time>2025-10-23T13:09:27.224Z</time>
      </trkpt>
      <trkpt lat="45.91306" lon="4.68375">
        <ele>399.73</ele>
        <time>2025-10-23T13:09:31.452Z</time>
      </trkpt>
      <trkpt lat="45.9131" lon="4.6838">
        <ele>399.76</ele>
        <time>2025-10-23T13:09:35.682Z</time>
      </trkpt>
      <trkpt lat="45.91313" lon="4.68388">
        <ele>399.74</ele>
        <time>2025-10-23T13:09:39.915Z</time>
      </trkpt>
      <trkpt lat="45.91316" lon="4.68394">
        <ele>399.68</ele>
        <time>2025-10-23T13:09:44.150Z</time>
      </trkpt>
      <trkpt lat="45.91322" lon="4.68405">
        <ele>399.56</ele>
        <time>2025-10-23T13:09:48.389Z</time>
      </trkpt>
      <trkpt lat="45.91324" lon="4.68407">
        <ele>399.41</ele>
        <time>2025-10-23T13:09:52.629Z</time>
      </trkpt>
      <trkpt lat="45.91331" lon="4.68411">
        <ele>399.2</ele>
        <time>2025-10-23T13:09:56.872Z</time>
      </trkpt>
      <trkpt lat="45.91337" lon="4.68413">
        <ele>398.93</ele>
        <time>2025-10-23T13:10:01.118Z</time>
      </trkpt>
      <trkpt lat="45.91348" lon="4.68413">
        <ele>398.6</ele>
        <time>2025-10-23T13:10:05.368Z</time>
      </trkpt>
      <trkpt lat="45.91352" lon="4.68411">
        <ele>398.2</ele>
        <time>2025-10-23T13:10:09.620Z</time>
      </trkpt>
      <trkpt lat="45.91361" lon="4.68407">
        <ele>397.73</ele>
        <time>2025-10-23T13:10:13.876Z</time>
      </trkpt>
      <trkpt lat="45.91366" lon="4.68408">
        <ele>397.2</ele>
        <time>2025-10-23T13:10:18.134Z</time>
      </trkpt>
      <trkpt lat="45.91369" lon="4.68413">
        <ele>396.6</ele>
        <time>2025-10-23T13:10:22.394Z</time>
      </trkpt>
      <trkpt lat="45.91369" lon="4.6842">
        <ele>395.94</ele>
        <time>2025-10-23T13:10:26.656Z</time>
      </trkpt>
      <trkpt lat="45.91367" lon="4.68428">
        <ele>395.24</ele>
        <time>2025-10-23T13:10:30.921Z</time>
      </trkpt>
      <trkpt lat="45.91366" lon="4.68441">
        <ele>394.45</ele>
        <time>2025-10-23T13:10:35.190Z</time>
      </trkpt>
      <trkpt lat="45.91365" lon="4.68454">
        <ele>393.6</ele>
        <time>2025-10-23T13:10:39.462Z</time>
      </trkpt>
      <trkpt lat="45.91364" lon="4.68462">
        <ele>392.68</ele>
        <time>2025-10-23T13:10:43.737Z</time>
      </trkpt>
      <trkpt lat="45.91363" lon="4.68474">
        <ele>391.69</ele>
        <time>2025-10-23T13:10:48.015Z</time>
      </trkpt>
      <trkpt lat="45.91362" lon="4.68487">
        <ele>390.62</ele>
        <time>2025-10-23T13:10:52.297Z</time>
      </trkpt>
      <trkpt lat="45.91362" lon="4.68502">
        <ele>389.48</ele>
        <time>2025-10-23T13:10:56.583Z</time>
      </trkpt>
      <trkpt lat="45.91362" lon="4.68513">
        <ele>388.25</ele>
        <time>2025-10-23T13:11:00.872Z</time>
      </trkpt>
      <trkpt lat="45.91364" lon="4.68521">
        <ele>386.98</ele>
        <time>2025-10-23T13:11:05.164Z</time>
      </trkpt>
      <trkpt lat="45.91368" lon="4.6853">
        <ele>385.64</ele>
        <time>2025-10-23T13:11:09.459Z</time>
      </trkpt>
      <trkpt lat="45.91372" lon="4.68539">
        <ele>384.25</ele>
        <time>2025-10-23T13:11:13.757Z</time>
      </trkpt>
      <trkpt lat="45.91376" lon="4.68547">
        <ele>382.81</ele>
        <time>2025-10-23T13:11:18.058Z</time>
      </trkpt>
      <trkpt lat="45.9138" lon="4.68556">
        <ele>381.34</ele>
        <time>2025-10-23T13:11:22.362Z</time>
      </trkpt>
      <trkpt lat="45.91384" lon="4.68565">
        <ele>379.85</ele>
        <time>2025-10-23T13:11:26.669Z</time>
      </trkpt>
      <trkpt lat="45.91388" lon="4.68573">
        <ele>378.37</ele>
        <time>2025-10-23T13:11:30.979Z</time>
      </trkpt>
      <trkpt lat="45.91392" lon="4.68581">
        <ele>376.86</ele>
        <time>2025-10-23T13:11:35.292Z</time>
      </trkpt>
      <trkpt lat="45.91394" lon="4.68585">
        <ele>375.38</ele>
        <time>2025-10-23T13:11:39.606Z</time>
      </trkpt>
      <trkpt lat="45.91396" lon="4.68589">
        <ele>373.9</ele>
        <time>2025-10-23T13:11:43.922Z</time>
      </trkpt>
      <trkpt lat="45.91398" lon="4.68593">
        <ele>372.42</ele>
        <time>2025-10-23T13:11:48.239Z</time>
      </trkpt>
      <trkpt lat="45.91403" lon="4.68601">
        <ele>370.92</ele>
        <time>2025-10-23T13:11:52.559Z</time>
      </trkpt>
      <trkpt lat="45.91408" lon="4.6861">
        <ele>369.42</ele>
        <time>2025-10-23T13:11:56.882Z</time>
      </trkpt>
      <trkpt lat="45.9141" lon="4.68614">
        <ele>367.99</ele>
        <time>2025-10-23T13:12:01.207Z</time>
      </trkpt>
      <trkpt lat="45.91412" lon="4.68619">
        <ele>366.58</ele>
        <time>2025-10-23T13:12:05.533Z</time>
      </trkpt>
      <trkpt lat="45.91417" lon="4.68628">
        <ele>365.13</ele>
        <time>2025-10-23T13:12:09.863Z</time>
      </trkpt>
      <trkpt lat="45.91422" lon="4.68638">
        <ele>363.73</ele>
        <time>2025-10-23T13:12:14.196Z</time>
      </trkpt>
      <trkpt lat="45.91424" lon="4.68643">
        <ele>362.43</ele>
        <time>2025-10-23T13:12:18.531Z</time>
      </trkpt>
      <trkpt lat="45.91426" lon="4.68648">
        <ele>361.22</ele>
        <time>2025-10-23T13:12:22.868Z</time>
      </trkpt>
      <trkpt lat="45.9143" lon="4.68657">
        <ele>360.04</ele>
        <time>2025-10-23T13:12:27.208Z</time>
      </trkpt>
      <trkpt lat="45.91433" lon="4.68666">
        <ele>358.95</ele>
        <time>2025-10-23T13:12:31.551Z</time>
      </trkpt>
      <trkpt lat="45.91435" lon="4.6867">
        <ele>357.94</ele>
        <time>2025-10-23T13:12:35.895Z</time>
      </trkpt>
      <trkpt lat="45.91437" lon="4.68674">
        <ele>357</ele>
        <time>2025-10-23T13:12:40.240Z</time>
      </trkpt>
      <trkpt lat="45.91443" lon="4.68684">
        <ele>356.11</ele>
        <time>2025-10-23T13:12:44.589Z</time>
      </trkpt>
      <trkpt lat="45.91448" lon="4.68688">
        <ele>355.31</ele>
        <time>2025-10-23T13:12:48.941Z</time>
      </trkpt>
      <trkpt lat="45.91451" lon="4.68689">
        <ele>354.59</ele>
        <time>2025-10-23T13:12:53.294Z</time>
      </trkpt>
      <trkpt lat="45.91454" lon="4.68689">
        <ele>353.95</ele>
        <time>2025-10-23T13:12:57.648Z</time>
      </trkpt>
      <trkpt lat="45.91456" lon="4.68689">
        <ele>353.38</ele>
        <time>2025-10-23T13:13:02.003Z</time>
      </trkpt>
      <trkpt lat="45.91459" lon="4.68687">
        <ele>352.9</ele>
        <time>2025-10-23T13:13:06.359Z</time>
      </trkpt>
      <trkpt lat="45.91463" lon="4.68689">
        <ele>352.48</ele>
        <time>2025-10-23T13:13:10.717Z</time>
      </trkpt>
      <trkpt lat="45.91473" lon="4.68694">
        <ele>352.13</ele>
        <time>2025-10-23T13:13:15.080Z</time>
      </trkpt>
      <trkpt lat="45.91476" lon="4.68695">
        <ele>351.85</ele>
        <time>2025-10-23T13:13:19.444Z</time>
      </trkpt>
      <trkpt lat="45.91479" lon="4.68697">
        <ele>351.64</ele>
        <time>2025-10-23T13:13:23.809Z</time>
      </trkpt>
      <trkpt lat="45.91489" lon="4.68702">
        <ele>351.49</ele>
        <time>2025-10-23T13:13:28.179Z</time>
      </trkpt>
      <trkpt lat="45.91495" lon="4.68704">
        <ele>351.4</ele>
        <time>2025-10-23T13:13:32.551Z</time>
      </trkpt>
      <trkpt lat="45.91498" lon="4.68705">
        <ele>351.39</ele>
        <time>2025-10-23T13:13:36.924Z</time>
      </trkpt>
      <trkpt lat="45.91506" lon="4.68709">
        <ele>351.42</ele>
        <time>2025-10-23T13:13:41.301Z</time>
      </trkpt>
      <trkpt lat="45.91521" lon="4.68717">
        <ele>351.5</ele>
        <time>2025-10-23T13:13:45.684Z</time>
      </trkpt>
      <trkpt lat="45.91526" lon="4.6872">
        <ele>351.66</ele>
        <time>2025-10-23T13:13:50.070Z</time>
      </trkpt>
      <trkpt lat="45.91529" lon="4.68722">
        <ele>351.88</ele>
        <time>2025-10-23T13:13:54.457Z</time>
      </trkpt>
      <trkpt lat="45.91539" lon="4.68725">
        <ele>352.14</ele>
        <time>2025-10-23T13:13:58.848Z</time>
      </trkpt>
      <trkpt lat="45.91545" lon="4.68728">
        <ele>352.45</ele>
        <time>2025-10-23T13:14:03.242Z</time>
      </trkpt>
      <trkpt lat="45.91559" lon="4.68733">
        <ele>352.77</ele>
        <time>2025-10-23T13:14:07.642Z</time>
      </trkpt>
      <trkpt lat="45.9157" lon="4.68725">
        <ele>353.23</ele>
        <time>2025-10-23T13:14:12.047Z</time>
      </trkpt>
      <trkpt lat="45.91575" lon="4.68707">
        <ele>353.77</ele>
        <time>2025-10-23T13:14:16.458Z</time>
      </trkpt>
      <trkpt lat="45.91576" lon="4.68704">
        <ele>354.3</ele>
        <time>2025-10-23T13:14:20.870Z</time>
      </trkpt>
      <trkpt lat="45.91577" lon="4.68695">
        <ele>354.9</ele>
        <time>2025-10-23T13:14:25.284Z</time>
      </trkpt>
      <trkpt lat="45.9158" lon="4.68676">
        <ele>355.56</ele>
        <time>2025-10-23T13:14:29.704Z</time>
      </trkpt>
      <trkpt lat="45.91581" lon="4.68672">
        <ele>356.16</ele>
        <time>2025-10-23T13:14:34.125Z</time>
      </trkpt>
      <trkpt lat="45.91582" lon="4.68664">
        <ele>356.8</ele>
        <time>2025-10-23T13:14:38.548Z</time>
      </trkpt>
      <trkpt lat="45.91585" lon="4.68651">
        <ele>357.48</ele>
        <time>2025-10-23T13:14:42.975Z</time>
      </trkpt>
      <trkpt lat="45.91586" lon="4.68645">
        <ele>358.14</ele>
        <time>2025-10-23T13:14:47.404Z</time>
      </trkpt>
      <trkpt lat="45.91588" lon="4.68638">
        <ele>358.83</ele>
        <time>2025-10-23T13:14:51.835Z</time>
      </trkpt>
      <trkpt lat="45.91596" lon="4.68625">
        <ele>359.55</ele>
        <time>2025-10-23T13:14:56.271Z</time>
      </trkpt>
      <trkpt lat="45.91598" lon="4.68622">
        <ele>360.22</ele>
        <time>2025-10-23T13:15:00.708Z</time>
      </trkpt>
      <trkpt lat="45.91601" lon="4.68616">
        <ele>360.89</ele>
        <time>2025-10-23T13:15:05.148Z</time>
      </trkpt>
      <trkpt lat="45.91605" lon="4.68608">
        <ele>361.54</ele>
        <time>2025-10-23T13:15:09.590Z</time>
      </trkpt>
      <trkpt lat="45.91606" lon="4.68606">
        <ele>362.17</ele>
        <time>2025-10-23T13:15:14.033Z</time>
      </trkpt>
      <trkpt lat="45.91614" lon="4.68593">
        <ele>362.8</ele>
        <time>2025-10-23T13:15:18.481Z</time>
      </trkpt>
      <trkpt lat="45.91619" lon="4.68582">
        <ele>363.43</ele>
        <time>2025-10-23T13:15:22.933Z</time>
      </trkpt>
      <trkpt lat="45.9162" lon="4.68579">
        <ele>364.03</ele>
        <time>2025-10-23T13:15:27.386Z</time>
      </trkpt>
      <trkpt lat="45.91623" lon="4.68568">
        <ele>364.62</ele>
        <time>2025-10-23T13:15:31.842Z</time>
      </trkpt>
      <trkpt lat="45.91623" lon="4.68557">
        <ele>365.21</ele>
        <time>2025-10-23T13:15:36.302Z</time>
      </trkpt>
      <trkpt lat="45.91626" lon="4.68545">
        <ele>365.78</ele>
        <time>2025-10-23T13:15:40.765Z</time>
      </trkpt>
      <trkpt lat="45.91628" lon="4.68541">
        <ele>366.33</ele>
        <time>2025-10-23T13:15:45.230Z</time>
      </trkpt>
      <trkpt lat="45.91629" lon="4.68538">
        <ele>366.86</ele>
        <time>2025-10-23T13:15:49.696Z</time>
      </trkpt>
      <trkpt lat="45.91631" lon="4.68537">
        <ele>367.38</ele>
        <time>2025-10-23T13:15:54.162Z</time>
      </trkpt>
      <trkpt lat="45.91635" lon="4.68531">
        <ele>367.9</ele>
        <time>2025-10-23T13:15:58.631Z</time>
      </trkpt>
      <trkpt lat="45.91647" lon="4.68519">
        <ele>368.41</ele>
        <time>2025-10-23T13:16:03.106Z</time>
      </trkpt>
      <trkpt lat="45.91658" lon="4.68504">
        <ele>368.94</ele>
        <time>2025-10-23T13:16:07.587Z</time>
      </trkpt>
      <trkpt lat="45.91661" lon="4.68501">
        <ele>369.43</ele>
        <time>2025-10-23T13:16:12.070Z</time>
      </trkpt>
      <trkpt lat="45.9167" lon="4.68491">
        <ele>369.95</ele>
        <time>2025-10-23T13:16:16.558Z</time>
      </trkpt>
      <trkpt lat="45.91672" lon="4.68489">
        <ele>370.41</ele>
        <time>2025-10-23T13:16:21.046Z</time>
      </trkpt>
      <trkpt lat="45.91681" lon="4.68478">
        <ele>370.89</ele>
        <time>2025-10-23T13:16:25.540Z</time>
      </trkpt>
      <trkpt lat="45.91689" lon="4.68471">
        <ele>371.37</ele>
        <time>2025-10-23T13:16:30.037Z</time>
      </trkpt>
      <trkpt lat="45.91694" lon="4.6847">
        <ele>371.83</ele>
        <time>2025-10-23T13:16:34.536Z</time>
      </trkpt>
      <trkpt lat="45.91705" lon="4.68472">
        <ele>372.29</ele>
        <time>2025-10-23T13:16:39.040Z</time>
      </trkpt>
      <trkpt lat="45.91709" lon="4.68473">
        <ele>372.72</ele>
        <time>2025-10-23T13:16:43.546Z</time>
      </trkpt>
      <trkpt lat="45.91711" lon="4.68474">
        <ele>373.16</ele>
        <time>2025-10-23T13:16:48.053Z</time>
      </trkpt>
      <trkpt lat="45.91723" lon="4.68477">
        <ele>373.61</ele>
        <time>2025-10-23T13:16:52.565Z</time>
      </trkpt>
      <trkpt lat="45.91726" lon="4.68479">
        <ele>374.05</ele>
        <time>2025-10-23T13:16:57.078Z</time>
      </trkpt>
      <trkpt lat="45.91729" lon="4.68481">
        <ele>374.49</ele>
        <time>2025-10-23T13:17:01.592Z</time>
      </trkpt>
      <trkpt lat="45.91739" lon="4.6849">
        <ele>374.96</ele>
        <time>2025-10-23T13:17:06.111Z</time>
      </trkpt>
      <trkpt lat="45.91745" lon="4.68495">
        <ele>375.43</ele>
        <time>2025-10-23T13:17:10.633Z</time>
      </trkpt>
      <trkpt lat="45.91746" lon="4.68497">
        <ele>375.89</ele>
        <time>2025-10-23T13:17:15.156Z</time>
      </trkpt>
      <trkpt lat="45.91749" lon="4.685">
        <ele>376.37</ele>
        <time>2025-10-23T13:17:19.680Z</time>
      </trkpt>
      <trkpt lat="45.91757" lon="4.68508">
        <ele>376.88</ele>
        <time>2025-10-23T13:17:24.208Z</time>
      </trkpt>
      <trkpt lat="45.91768" lon="4.68518">
        <ele>377.44</ele>
        <time>2025-10-23T13:17:28.742Z</time>
      </trkpt>
      <trkpt lat="45.9177" lon="4.68521">
        <ele>377.96</ele>
        <time>2025-10-23T13:17:33.277Z</time>
      </trkpt>
      <trkpt lat="45.91777" lon="4.68527">
        <ele>378.53</ele>
        <time>2025-10-23T13:17:37.815Z</time>
      </trkpt>
      <trkpt lat="45.91782" lon="4.68534">
        <ele>379.11</ele>
        <time>2025-10-23T13:17:42.356Z</time>
      </trkpt>
      <trkpt lat="45.91784" lon="4.68536">
        <ele>379.65</ele>
        <time>2025-10-23T13:17:46.898Z</time>
      </trkpt>
      <trkpt lat="45.91792" lon="4.68542">
        <ele>380.26</ele>
        <time>2025-10-23T13:17:51.444Z</time>
      </trkpt>
      <trkpt lat="45.91798" lon="4.68548">
        <ele>380.84</ele>
        <time>2025-10-23T13:17:55.993Z</time>
      </trkpt>
      <trkpt lat="45.91801" lon="4.68551">
        <ele>381.42</ele>
        <time>2025-10-23T13:18:00.543Z</time>
      </trkpt>
      <trkpt lat="45.91807" lon="4.68558">
        <ele>382.03</ele>
        <time>2025-10-23T13:18:05.097Z</time>
      </trkpt>
      <trkpt lat="45.9181" lon="4.68561">
        <ele>382.62</ele>
        <time>2025-10-23T13:18:09.652Z</time>
      </trkpt>
      <trkpt lat="45.91817" lon="4.6857">
        <ele>383.26</ele>
        <time>2025-10-23T13:18:14.211Z</time>
      </trkpt>
      <trkpt lat="45.91824" lon="4.68574">
        <ele>383.89</ele>
        <time>2025-10-23T13:18:18.773Z</time>
      </trkpt>
      <trkpt lat="45.91825" lon="4.68576">
        <ele>384.51</ele>
        <time>2025-10-23T13:18:23.336Z</time>
      </trkpt>
      <trkpt lat="45.91832" lon="4.68581">
        <ele>385.16</ele>
        <time>2025-10-23T13:18:27.902Z</time>
      </trkpt>
      <trkpt lat="45.91837" lon="4.68585">
        <ele>385.81</ele>
        <time>2025-10-23T13:18:32.470Z</time>
      </trkpt>
      <trkpt lat="45.91838" lon="4.68586">
        <ele>386.46</ele>
        <time>2025-10-23T13:18:37.039Z</time>
      </trkpt>
      <trkpt lat="45.91845" lon="4.68592">
        <ele>387.14</ele>
        <time>2025-10-23T13:18:41.611Z</time>
      </trkpt>
      <trkpt lat="45.91846" lon="4.68594">
        <ele>387.81</ele>
        <time>2025-10-23T13:18:46.184Z</time>
      </trkpt>
      <trkpt lat="45.91849" lon="4.68596">
        <ele>388.49</ele>
        <time>2025-10-23T13:18:50.758Z</time>
      </trkpt>
      <trkpt lat="45.91852" lon="4.68599">
        <ele>389.19</ele>
        <time>2025-10-23T13:18:55.334Z</time>
      </trkpt>
      <trkpt lat="45.91855" lon="4.68602">
        <ele>389.89</ele>
        <time>2025-10-23T13:18:59.911Z</time>
      </trkpt>
      <trkpt lat="45.91864" lon="4.6861">
        <ele>390.66</ele>
        <time>2025-10-23T13:19:04.493Z</time>
      </trkpt>
      <trkpt lat="45.91866" lon="4.68612">
        <ele>391.36</ele>
        <time>2025-10-23T13:19:09.076Z</time>
      </trkpt>
      <trkpt lat="45.91872" lon="4.68616">
        <ele>392.1</ele>
        <time>2025-10-23T13:19:13.662Z</time>
      </trkpt>
      <trkpt lat="45.91874" lon="4.68618">
        <ele>392.81</ele>
        <time>2025-10-23T13:19:18.248Z</time>
      </trkpt>
      <trkpt lat="45.91877" lon="4.68621">
        <ele>393.53</ele>
        <time>2025-10-23T13:19:22.836Z</time>
      </trkpt>
      <trkpt lat="45.91878" lon="4.68623">
        <ele>394.24</ele>
        <time>2025-10-23T13:19:27.425Z</time>
      </trkpt>
      <trkpt lat="45.91881" lon="4.68634">
        <ele>394.97</ele>
        <time>2025-10-23T13:19:32.017Z</time>
      </trkpt>
      <trkpt lat="45.91881" lon="4.68635">
        <ele>395.66</ele>
        <time>2025-10-23T13:19:36.610Z</time>
      </trkpt>
      <trkpt lat="45.9188" lon="4.68647">
        <ele>396.35</ele>
        <time>2025-10-23T13:19:41.206Z</time>
      </trkpt>
      <trkpt lat="45.91881" lon="4.68653">
        <ele>397.05</ele>
        <time>2025-10-23T13:19:45.804Z</time>
      </trkpt>
      <trkpt lat="45.91888" lon="4.68651">
        <ele>397.77</ele>
        <time>2025-10-23T13:19:50.405Z</time>
      </trkpt>
      <trkpt lat="45.91903" lon="4.68645">
        <ele>398.53</ele>
        <time>2025-10-23T13:19:55.013Z</time>
      </trkpt>
      <trkpt lat="45.91905" lon="4.68644">
        <ele>399.18</ele>
        <time>2025-10-23T13:19:59.621Z</time>
      </trkpt>
      <trkpt lat="45.91909" lon="4.68644">
        <ele>399.81</ele>
        <time>2025-10-23T13:20:04.231Z</time>
      </trkpt>
      <trkpt lat="45.91913" lon="4.68642">
        <ele>400.43</ele>
        <time>2025-10-23T13:20:08.843Z</time>
      </trkpt>
      <trkpt lat="45.9192" lon="4.68641">
        <ele>401.03</ele>
        <time>2025-10-23T13:20:13.457Z</time>
      </trkpt>
      <trkpt lat="45.91926" lon="4.68641">
        <ele>401.62</ele>
        <time>2025-10-23T13:20:18.074Z</time>
      </trkpt>
      <trkpt lat="45.91929" lon="4.68641">
        <ele>402.17</ele>
        <time>2025-10-23T13:20:22.692Z</time>
      </trkpt>
      <trkpt lat="45.91942" lon="4.68643">
        <ele>402.73</ele>
        <time>2025-10-23T13:20:27.316Z</time>
      </trkpt>
      <trkpt lat="45.91952" lon="4.68643">
        <ele>403.25</ele>
        <time>2025-10-23T13:20:31.944Z</time>
      </trkpt>
      <trkpt lat="45.91957" lon="4.68643">
        <ele>403.73</ele>
        <time>2025-10-23T13:20:36.574Z</time>
      </trkpt>
      <trkpt lat="45.91973" lon="4.68645">
        <ele>404.19</ele>
        <time>2025-10-23T13:20:41.211Z</time>
      </trkpt>
      <trkpt lat="45.91976" lon="4.68645">
        <ele>404.58</ele>
        <time>2025-10-23T13:20:45.849Z</time>
      </trkpt>
      <trkpt lat="45.91983" lon="4.68646">
        <ele>404.95</ele>
        <time>2025-10-23T13:20:50.490Z</time>
      </trkpt>
      <trkpt lat="45.91989" lon="4.68646">
        <ele>405.27</ele>
        <time>2025-10-23T13:20:55.133Z</time>
      </trkpt>
      <trkpt lat="45.92003" lon="4.68646">
        <ele>405.57</ele>
        <time>2025-10-23T13:20:59.782Z</time>
      </trkpt>
      <trkpt lat="45.92004" lon="4.68646">
        <ele>405.81</ele>
        <time>2025-10-23T13:21:04.432Z</time>
      </trkpt>
      <trkpt lat="45.92011" lon="4.68646">
        <ele>406.02</ele>
        <time>2025-10-23T13:21:09.085Z</time>
      </trkpt>
      <trkpt lat="45.92017" lon="4.68647">
        <ele>406.18</ele>
        <time>2025-10-23T13:21:13.740Z</time>
      </trkpt>
      <trkpt lat="45.92028" lon="4.68648">
        <ele>406.32</ele>
        <time>2025-10-23T13:21:18.400Z</time>
      </trkpt>
      <trkpt lat="45.92043" lon="4.68649">
        <ele>406.41</ele>
        <time>2025-10-23T13:21:23.066Z</time>
      </trkpt>
      <trkpt lat="45.92045" lon="4.68648">
        <ele>406.43</ele>
        <time>2025-10-23T13:21:27.733Z</time>
      </trkpt>
      <trkpt lat="45.92055" lon="4.68648">
        <ele>406.44</ele>
        <time>2025-10-23T13:21:32.404Z</time>
      </trkpt>
      <trkpt lat="45.92071" lon="4.68653">
        <ele>406.43</ele>
        <time>2025-10-23T13:21:37.082Z</time>
      </trkpt>
      <trkpt lat="45.92089" lon="4.68657">
        <ele>406.31</ele>
        <time>2025-10-23T13:21:41.767Z</time>
      </trkpt>
      <trkpt lat="45.92094" lon="4.68657">
        <ele>406.15</ele>
        <time>2025-10-23T13:21:46.454Z</time>
      </trkpt>
      <trkpt lat="45.92108" lon="4.68653">
        <ele>405.88</ele>
        <time>2025-10-23T13:21:51.147Z</time>
      </trkpt>
      <trkpt lat="45.92127" lon="4.68647">
        <ele>405.53</ele>
        <time>2025-10-23T13:21:55.848Z</time>
      </trkpt>
      <trkpt lat="45.92134" lon="4.68646">
        <ele>405.22</ele>
        <time>2025-10-23T13:22:00.552Z</time>
      </trkpt>
      <trkpt lat="45.92153" lon="4.68648">
        <ele>404.82</ele>
        <time>2025-10-23T13:22:05.264Z</time>
      </trkpt>
      <trkpt lat="45.92156" lon="4.68648">
        <ele>404.49</ele>
        <time>2025-10-23T13:22:09.977Z</time>
      </trkpt>
      <trkpt lat="45.92174" lon="4.6865">
        <ele>404.08</ele>
        <time>2025-10-23T13:22:14.698Z</time>
      </trkpt>
      <trkpt lat="45.9219" lon="4.68652">
        <ele>403.68</ele>
        <time>2025-10-23T13:22:19.425Z</time>
      </trkpt>
      <trkpt lat="45.92192" lon="4.68652">
        <ele>403.29</ele>
        <time>2025-10-23T13:22:24.153Z</time>
      </trkpt>
      <trkpt lat="45.9221" lon="4.68654">
        <ele>402.88</ele>
        <time>2025-10-23T13:22:28.889Z</time>
      </trkpt>
      <trkpt lat="45.92215" lon="4.68655">
        <ele>402.46</ele>
        <time>2025-10-23T13:22:33.627Z</time>
      </trkpt>
      <trkpt lat="45.92227" lon="4.68658">
        <ele>402.03</ele>
        <time>2025-10-23T13:22:38.370Z</time>
      </trkpt>
      <trkpt lat="45.92237" lon="4.68659">
        <ele>401.57</ele>
        <time>2025-10-23T13:22:43.117Z</time>
      </trkpt>
      <trkpt lat="45.92245" lon="4.68662">
        <ele>401.1</ele>
        <time>2025-10-23T13:22:47.867Z</time>
      </trkpt>
      <trkpt lat="45.92253" lon="4.68664">
        <ele>400.61</ele>
        <time>2025-10-23T13:22:52.621Z</time>
      </trkpt>
      <trkpt lat="45.92263" lon="4.68666">
        <ele>400.11</ele>
        <time>2025-10-23T13:22:57.379Z</time>
      </trkpt>
      <trkpt lat="45.92273" lon="4.68668">
        <ele>399.61</ele>
        <time>2025-10-23T13:23:02.141Z</time>
      </trkpt>
      <trkpt lat="45.92281" lon="4.68671">
        <ele>399.1</ele>
        <time>2025-10-23T13:23:06.906Z</time>
      </trkpt>
      <trkpt lat="45.92288" lon="4.68673">
        <ele>398.57</ele>
        <time>2025-10-23T13:23:11.675Z</time>
      </trkpt>
      <trkpt lat="45.92301" lon="4.68677">
        <ele>398</ele>
        <time>2025-10-23T13:23:16.449Z</time>
      </trkpt>
      <trkpt lat="45.92304" lon="4.68678">
        <ele>397.45</ele>
        <time>2025-10-23T13:23:21.224Z</time>
      </trkpt>
      <trkpt lat="45.92307" lon="4.68678">
        <ele>396.88</ele>
        <time>2025-10-23T13:23:26.000Z</time>
      </trkpt>
      <trkpt lat="45.92325" lon="4.68683">
        <ele>396.25</ele>
        <time>2025-10-23T13:23:30.784Z</time>
      </trkpt>
      <trkpt lat="45.92338" lon="4.68688">
        <ele>395.61</ele>
        <time>2025-10-23T13:23:35.574Z</time>
      </trkpt>
      <trkpt lat="45.9234" lon="4.68689">
        <ele>394.99</ele>
        <time>2025-10-23T13:23:40.365Z</time>
      </trkpt>
      <trkpt lat="45.9235" lon="4.68686">
        <ele>394.35</ele>
        <time>2025-10-23T13:23:45.160Z</time>
      </trkpt>
      <trkpt lat="45.92355" lon="4.68682">
        <ele>393.72</ele>
        <time>2025-10-23T13:23:49.957Z</time>
      </trkpt>
      <trkpt lat="45.92362" lon="4.6868">
        <ele>393.04</ele>
        <time>2025-10-23T13:23:54.757Z</time>
      </trkpt>
      <trkpt lat="45.92364" lon="4.68681">
        <ele>392.39</ele>
        <time>2025-10-23T13:23:59.558Z</time>
      </trkpt>
      <trkpt lat="45.92365" lon="4.68686">
        <ele>391.73</ele>
        <time>2025-10-23T13:24:04.360Z</time>
      </trkpt>
      <trkpt lat="45.92365" lon="4.68688">
        <ele>391.07</ele>
        <time>2025-10-23T13:24:09.163Z</time>
      </trkpt>
      <trkpt lat="45.92365" lon="4.68703">
        <ele>390.37</ele>
        <time>2025-10-23T13:24:13.971Z</time>
      </trkpt>
      <trkpt lat="45.92364" lon="4.6872">
        <ele>389.64</ele>
        <time>2025-10-23T13:24:18.784Z</time>
      </trkpt>
      <trkpt lat="45.92364" lon="4.68741">
        <ele>388.9</ele>
        <time>2025-10-23T13:24:23.603Z</time>
      </trkpt>
      <trkpt lat="45.92365" lon="4.68751">
        <ele>388.17</ele>
        <time>2025-10-23T13:24:28.425Z</time>
      </trkpt>
      <trkpt lat="45.92365" lon="4.68764">
        <ele>387.42</ele>
        <time>2025-10-23T13:24:33.250Z</time>
      </trkpt>
      <trkpt lat="45.92366" lon="4.6878">
        <ele>386.65</ele>
        <time>2025-10-23T13:24:38.080Z</time>
      </trkpt>
      <trkpt lat="45.92367" lon="4.68784">
        <ele>385.96</ele>
        <time>2025-10-23T13:24:42.911Z</time>
      </trkpt>
      <trkpt lat="45.92367" lon="4.68787">
        <ele>385.28</ele>
        <time>2025-10-23T13:24:47.743Z</time>
      </trkpt>
      <trkpt lat="45.92368" lon="4.68799">
        <ele>384.55</ele>
        <time>2025-10-23T13:24:52.578Z</time>
      </trkpt>
      <trkpt lat="45.92369" lon="4.68803">
        <ele>383.88</ele>
        <time>2025-10-23T13:24:57.415Z</time>
      </trkpt>
      <trkpt lat="45.92371" lon="4.68807">
        <ele>383.23</ele>
        <time>2025-10-23T13:25:02.253Z</time>
      </trkpt>
      <trkpt lat="45.92373" lon="4.68818">
        <ele>382.56</ele>
        <time>2025-10-23T13:25:07.094Z</time>
      </trkpt>
      <trkpt lat="45.92375" lon="4.68829">
        <ele>381.91</ele>
        <time>2025-10-23T13:25:11.939Z</time>
      </trkpt>
      <trkpt lat="45.92376" lon="4.68833">
        <ele>381.32</ele>
        <time>2025-10-23T13:25:16.785Z</time>
      </trkpt>
      <trkpt lat="45.92377" lon="4.68851">
        <ele>380.68</ele>
        <time>2025-10-23T13:25:21.636Z</time>
      </trkpt>
      <trkpt lat="45.92378" lon="4.68854">
        <ele>380.13</ele>
        <time>2025-10-23T13:25:26.488Z</time>
      </trkpt>
      <trkpt lat="45.92379" lon="4.68859">
        <ele>379.57</ele>
        <time>2025-10-23T13:25:31.342Z</time>
      </trkpt>
      <trkpt lat="45.92381" lon="4.68861">
        <ele>379.05</ele>
        <time>2025-10-23T13:25:36.197Z</time>
      </trkpt>
      <trkpt lat="45.92382" lon="4.6886">
        <ele>378.56</ele>
        <time>2025-10-23T13:25:41.052Z</time>
      </trkpt>
      <trkpt lat="45.9239" lon="4.68845">
        <ele>378.11</ele>
        <time>2025-10-23T13:25:45.913Z</time>
      </trkpt>
      <trkpt lat="45.92399" lon="4.6883">
        <ele>377.68</ele>
        <time>2025-10-23T13:25:50.779Z</time>
      </trkpt>
      <trkpt lat="45.92401" lon="4.68831">
        <ele>377.22</ele>
        <time>2025-10-23T13:25:55.646Z</time>
      </trkpt>
      <trkpt lat="45.92414" lon="4.68837">
        <ele>376.69</ele>
        <time>2025-10-23T13:26:00.519Z</time>
      </trkpt>
      <trkpt lat="45.92419" lon="4.6884">
        <ele>376.22</ele>
        <time>2025-10-23T13:26:05.394Z</time>
      </trkpt>
      <trkpt lat="45.92421" lon="4.68844">
        <ele>375.76</ele>
        <time>2025-10-23T13:26:10.270Z</time>
      </trkpt>
      <trkpt lat="45.92421" lon="4.68847">
        <ele>375.33</ele>
        <time>2025-10-23T13:26:15.147Z</time>
      </trkpt>
      <trkpt lat="45.92415" lon="4.68859">
        <ele>374.88</ele>
        <time>2025-10-23T13:26:20.028Z</time>
      </trkpt>
      <trkpt lat="45.92411" lon="4.68864">
        <ele>374.45</ele>
        <time>2025-10-23T13:26:24.911Z</time>
      </trkpt>
      <trkpt lat="45.92404" lon="4.68872">
        <ele>374.01</ele>
        <time>2025-10-23T13:26:29.798Z</time>
      </trkpt>
      <trkpt lat="45.92402" lon="4.68874">
        <ele>373.58</ele>
        <time>2025-10-23T13:26:34.686Z</time>
      </trkpt>
      <trkpt lat="45.924" lon="4.68879">
        <ele>373.13</ele>
        <time>2025-10-23T13:26:39.576Z</time>
      </trkpt>
      <trkpt lat="45.92397" lon="4.68886">
        <ele>372.66</ele>
        <time>2025-10-23T13:26:44.468Z</time>
      </trkpt>
      <trkpt lat="45.92395" lon="4.68893">
        <ele>372.18</ele>
        <time>2025-10-23T13:26:49.363Z</time>
      </trkpt>
      <trkpt lat="45.92394" lon="4.68896">
        <ele>371.71</ele>
        <time>2025-10-23T13:26:54.258Z</time>
      </trkpt>
      <trkpt lat="45.924" lon="4.68901">
        <ele>371.19</ele>
        <time>2025-10-23T13:26:59.156Z</time>
      </trkpt>
      <trkpt lat="45.92402" lon="4.68903">
        <ele>370.69</ele>
        <time>2025-10-23T13:27:04.055Z</time>
      </trkpt>
      <trkpt lat="45.92405" lon="4.68905">
        <ele>370.18</ele>
        <time>2025-10-23T13:27:08.956Z</time>
      </trkpt>
      <trkpt lat="45.92414" lon="4.68914">
        <ele>369.61</ele>
        <time>2025-10-23T13:27:13.861Z</time>
      </trkpt>
      <trkpt lat="45.92423" lon="4.68921">
        <ele>369.04</ele>
        <time>2025-10-23T13:27:18.770Z</time>
      </trkpt>
      <trkpt lat="45.9243" lon="4.68927">
        <ele>368.46</ele>
        <time>2025-10-23T13:27:23.683Z</time>
      </trkpt>
      <trkpt lat="45.92435" lon="4.68929">
        <ele>367.86</ele>
        <time>2025-10-23T13:27:28.598Z</time>
      </trkpt>
      <trkpt lat="45.92441" lon="4.68933">
        <ele>367.24</ele>
        <time>2025-10-23T13:27:33.516Z</time>
      </trkpt>
      <trkpt lat="45.92444" lon="4.68935">
        <ele>366.63</ele>
        <time>2025-10-23T13:27:38.435Z</time>
      </trkpt>
      <trkpt lat="45.92447" lon="4.68937">
        <ele>366</ele>
        <time>2025-10-23T13:27:43.355Z</time>
      </trkpt>
      <trkpt lat="45.9245" lon="4.68939">
        <ele>365.36</ele>
        <time>2025-10-23T13:27:48.277Z</time>
      </trkpt>
      <trkpt lat="45.92453" lon="4.68941">
        <ele>364.71</ele>
        <time>2025-10-23T13:27:53.200Z</time>
      </trkpt>
      <trkpt lat="45.92458" lon="4.68944">
        <ele>364.03</ele>
        <time>2025-10-23T13:27:58.125Z</time>
      </trkpt>
      <trkpt lat="45.92461" lon="4.68945">
        <ele>363.35</ele>
        <time>2025-10-23T13:28:03.052Z</time>
      </trkpt>
      <trkpt lat="45.92463" lon="4.68946">
        <ele>362.66</ele>
        <time>2025-10-23T13:28:07.980Z</time>
      </trkpt>
      <trkpt lat="45.92466" lon="4.68948">
        <ele>361.96</ele>
        <time>2025-10-23T13:28:12.909Z</time>
      </trkpt>
      <trkpt lat="45.92474" lon="4.68953">
        <ele>361.22</ele>
        <time>2025-10-23T13:28:17.841Z</time>
      </trkpt>
      <trkpt lat="45.92481" lon="4.68957">
        <ele>360.48</ele>
        <time>2025-10-23T13:28:22.776Z</time>
      </trkpt>
      <trkpt lat="45.92488" lon="4.68962">
        <ele>359.73</ele>
        <time>2025-10-23T13:28:27.715Z</time>
      </trkpt>
      <trkpt lat="45.92495" lon="4.68965">
        <ele>358.98</ele>
        <time>2025-10-23T13:28:32.657Z</time>
      </trkpt>
      <trkpt lat="45.92498" lon="4.68967">
        <ele>358.25</ele>
        <time>2025-10-23T13:28:37.600Z</time>
      </trkpt>
      <trkpt lat="45.92504" lon="4.68971">
        <ele>357.51</ele>
        <time>2025-10-23T13:28:42.546Z</time>
      </trkpt>
      <trkpt lat="45.92506" lon="4.68972">
        <ele>356.8</ele>
        <time>2025-10-23T13:28:47.493Z</time>
      </trkpt>
      <trkpt lat="45.92516" lon="4.68976">
        <ele>356.04</ele>
        <time>2025-10-23T13:28:52.444Z</time>
      </trkpt>
      <trkpt lat="45.92519" lon="4.68976">
        <ele>355.34</ele>
        <time>2025-10-23T13:28:57.396Z</time>
      </trkpt>
      <trkpt lat="45.92524" lon="4.68978">
        <ele>354.64</ele>
        <time>2025-10-23T13:29:02.350Z</time>
      </trkpt>
      <trkpt lat="45.92529" lon="4.68982">
        <ele>353.95</ele>
        <time>2025-10-23T13:29:07.307Z</time>
      </trkpt>
      <trkpt lat="45.92531" lon="4.68984">
        <ele>353.28</ele>
        <time>2025-10-23T13:29:12.265Z</time>
      </trkpt>
      <trkpt lat="45.92535" lon="4.68988">
        <ele>352.63</ele>
        <time>2025-10-23T13:29:17.225Z</time>
      </trkpt>
      <trkpt lat="45.92538" lon="4.68993">
        <ele>351.99</ele>
        <time>2025-10-23T13:29:22.187Z</time>
      </trkpt>
      <trkpt lat="45.9254" lon="4.68996">
        <ele>351.38</ele>
        <time>2025-10-23T13:29:27.150Z</time>
      </trkpt>
      <trkpt lat="45.92544" lon="4.69002">
        <ele>350.78</ele>
        <time>2025-10-23T13:29:32.115Z</time>
      </trkpt>
      <trkpt lat="45.92548" lon="4.69014">
        <ele>350.18</ele>
        <time>2025-10-23T13:29:37.084Z</time>
      </trkpt>
      <trkpt lat="45.9255" lon="4.6902">
        <ele>349.62</ele>
        <time>2025-10-23T13:29:42.055Z</time>
      </trkpt>
      <trkpt lat="45.92553" lon="4.69027">
        <ele>349.07</ele>
        <time>2025-10-23T13:29:47.029Z</time>
      </trkpt>
      <trkpt lat="45.9256" lon="4.6904">
        <ele>348.51</ele>
        <time>2025-10-23T13:29:52.007Z</time>
      </trkpt>
      <trkpt lat="45.92562" lon="4.69046">
        <ele>348</ele>
        <time>2025-10-23T13:29:56.987Z</time>
      </trkpt>
      <trkpt lat="45.92567" lon="4.69055">
        <ele>347.49</ele>
        <time>2025-10-23T13:30:01.971Z</time>
      </trkpt>
      <trkpt lat="45.92569" lon="4.69057">
        <ele>347.04</ele>
        <time>2025-10-23T13:30:06.956Z</time>
      </trkpt>
      <trkpt lat="45.92573" lon="4.69064">
        <ele>346.58</ele>
        <time>2025-10-23T13:30:11.943Z</time>
      </trkpt>
      <trkpt lat="45.92576" lon="4.6907">
        <ele>346.15</ele>
        <time>2025-10-23T13:30:16.932Z</time>
      </trkpt>
      <trkpt lat="45.92581" lon="4.69081">
        <ele>345.71</ele>
        <time>2025-10-23T13:30:21.925Z</time>
      </trkpt>
      <trkpt lat="45.92587" lon="4.69089">
        <ele>345.3</ele>
        <time>2025-10-23T13:30:26.921Z</time>
      </trkpt>
      <trkpt lat="45.92592" lon="4.69096">
        <ele>344.93</ele>
        <time>2025-10-23T13:30:31.920Z</time>
      </trkpt>
      <trkpt lat="45.92601" lon="4.69109">
        <ele>344.58</ele>
        <time>2025-10-23T13:30:36.925Z</time>
      </trkpt>
      <trkpt lat="45.92603" lon="4.69116">
        <ele>344.26</ele>
        <time>2025-10-23T13:30:41.932Z</time>
      </trkpt>
      <trkpt lat="45.92608" lon="4.69129">
        <ele>343.94</ele>
        <time>2025-10-23T13:30:46.943Z</time>
      </trkpt>
      <trkpt lat="45.92611" lon="4.69135">
        <ele>343.64</ele>
        <time>2025-10-23T13:30:51.956Z</time>
      </trkpt>
      <trkpt lat="45.92612" lon="4.69138">
        <ele>343.34</ele>
        <time>2025-10-23T13:30:56.970Z</time>
      </trkpt>
      <trkpt lat="45.92614" lon="4.69141">
        <ele>343.04</ele>
        <time>2025-10-23T13:31:01.985Z</time>
      </trkpt>
      <trkpt lat="45.92622" lon="4.6915">
        <ele>342.75</ele>
        <time>2025-10-23T13:31:07.005Z</time>
      </trkpt>
      <trkpt lat="45.92624" lon="4.69152">
        <ele>342.45</ele>
        <time>2025-10-23T13:31:12.026Z</time>
      </trkpt>
      <trkpt lat="45.9263" lon="4.69166">
        <ele>342.13</ele>
        <time>2025-10-23T13:31:17.051Z</time>
      </trkpt>
      <trkpt lat="45.92632" lon="4.69171">
        <ele>341.8</ele>
        <time>2025-10-23T13:31:22.078Z</time>
      </trkpt>
      <trkpt lat="45.92638" lon="4.69181">
        <ele>341.44</ele>
        <time>2025-10-23T13:31:27.109Z</time>
      </trkpt>
      <trkpt lat="45.92642" lon="4.69185">
        <ele>341.07</ele>
        <time>2025-10-23T13:31:32.142Z</time>
      </trkpt>
      <trkpt lat="45.92644" lon="4.69187">
        <ele>340.69</ele>
        <time>2025-10-23T13:31:37.176Z</time>
      </trkpt>
      <trkpt lat="45.92652" lon="4.69194">
        <ele>340.26</ele>
        <time>2025-10-23T13:31:42.214Z</time>
      </trkpt>
      <trkpt lat="45.92656" lon="4.692">
        <ele>339.8</ele>
        <time>2025-10-23T13:31:47.254Z</time>
      </trkpt>
      <trkpt lat="45.9267" lon="4.69215">
        <ele>339.31</ele>
        <time>2025-10-23T13:31:52.301Z</time>
      </trkpt>
      <trkpt lat="45.92673" lon="4.69223">
        <ele>338.82</ele>
        <time>2025-10-23T13:31:57.351Z</time>
      </trkpt>
      <trkpt lat="45.92675" lon="4.69231">
        <ele>338.29</ele>
        <time>2025-10-23T13:32:02.403Z</time>
      </trkpt>
      <trkpt lat="45.92676" lon="4.69237">
        <ele>337.73</ele>
        <time>2025-10-23T13:32:07.457Z</time>
      </trkpt>
      <trkpt lat="45.92676" lon="4.69241">
        <ele>337.14</ele>
        <time>2025-10-23T13:32:12.512Z</time>
      </trkpt>
      <trkpt lat="45.92676" lon="4.69246">
        <ele>336.5</ele>
        <time>2025-10-23T13:32:17.569Z</time>
      </trkpt>
      <trkpt lat="45.92678" lon="4.69254">
        <ele>335.81</ele>
        <time>2025-10-23T13:32:22.628Z</time>
      </trkpt>
      <trkpt lat="45.92678" lon="4.69256">
        <ele>335.08</ele>
        <time>2025-10-23T13:32:27.688Z</time>
      </trkpt>
      <trkpt lat="45.92678" lon="4.69262">
        <ele>334.27</ele>
        <time>2025-10-23T13:32:32.750Z</time>
      </trkpt>
      <trkpt lat="45.92679" lon="4.69268">
        <ele>333.4</ele>
        <time>2025-10-23T13:32:37.813Z</time>
      </trkpt>
      <trkpt lat="45.9268" lon="4.69276">
        <ele>332.47</ele>
        <time>2025-10-23T13:32:42.879Z</time>
      </trkpt>
      <trkpt lat="45.92682" lon="4.69285">
        <ele>331.47</ele>
        <time>2025-10-23T13:32:47.947Z</time>
      </trkpt>
      <trkpt lat="45.92682" lon="4.69288">
        <ele>330.48</ele>
        <time>2025-10-23T13:32:53.016Z</time>
      </trkpt>
      <trkpt lat="45.92684" lon="4.69294">
        <ele>329.4</ele>
        <time>2025-10-23T13:32:58.087Z</time>
      </trkpt>
      <trkpt lat="45.92685" lon="4.69296">
        <ele>328.32</ele>
        <time>2025-10-23T13:33:03.159Z</time>
      </trkpt>
      <trkpt lat="45.92688" lon="4.69301">
        <ele>327.16</ele>
        <time>2025-10-23T13:33:08.233Z</time>
      </trkpt>
      <trkpt lat="45.92688" lon="4.69303">
        <ele>326.05</ele>
        <time>2025-10-23T13:33:13.308Z</time>
      </trkpt>
      <trkpt lat="45.92688" lon="4.69313">
        <ele>324.84</ele>
        <time>2025-10-23T13:33:18.385Z</time>
      </trkpt>
      <trkpt lat="45.92688" lon="4.69316">
        <ele>323.7</ele>
        <time>2025-10-23T13:33:23.463Z</time>
      </trkpt>
      <trkpt lat="45.92689" lon="4.6933">
        <ele>322.44</ele>
        <time>2025-10-23T13:33:28.545Z</time>
      </trkpt>
      <trkpt lat="45.92687" lon="4.69344">
        <ele>321.2</ele>
        <time>2025-10-23T13:33:33.631Z</time>
      </trkpt>
      <trkpt lat="45.92687" lon="4.69347">
        <ele>320.05</ele>
        <time>2025-10-23T13:33:38.718Z</time>
      </trkpt>
      <trkpt lat="45.92687" lon="4.69354">
        <ele>318.85</ele>
        <time>2025-10-23T13:33:43.807Z</time>
      </trkpt>
      <trkpt lat="45.92689" lon="4.69367">
        <ele>317.6</ele>
        <time>2025-10-23T13:33:48.900Z</time>
      </trkpt>
      <trkpt lat="45.92687" lon="4.69379">
        <ele>316.42</ele>
        <time>2025-10-23T13:33:53.996Z</time>
      </trkpt>
      <trkpt lat="45.92686" lon="4.69385">
        <ele>315.27</ele>
        <time>2025-10-23T13:33:59.094Z</time>
      </trkpt>
      <trkpt lat="45.92684" lon="4.69395">
        <ele>314.11</ele>
        <time>2025-10-23T13:34:04.195Z</time>
      </trkpt>
      <trkpt lat="45.92683" lon="4.69406">
        <ele>312.98</ele>
        <time>2025-10-23T13:34:09.299Z</time>
      </trkpt>
      <trkpt lat="45.92683" lon="4.69408">
        <ele>311.9</ele>
        <time>2025-10-23T13:34:14.404Z</time>
      </trkpt>
      <trkpt lat="45.92681" lon="4.69414">
        <ele>310.84</ele>
        <time>2025-10-23T13:34:19.511Z</time>
      </trkpt>
      <trkpt lat="45.9268" lon="4.6942">
        <ele>309.8</ele>
        <time>2025-10-23T13:34:24.620Z</time>
      </trkpt>
      <trkpt lat="45.92678" lon="4.6943">
        <ele>308.73</ele>
        <time>2025-10-23T13:34:29.732Z</time>
      </trkpt>
      <trkpt lat="45.92675" lon="4.69446">
        <ele>307.61</ele>
        <time>2025-10-23T13:34:34.849Z</time>
      </trkpt>
      <trkpt lat="45.92675" lon="4.69454">
        <ele>306.59</ele>
        <time>2025-10-23T13:34:39.968Z</time>
      </trkpt>
      <trkpt lat="45.92674" lon="4.69463">
        <ele>305.58</ele>
        <time>2025-10-23T13:34:45.090Z</time>
      </trkpt>
      <trkpt lat="45.92673" lon="4.69468">
        <ele>304.62</ele>
        <time>2025-10-23T13:34:50.213Z</time>
      </trkpt>
      <trkpt lat="45.9267" lon="4.69477">
        <ele>303.66</ele>
        <time>2025-10-23T13:34:55.339Z</time>
      </trkpt>
      <trkpt lat="45.9267" lon="4.69487">
        <ele>302.71</ele>
        <time>2025-10-23T13:35:00.468Z</time>
      </trkpt>
      <trkpt lat="45.9267" lon="4.69491">
        <ele>301.82</ele>
        <time>2025-10-23T13:35:05.598Z</time>
      </trkpt>
      <trkpt lat="45.92666" lon="4.69501">
        <ele>300.9</ele>
        <time>2025-10-23T13:35:10.731Z</time>
      </trkpt>
      <trkpt lat="45.92664" lon="4.69511">
        <ele>300.02</ele>
        <time>2025-10-23T13:35:15.867Z</time>
      </trkpt>
      <trkpt lat="45.92664" lon="4.69513">
        <ele>299.2</ele>
        <time>2025-10-23T13:35:21.004Z</time>
      </trkpt>
      <trkpt lat="45.92662" lon="4.69525">
        <ele>298.36</ele>
        <time>2025-10-23T13:35:26.144Z</time>
      </trkpt>
      <trkpt lat="45.92661" lon="4.69534">
        <ele>297.55</ele>
        <time>2025-10-23T13:35:31.287Z</time>
      </trkpt>
      <trkpt lat="45.9266" lon="4.69541">
        <ele>296.77</ele>
        <time>2025-10-23T13:35:36.432Z</time>
      </trkpt>
      <trkpt lat="45.92659" lon="4.69551">
        <ele>295.99</ele>
        <time>2025-10-23T13:35:41.580Z</time>
      </trkpt>
      <trkpt lat="45.92657" lon="4.69562">
        <ele>295.22</ele>
        <time>2025-10-23T13:35:46.731Z</time>
      </trkpt>
      <trkpt lat="45.92655" lon="4.69569">
        <ele>294.45</ele>
        <time>2025-10-23T13:35:51.885Z</time>
      </trkpt>
      <trkpt lat="45.92655" lon="4.69579">
        <ele>293.69</ele>
        <time>2025-10-23T13:35:57.041Z</time>
      </trkpt>
      <trkpt lat="45.92653" lon="4.6959">
        <ele>292.95</ele>
        <time>2025-10-23T13:36:02.200Z</time>
      </trkpt>
      <trkpt lat="45.92652" lon="4.696">
        <ele>292.23</ele>
        <time>2025-10-23T13:36:07.363Z</time>
      </trkpt>
      <trkpt lat="45.92652" lon="4.69603">
        <ele>291.57</ele>
        <time>2025-10-23T13:36:12.526Z</time>
      </trkpt>
      <trkpt lat="45.92649" lon="4.69615">
        <ele>290.87</ele>
        <time>2025-10-23T13:36:17.693Z</time>
      </trkpt>
      <trkpt lat="45.92648" lon="4.69623">
        <ele>290.23</ele>
        <time>2025-10-23T13:36:22.862Z</time>
      </trkpt>
      <trkpt lat="45.92645" lon="4.69627">
        <ele>289.6</ele>
        <time>2025-10-23T13:36:28.033Z</time>
      </trkpt>
      <trkpt lat="45.92642" lon="4.69629">
        <ele>289</ele>
        <time>2025-10-23T13:36:33.205Z</time>
      </trkpt>
      <trkpt lat="45.92636" lon="4.69632">
        <ele>288.39</ele>
        <time>2025-10-23T13:36:38.380Z</time>
      </trkpt>
      <trkpt lat="45.92618" lon="4.6964">
        <ele>287.77</ele>
        <time>2025-10-23T13:36:43.563Z</time>
      </trkpt>
      <trkpt lat="45.92614" lon="4.69641">
        <ele>287.17</ele>
        <time>2025-10-23T13:36:48.747Z</time>
      </trkpt>
      <trkpt lat="45.92609" lon="4.69643">
        <ele>286.58</ele>
        <time>2025-10-23T13:36:53.934Z</time>
      </trkpt>
      <trkpt lat="45.92606" lon="4.69647">
        <ele>285.98</ele>
        <time>2025-10-23T13:36:59.122Z</time>
      </trkpt>
      <trkpt lat="45.926" lon="4.69661">
        <ele>285.35</ele>
        <time>2025-10-23T13:37:04.315Z</time>
      </trkpt>
      <trkpt lat="45.92597" lon="4.6967">
        <ele>284.73</ele>
        <time>2025-10-23T13:37:09.511Z</time>
      </trkpt>
      <trkpt lat="45.92597" lon="4.69677">
        <ele>284.11</ele>
        <time>2025-10-23T13:37:14.709Z</time>
      </trkpt>
      <trkpt lat="45.92596" lon="4.69685">
        <ele>283.49</ele>
        <time>2025-10-23T13:37:19.909Z</time>
      </trkpt>
      <trkpt lat="45.92595" lon="4.69692">
        <ele>282.86</ele>
        <time>2025-10-23T13:37:25.111Z</time>
      </trkpt>
      <trkpt lat="45.92595" lon="4.69697">
        <ele>282.24</ele>
        <time>2025-10-23T13:37:30.315Z</time>
      </trkpt>
      <trkpt lat="45.92593" lon="4.69711">
        <ele>281.55</ele>
        <time>2025-10-23T13:37:35.523Z</time>
      </trkpt>
      <trkpt lat="45.9259" lon="4.69722">
        <ele>280.87</ele>
        <time>2025-10-23T13:37:40.734Z</time>
      </trkpt>
      <trkpt lat="45.92587" lon="4.69727">
        <ele>280.22</ele>
        <time>2025-10-23T13:37:45.947Z</time>
      </trkpt>
      <trkpt lat="45.92579" lon="4.69741">
        <ele>279.52</ele>
        <time>2025-10-23T13:37:51.166Z</time>
      </trkpt>
      <trkpt lat="45.92574" lon="4.6975">
        <ele>278.81</ele>
        <time>2025-10-23T13:37:56.388Z</time>
      </trkpt>
      <trkpt lat="45.92571" lon="4.69756">
        <ele>278.12</ele>
        <time>2025-10-23T13:38:01.612Z</time>
      </trkpt>
      <trkpt lat="45.92566" lon="4.69767">
        <ele>277.42</ele>
        <time>2025-10-23T13:38:06.840Z</time>
      </trkpt>
      <trkpt lat="45.92561" lon="4.69777">
        <ele>276.72</ele>
        <time>2025-10-23T13:38:12.071Z</time>
      </trkpt>
      <trkpt lat="45.92559" lon="4.69783">
        <ele>276.02</ele>
        <time>2025-10-23T13:38:17.304Z</time>
      </trkpt>
      <trkpt lat="45.92558" lon="4.69786">
        <ele>275.3</ele>
        <time>2025-10-23T13:38:22.538Z</time>
      </trkpt>
      <trkpt lat="45.92555" lon="4.69796">
        <ele>274.55</ele>
        <time>2025-10-23T13:38:27.775Z</time>
      </trkpt>
      <trkpt lat="45.92554" lon="4.698">
        <ele>273.81</ele>
        <time>2025-10-23T13:38:33.013Z</time>
      </trkpt>
      <trkpt lat="45.92554" lon="4.6982">
        <ele>272.98</ele>
        <time>2025-10-23T13:38:38.257Z</time>
      </trkpt>
      <trkpt lat="45.92554" lon="4.69826">
        <ele>272.19</ele>
        <time>2025-10-23T13:38:43.503Z</time>
      </trkpt>
      <trkpt lat="45.92555" lon="4.69836">
        <ele>271.4</ele>
        <time>2025-10-23T13:38:48.752Z</time>
      </trkpt>
      <trkpt lat="45.92555" lon="4.69851">
        <ele>270.57</ele>
        <time>2025-10-23T13:38:54.005Z</time>
      </trkpt>
      <trkpt lat="45.92555" lon="4.69855">
        <ele>269.77</ele>
        <time>2025-10-23T13:38:59.259Z</time>
      </trkpt>
      <trkpt lat="45.92555" lon="4.69868">
        <ele>268.9</ele>
        <time>2025-10-23T13:39:04.517Z</time>
      </trkpt>
      <trkpt lat="45.92555" lon="4.69875">
        <ele>268.06</ele>
        <time>2025-10-23T13:39:09.777Z</time>
      </trkpt>
      <trkpt lat="45.92555" lon="4.69878">
        <ele>267.23</ele>
        <time>2025-10-23T13:39:15.038Z</time>
      </trkpt>
      <trkpt lat="45.92555" lon="4.69886">
        <ele>266.37</ele>
        <time>2025-10-23T13:39:20.301Z</time>
      </trkpt>
      <trkpt lat="45.92555" lon="4.699">
        <ele>265.47</ele>
        <time>2025-10-23T13:39:25.568Z</time>
      </trkpt>
      <trkpt lat="45.92554" lon="4.69906">
        <ele>264.61</ele>
        <time>2025-10-23T13:39:30.837Z</time>
      </trkpt>
      <trkpt lat="45.92554" lon="4.69914">
        <ele>263.73</ele>
        <time>2025-10-23T13:39:36.108Z</time>
      </trkpt>
      <trkpt lat="45.92554" lon="4.69932">
        <ele>262.8</ele>
        <time>2025-10-23T13:39:41.385Z</time>
      </trkpt>
      <trkpt lat="45.92555" lon="4.69946">
        <ele>261.92</ele>
        <time>2025-10-23T13:39:46.666Z</time>
      </trkpt>
      <trkpt lat="45.92556" lon="4.69961">
        <ele>261.07</ele>
        <time>2025-10-23T13:39:51.951Z</time>
      </trkpt>
      <trkpt lat="45.92558" lon="4.69977">
        <ele>260.23</ele>
        <time>2025-10-23T13:39:57.241Z</time>
      </trkpt>
      <trkpt lat="45.92558" lon="4.69984">
        <ele>259.41</ele>
        <time>2025-10-23T13:40:02.533Z</time>
      </trkpt>
      <trkpt lat="45.92558" lon="4.7">
        <ele>258.59</ele>
        <time>2025-10-23T13:40:07.830Z</time>
      </trkpt>
      <trkpt lat="45.92557" lon="4.70003">
        <ele>257.81</ele>
        <time>2025-10-23T13:40:13.127Z</time>
      </trkpt>
      <trkpt lat="45.92555" lon="4.70023">
        <ele>257.01</ele>
        <time>2025-10-23T13:40:18.430Z</time>
      </trkpt>
      <trkpt lat="45.92555" lon="4.70027">
        <ele>256.24</ele>
        <time>2025-10-23T13:40:23.734Z</time>
      </trkpt>
      <trkpt lat="45.92554" lon="4.70033">
        <ele>255.47</ele>
        <time>2025-10-23T13:40:29.040Z</time>
      </trkpt>
      <trkpt lat="45.92554" lon="4.70036">
        <ele>254.73</ele>
        <time>2025-10-23T13:40:34.347Z</time>
      </trkpt>
      <trkpt lat="45.92552" lon="4.70051">
        <ele>253.96</ele>
        <time>2025-10-23T13:40:39.658Z</time>
      </trkpt>
      <trkpt lat="45.92552" lon="4.7006">
        <ele>253.23</ele>
        <time>2025-10-23T13:40:44.972Z</time>
      </trkpt>
      <trkpt lat="45.92551" lon="4.70067">
        <ele>252.52</ele>
        <time>2025-10-23T13:40:50.288Z</time>
      </trkpt>
      <trkpt lat="45.92551" lon="4.7007">
        <ele>251.85</ele>
        <time>2025-10-23T13:40:55.605Z</time>
      </trkpt>
      <trkpt lat="45.9255" lon="4.70077">
        <ele>251.18</ele>
        <time>2025-10-23T13:41:00.924Z</time>
      </trkpt>
      <trkpt lat="45.92549" lon="4.70087">
        <ele>250.51</ele>
        <time>2025-10-23T13:41:06.246Z</time>
      </trkpt>
      <trkpt lat="45.92548" lon="4.70102">
        <ele>249.83</ele>
        <time>2025-10-23T13:41:11.572Z</time>
      </trkpt>
      <trkpt lat="45.92547" lon="4.70116">
        <ele>249.2</ele>
        <time>2025-10-23T13:41:16.902Z</time>
      </trkpt>
      <trkpt lat="45.92546" lon="4.70134">
        <ele>248.57</ele>
        <time>2025-10-23T13:41:22.238Z</time>
      </trkpt>
      <trkpt lat="45.92546" lon="4.70144">
        <ele>248.01</ele>
        <time>2025-10-23T13:41:27.577Z</time>
      </trkpt>
      <trkpt lat="45.92545" lon="4.70155">
        <ele>247.46</ele>
        <time>2025-10-23T13:41:32.919Z</time>
      </trkpt>
      <trkpt lat="45.92544" lon="4.70163">
        <ele>246.96</ele>
        <time>2025-10-23T13:41:38.263Z</time>
      </trkpt>
      <trkpt lat="45.92544" lon="4.70177">
        <ele>246.48</ele>
        <time>2025-10-23T13:41:43.611Z</time>
      </trkpt>
      <trkpt lat="45.92543" lon="4.70188">
        <ele>246.06</ele>
        <time>2025-10-23T13:41:48.962Z</time>
      </trkpt>
      <trkpt lat="45.92543" lon="4.70197">
        <ele>245.67</ele>
        <time>2025-10-23T13:41:54.316Z</time>
      </trkpt>
      <trkpt lat="45.92543" lon="4.70204">
        <ele>245.33</ele>
        <time>2025-10-23T13:41:59.672Z</time>
      </trkpt>
      <trkpt lat="45.92545" lon="4.70208">
        <ele>245.02</ele>
        <time>2025-10-23T13:42:05.029Z</time>
      </trkpt>
      <trkpt lat="45.92549" lon="4.70216">
        <ele>244.75</ele>
        <time>2025-10-23T13:42:10.389Z</time>
      </trkpt>
      <trkpt lat="45.92551" lon="4.70227">
        <ele>244.5</ele>
        <time>2025-10-23T13:42:15.753Z</time>
      </trkpt>
      <trkpt lat="45.92545" lon="4.70233">
        <ele>244.29</ele>
        <time>2025-10-23T13:42:21.120Z</time>
      </trkpt>
      <trkpt lat="45.92529" lon="4.70235">
        <ele>244.09</ele>
        <time>2025-10-23T13:42:26.493Z</time>
      </trkpt>
      <trkpt lat="45.92522" lon="4.70234">
        <ele>243.95</ele>
        <time>2025-10-23T13:42:31.869Z</time>
      </trkpt>
      <trkpt lat="45.92515" lon="4.70233">
        <ele>243.84</ele>
        <time>2025-10-23T13:42:37.248Z</time>
      </trkpt>
      <trkpt lat="45.92496" lon="4.70231">
        <ele>243.76</ele>
        <time>2025-10-23T13:42:42.635Z</time>
      </trkpt>
      <trkpt lat="45.92478" lon="4.7023">
        <ele>243.72</ele>
        <time>2025-10-23T13:42:48.030Z</time>
      </trkpt>
      <trkpt lat="45.92463" lon="4.70226">
        <ele>243.71</ele>
        <time>2025-10-23T13:42:53.431Z</time>
      </trkpt>
      <trkpt lat="45.92458" lon="4.70226">
        <ele>243.71</ele>
        <time>2025-10-23T13:42:58.834Z</time>
      </trkpt>
      <trkpt lat="45.92448" lon="4.70224">
        <ele>243.73</ele>
        <time>2025-10-23T13:43:04.241Z</time>
      </trkpt>
      <trkpt lat="45.92445" lon="4.70223">
        <ele>243.76</ele>
        <time>2025-10-23T13:43:09.649Z</time>
      </trkpt>
      <trkpt lat="45.92442" lon="4.70222">
        <ele>243.8</ele>
        <time>2025-10-23T13:43:15.059Z</time>
      </trkpt>
      <trkpt lat="45.92431" lon="4.70219">
        <ele>243.85</ele>
        <time>2025-10-23T13:43:20.473Z</time>
      </trkpt>
      <trkpt lat="45.92422" lon="4.70216">
        <ele>243.9</ele>
        <time>2025-10-23T13:43:25.891Z</time>
      </trkpt>
      <trkpt lat="45.92411" lon="4.70211">
        <ele>243.95</ele>
        <time>2025-10-23T13:43:31.314Z</time>
      </trkpt>
      <trkpt lat="45.92407" lon="4.70209">
        <ele>244.01</ele>
        <time>2025-10-23T13:43:36.739Z</time>
      </trkpt>
      <trkpt lat="45.92393" lon="4.70204">
        <ele>244.05</ele>
        <time>2025-10-23T13:43:42.170Z</time>
      </trkpt>
      <trkpt lat="45.92376" lon="4.70198">
        <ele>244.11</ele>
        <time>2025-10-23T13:43:47.608Z</time>
      </trkpt>
      <trkpt lat="45.92374" lon="4.70198">
        <ele>244.16</ele>
        <time>2025-10-23T13:43:53.047Z</time>
      </trkpt>
      <trkpt lat="45.92355" lon="4.70195">
        <ele>244.19</ele>
        <time>2025-10-23T13:43:58.494Z</time>
      </trkpt>
      <trkpt lat="45.9235" lon="4.70194">
        <ele>244.21</ele>
        <time>2025-10-23T13:44:03.943Z</time>
      </trkpt>
      <trkpt lat="45.92337" lon="4.7019">
        <ele>244.21</ele>
        <time>2025-10-23T13:44:09.397Z</time>
      </trkpt>
      <trkpt lat="45.92318" lon="4.70186">
        <ele>244.17</ele>
        <time>2025-10-23T13:44:14.859Z</time>
      </trkpt>
      <trkpt lat="45.92316" lon="4.70185">
        <ele>244.12</ele>
        <time>2025-10-23T13:44:20.322Z</time>
      </trkpt>
      <trkpt lat="45.92299" lon="4.70173">
        <ele>244.06</ele>
        <time>2025-10-23T13:44:25.793Z</time>
      </trkpt>
      <trkpt lat="45.92294" lon="4.7017">
        <ele>243.95</ele>
        <time>2025-10-23T13:44:31.266Z</time>
      </trkpt>
      <trkpt lat="45.92292" lon="4.70168">
        <ele>243.81</ele>
        <time>2025-10-23T13:44:36.740Z</time>
      </trkpt>
      <trkpt lat="45.92279" lon="4.7016">
        <ele>243.63</ele>
        <time>2025-10-23T13:44:42.220Z</time>
      </trkpt>
      <trkpt lat="45.92277" lon="4.70161">
        <ele>243.4</ele>
        <time>2025-10-23T13:44:47.701Z</time>
      </trkpt>
      <trkpt lat="45.92275" lon="4.70162">
        <ele>243.12</ele>
        <time>2025-10-23T13:44:53.183Z</time>
      </trkpt>
      <trkpt lat="45.92273" lon="4.70165">
        <ele>242.8</ele>
        <time>2025-10-23T13:44:58.666Z</time>
      </trkpt>
      <trkpt lat="45.92265" lon="4.70173">
        <ele>242.38</ele>
        <time>2025-10-23T13:45:04.153Z</time>
      </trkpt>
      <trkpt lat="45.92256" lon="4.70179">
        <ele>241.97</ele>
        <time>2025-10-23T13:45:09.644Z</time>
      </trkpt>
      <trkpt lat="45.92239" lon="4.7019">
        <ele>241.49</ele>
        <time>2025-10-23T13:45:15.143Z</time>
      </trkpt>
      <trkpt lat="45.92238" lon="4.70192">
        <ele>241</ele>
        <time>2025-10-23T13:45:20.643Z</time>
      </trkpt>
      <trkpt lat="45.92237" lon="4.70194">
        <ele>240.46</ele>
        <time>2025-10-23T13:45:26.143Z</time>
      </trkpt>
      <trkpt lat="45.92238" lon="4.70197">
        <ele>239.88</ele>
        <time>2025-10-23T13:45:31.644Z</time>
      </trkpt>
      <trkpt lat="45.92239" lon="4.70203">
        <ele>239.24</ele>
        <time>2025-10-23T13:45:37.147Z</time>
      </trkpt>
      <trkpt lat="45.92239" lon="4.7021">
        <ele>238.57</ele>
        <time>2025-10-23T13:45:42.652Z</time>
      </trkpt>
      <trkpt lat="45.92238" lon="4.70218">
        <ele>237.85</ele>
        <time>2025-10-23T13:45:48.160Z</time>
      </trkpt>
      <trkpt lat="45.92238" lon="4.70225">
        <ele>237.11</ele>
        <time>2025-10-23T13:45:53.670Z</time>
      </trkpt>
      <trkpt lat="45.92237" lon="4.70229">
        <ele>236.33</ele>
        <time>2025-10-23T13:45:59.181Z</time>
      </trkpt>
      <trkpt lat="45.92237" lon="4.70238">
        <ele>235.49</ele>
        <time>2025-10-23T13:46:04.694Z</time>
      </trkpt>
      <trkpt lat="45.92236" lon="4.70247">
        <ele>234.61</ele>
        <time>2025-10-23T13:46:10.210Z</time>
      </trkpt>
      <trkpt lat="45.92236" lon="4.7025">
        <ele>233.74</ele>
        <time>2025-10-23T13:46:15.727Z</time>
      </trkpt>
      <trkpt lat="45.92235" lon="4.70257">
        <ele>232.81</ele>
        <time>2025-10-23T13:46:21.246Z</time>
      </trkpt>
      <trkpt lat="45.92235" lon="4.70263">
        <ele>231.87</ele>
        <time>2025-10-23T13:46:26.767Z</time>
      </trkpt>
      <trkpt lat="45.92237" lon="4.70275">
        <ele>230.87</ele>
        <time>2025-10-23T13:46:32.291Z</time>
      </trkpt>
      <trkpt lat="45.92238" lon="4.70278">
        <ele>229.9</ele>
        <time>2025-10-23T13:46:37.816Z</time>
      </trkpt>
      <trkpt lat="45.92241" lon="4.70283">
        <ele>228.9</ele>
        <time>2025-10-23T13:46:43.343Z</time>
      </trkpt>
      <trkpt lat="45.92246" lon="4.7029">
        <ele>227.88</ele>
        <time>2025-10-23T13:46:48.873Z</time>
      </trkpt>
      <trkpt lat="45.92249" lon="4.70293">
        <ele>226.88</ele>
        <time>2025-10-23T13:46:54.405Z</time>
      </trkpt>
      <trkpt lat="45.92253" lon="4.70297">
        <ele>225.87</ele>
        <time>2025-10-23T13:46:59.938Z</time>
      </trkpt>
      <trkpt lat="45.92259" lon="4.70306">
        <ele>224.83</ele>
        <time>2025-10-23T13:47:05.475Z</time>
      </trkpt>
      <trkpt lat="45.92261" lon="4.70309">
        <ele>223.82</ele>
        <time>2025-10-23T13:47:11.013Z</time>
      </trkpt>
      <trkpt lat="45.92266" lon="4.70319">
        <ele>222.78</ele>
        <time>2025-10-23T13:47:16.555Z</time>
      </trkpt>
      <trkpt lat="45.9227" lon="4.70328">
        <ele>221.76</ele>
        <time>2025-10-23T13:47:22.100Z</time>
      </trkpt>
      <trkpt lat="45.9227" lon="4.70331">
        <ele>220.79</ele>
        <time>2025-10-23T13:47:27.646Z</time>
      </trkpt>
      <trkpt lat="45.92272" lon="4.70341">
        <ele>219.8</ele>
        <time>2025-10-23T13:47:33.195Z</time>
      </trkpt>
      <trkpt lat="45.92272" lon="4.70345">
        <ele>218.9</ele>
        <time>2025-10-23T13:47:38.745Z</time>
      </trkpt>
      <trkpt lat="45.92273" lon="4.70347">
        <ele>218.04</ele>
        <time>2025-10-23T13:47:44.296Z</time>
      </trkpt>
      <trkpt lat="45.92274" lon="4.70357">
        <ele>217.17</ele>
        <time>2025-10-23T13:47:49.849Z</time>
      </trkpt>
      <trkpt lat="45.92275" lon="4.70363">
        <ele>216.37</ele>
        <time>2025-10-23T13:47:55.404Z</time>
      </trkpt>
      <trkpt lat="45.92275" lon="4.70367">
        <ele>215.65</ele>
        <time>2025-10-23T13:48:00.960Z</time>
      </trkpt>
      <trkpt lat="45.92275" lon="4.70373">
        <ele>214.97</ele>
        <time>2025-10-23T13:48:06.518Z</time>
      </trkpt>
      <trkpt lat="45.92276" lon="4.70384">
        <ele>214.32</ele>
        <time>2025-10-23T13:48:12.079Z</time>
      </trkpt>
      <trkpt lat="45.92276" lon="4.70388">
        <ele>213.82</ele>
        <time>2025-10-23T13:48:17.642Z</time>
      </trkpt>
      <trkpt lat="45.92275" lon="4.70391">
        <ele>213.4</ele>
        <time>2025-10-23T13:48:23.206Z</time>
      </trkpt>
      <trkpt lat="45.92273" lon="4.70394">
        <ele>213.06</ele>
        <time>2025-10-23T13:48:28.771Z</time>
      </trkpt>
      <trkpt lat="45.92271" lon="4.70395">
        <ele>212.82</ele>
        <time>2025-10-23T13:48:34.337Z</time>
      </trkpt>
      <trkpt lat="45.92269" lon="4.70395">
        <ele>212.67</ele>
        <time>2025-10-23T13:48:39.903Z</time>
      </trkpt>
      <trkpt lat="45.92253" lon="4.70393">
        <ele>212.62</ele>
        <time>2025-10-23T13:48:45.476Z</time>
      </trkpt>
      <trkpt lat="45.92235" lon="4.7039">
        <ele>212.71</ele>
        <time>2025-10-23T13:48:51.057Z</time>
      </trkpt>
      <trkpt lat="45.92224" lon="4.70386">
        <ele>212.8</ele>
        <time>2025-10-23T13:48:56.642Z</time>
      </trkpt>
      <trkpt lat="45.92208" lon="4.70379">
        <ele>212.97</ele>
        <time>2025-10-23T13:49:02.234Z</time>
      </trkpt>
      <trkpt lat="45.92201" lon="4.70376">
        <ele>213.23</ele>
        <time>2025-10-23T13:49:07.829Z</time>
      </trkpt>
      <trkpt lat="45.92191" lon="4.70371">
        <ele>213.58</ele>
        <time>2025-10-23T13:49:13.429Z</time>
      </trkpt>
      <trkpt lat="45.92178" lon="4.70364">
        <ele>213.99</ele>
        <time>2025-10-23T13:49:19.034Z</time>
      </trkpt>
      <trkpt lat="45.92172" lon="4.7036">
        <ele>214.47</ele>
        <time>2025-10-23T13:49:24.642Z</time>
      </trkpt>
      <trkpt lat="45.9217" lon="4.7036">
        <ele>214.98</ele>
        <time>2025-10-23T13:49:30.251Z</time>
      </trkpt>
      <trkpt lat="45.92156" lon="4.70348">
        <ele>215.6</ele>
        <time>2025-10-23T13:49:35.867Z</time>
      </trkpt>
      <trkpt lat="45.92142" lon="4.70335">
        <ele>216.26</ele>
        <time>2025-10-23T13:49:41.489Z</time>
      </trkpt>
      <trkpt lat="45.92135" lon="4.70327">
        <ele>216.92</ele>
        <time>2025-10-23T13:49:47.115Z</time>
      </trkpt>
      <trkpt lat="45.92129" lon="4.7032">
        <ele>217.59</ele>
        <time>2025-10-23T13:49:52.745Z</time>
      </trkpt>
      <trkpt lat="45.92127" lon="4.70318">
        <ele>218.24</ele>
        <time>2025-10-23T13:49:58.375Z</time>
      </trkpt>
      <trkpt lat="45.9212" lon="4.70312">
        <ele>218.92</ele>
        <time>2025-10-23T13:50:04.009Z</time>
      </trkpt>
      <trkpt lat="45.92116" lon="4.70308">
        <ele>219.6</ele>
        <time>2025-10-23T13:50:09.645Z</time>
      </trkpt>
      <trkpt lat="45.92107" lon="4.70298">
        <ele>220.32</ele>
        <time>2025-10-23T13:50:15.285Z</time>
      </trkpt>
      <trkpt lat="45.92105" lon="4.70297">
        <ele>220.94</ele>
        <time>2025-10-23T13:50:20.926Z</time>
      </trkpt>
      <trkpt lat="45.921" lon="4.70291">
        <ele>221.59</ele>
        <time>2025-10-23T13:50:26.570Z</time>
      </trkpt>
      <trkpt lat="45.92097" lon="4.7029">
        <ele>222.13</ele>
        <time>2025-10-23T13:50:32.215Z</time>
      </trkpt>
      <trkpt lat="45.92083" lon="4.70286">
        <ele>222.67</ele>
        <time>2025-10-23T13:50:37.866Z</time>
      </trkpt>
      <trkpt lat="45.92074" lon="4.70281">
        <ele>223.17</ele>
        <time>2025-10-23T13:50:43.522Z</time>
      </trkpt>
      <trkpt lat="45.92071" lon="4.70281">
        <ele>223.57</ele>
        <time>2025-10-23T13:50:49.179Z</time>
      </trkpt>
      <trkpt lat="45.92056" lon="4.70279">
        <ele>223.95</ele>
        <time>2025-10-23T13:50:54.842Z</time>
      </trkpt>
      <trkpt lat="45.92047" lon="4.70275">
        <ele>224.28</ele>
        <time>2025-10-23T13:51:00.509Z</time>
      </trkpt>
      <trkpt lat="45.92038" lon="4.70275">
        <ele>224.53</ele>
        <time>2025-10-23T13:51:06.179Z</time>
      </trkpt>
      <trkpt lat="45.92021" lon="4.70273">
        <ele>224.68</ele>
        <time>2025-10-23T13:51:11.857Z</time>
      </trkpt>
      <trkpt lat="45.92015" lon="4.70274">
        <ele>224.76</ele>
        <time>2025-10-23T13:51:17.537Z</time>
      </trkpt>
      <trkpt lat="45.92011" lon="4.70275">
        <ele>224.79</ele>
        <time>2025-10-23T13:51:23.219Z</time>
      </trkpt>
      <trkpt lat="45.92007" lon="4.70277">
        <ele>224.75</ele>
        <time>2025-10-23T13:51:28.903Z</time>
      </trkpt>
      <trkpt lat="45.91999" lon="4.7028">
        <ele>224.65</ele>
        <time>2025-10-23T13:51:34.590Z</time>
      </trkpt>
      <trkpt lat="45.91997" lon="4.70281">
        <ele>224.53</ele>
        <time>2025-10-23T13:51:40.278Z</time>
      </trkpt>
      <trkpt lat="45.91989" lon="4.70288">
        <ele>224.31</ele>
        <time>2025-10-23T13:51:45.970Z</time>
      </trkpt>
      <trkpt lat="45.91987" lon="4.7029">
        <ele>224.1</ele>
        <time>2025-10-23T13:51:51.663Z</time>
      </trkpt>
      <trkpt lat="45.91984" lon="4.703">
        <ele>223.79</ele>
        <time>2025-10-23T13:51:57.359Z</time>
      </trkpt>
      <trkpt lat="45.91978" lon="4.70309">
        <ele>223.47</ele>
        <time>2025-10-23T13:52:03.059Z</time>
      </trkpt>
      <trkpt lat="45.91975" lon="4.70309">
        <ele>223.2</ele>
        <time>2025-10-23T13:52:08.760Z</time>
      </trkpt>
      <trkpt lat="45.91967" lon="4.70308">
        <ele>222.91</ele>
        <time>2025-10-23T13:52:14.464Z</time>
      </trkpt>
      <trkpt lat="45.91953" lon="4.70302">
        <ele>222.64</ele>
        <time>2025-10-23T13:52:20.174Z</time>
      </trkpt>
      <trkpt lat="45.91937" lon="4.70296">
        <ele>222.38</ele>
        <time>2025-10-23T13:52:25.891Z</time>
      </trkpt>
      <trkpt lat="45.91919" lon="4.70301">
        <ele>222</ele>
        <time>2025-10-23T13:52:31.616Z</time>
      </trkpt>
      <trkpt lat="45.91911" lon="4.70303">
        <ele>221.65</ele>
        <time>2025-10-23T13:52:37.344Z</time>
      </trkpt>
      <trkpt lat="45.91902" lon="4.70305">
        <ele>221.3</ele>
        <time>2025-10-23T13:52:43.076Z</time>
      </trkpt>
      <trkpt lat="45.91884" lon="4.70307">
        <ele>220.92</ele>
        <time>2025-10-23T13:52:48.815Z</time>
      </trkpt>
      <trkpt lat="45.91882" lon="4.70307">
        <ele>220.64</ele>
        <time>2025-10-23T13:52:54.555Z</time>
      </trkpt>
      <trkpt lat="45.91865" lon="4.70303">
        <ele>220.35</ele>
        <time>2025-10-23T13:53:00.302Z</time>
      </trkpt>
      <trkpt lat="45.91847" lon="4.70302">
        <ele>220.09</ele>
        <time>2025-10-23T13:53:06.057Z</time>
      </trkpt>
      <trkpt lat="45.91831" lon="4.703">
        <ele>219.85</ele>
        <time>2025-10-23T13:53:11.818Z</time>
      </trkpt>
      <trkpt lat="45.91829" lon="4.70298">
        <ele>219.65</ele>
        <time>2025-10-23T13:53:17.580Z</time>
      </trkpt>
      <trkpt lat="45.91827" lon="4.70296">
        <ele>219.48</ele>
        <time>2025-10-23T13:53:23.343Z</time>
      </trkpt>
      <trkpt lat="45.91818" lon="4.70288">
        <ele>219.33</ele>
        <time>2025-10-23T13:53:29.111Z</time>
      </trkpt>
      <trkpt lat="45.91807" lon="4.70275">
        <ele>219.24</ele>
        <time>2025-10-23T13:53:34.885Z</time>
      </trkpt>
      <trkpt lat="45.91795" lon="4.70262">
        <ele>219.18</ele>
        <time>2025-10-23T13:53:40.665Z</time>
      </trkpt>
      <trkpt lat="45.91793" lon="4.7026">
        <ele>219.04</ele>
        <time>2025-10-23T13:53:46.446Z</time>
      </trkpt>
      <trkpt lat="45.91787" lon="4.70253">
        <ele>218.91</ele>
        <time>2025-10-23T13:53:52.230Z</time>
      </trkpt>
      <trkpt lat="45.91783" lon="4.7025">
        <ele>218.75</ele>
        <time>2025-10-23T13:53:58.016Z</time>
      </trkpt>
      <trkpt lat="45.91775" lon="4.70242">
        <ele>218.59</ele>
        <time>2025-10-23T13:54:03.806Z</time>
      </trkpt>
      <trkpt lat="45.91768" lon="4.70237">
        <ele>218.4</ele>
        <time>2025-10-23T13:54:09.599Z</time>
      </trkpt>
      <trkpt lat="45.91761" lon="4.70231">
        <ele>218.18</ele>
        <time>2025-10-23T13:54:15.395Z</time>
      </trkpt>
      <trkpt lat="45.91747" lon="4.70217">
        <ele>217.93</ele>
        <time>2025-10-23T13:54:21.199Z</time>
      </trkpt>
      <trkpt lat="45.91742" lon="4.70214">
        <ele>217.63</ele>
        <time>2025-10-23T13:54:27.005Z</time>
      </trkpt>
      <trkpt lat="45.91741" lon="4.70216">
        <ele>217.27</ele>
        <time>2025-10-23T13:54:32.812Z</time>
      </trkpt>
      <trkpt lat="45.91742" lon="4.70231">
        <ele>216.84</ele>
        <time>2025-10-23T13:54:38.623Z</time>
      </trkpt>
      <trkpt lat="45.91743" lon="4.70234">
        <ele>216.41</ele>
        <time>2025-10-23T13:54:44.435Z</time>
      </trkpt>
      <trkpt lat="45.91745" lon="4.7025">
        <ele>215.91</ele>
        <time>2025-10-23T13:54:50.251Z</time>
      </trkpt>
      <trkpt lat="45.91744" lon="4.70256">
        <ele>215.38</ele>
        <time>2025-10-23T13:54:56.069Z</time>
      </trkpt>
      <trkpt lat="45.91744" lon="4.70259">
        <ele>214.8</ele>
        <time>2025-10-23T13:55:01.888Z</time>
      </trkpt>
      <trkpt lat="45.91744" lon="4.70273">
        <ele>214.14</ele>
        <time>2025-10-23T13:55:07.711Z</time>
      </trkpt>
      <trkpt lat="45.91744" lon="4.70276">
        <ele>213.49</ele>
        <time>2025-10-23T13:55:13.535Z</time>
      </trkpt>
      <trkpt lat="45.91744" lon="4.70298">
        <ele>212.71</ele>
        <time>2025-10-23T13:55:19.365Z</time>
      </trkpt>
      <trkpt lat="45.91744" lon="4.70305">
        <ele>211.95</ele>
        <time>2025-10-23T13:55:25.198Z</time>
      </trkpt>
      <trkpt lat="45.91744" lon="4.7032">
        <ele>211.12</ele>
        <time>2025-10-23T13:55:31.035Z</time>
      </trkpt>
      <trkpt lat="45.91742" lon="4.7034">
        <ele>210.23</ele>
        <time>2025-10-23T13:55:36.878Z</time>
      </trkpt>
      <trkpt lat="45.91738" lon="4.70362">
        <ele>209.37</ele>
        <time>2025-10-23T13:55:42.727Z</time>
      </trkpt>
      <trkpt lat="45.91738" lon="4.70366">
        <ele>208.58</ele>
        <time>2025-10-23T13:55:48.577Z</time>
      </trkpt>
      <trkpt lat="45.91736" lon="4.7038">
        <ele>207.73</ele>
        <time>2025-10-23T13:55:54.432Z</time>
      </trkpt>
      <trkpt lat="45.91736" lon="4.70384">
        <ele>206.93</ele>
        <time>2025-10-23T13:56:00.288Z</time>
      </trkpt>
      <trkpt lat="45.91733" lon="4.70403">
        <ele>206.07</ele>
        <time>2025-10-23T13:56:06.149Z</time>
      </trkpt>
      <trkpt lat="45.91732" lon="4.70411">
        <ele>205.29</ele>
        <time>2025-10-23T13:56:12.013Z</time>
      </trkpt>
      <trkpt lat="45.91728" lon="4.7043">
        <ele>204.47</ele>
        <time>2025-10-23T13:56:17.882Z</time>
      </trkpt>
      <trkpt lat="45.91728" lon="4.70435">
        <ele>203.71</ele>
        <time>2025-10-23T13:56:23.753Z</time>
      </trkpt>
      <trkpt lat="45.91727" lon="4.70442">
        <ele>202.95</ele>
        <time>2025-10-23T13:56:29.626Z</time>
      </trkpt>
      <trkpt lat="45.91725" lon="4.70463">
        <ele>202.22</ele>
        <time>2025-10-23T13:56:35.505Z</time>
      </trkpt>
      <trkpt lat="45.91724" lon="4.70467">
        <ele>201.51</ele>
        <time>2025-10-23T13:56:41.385Z</time>
      </trkpt>
      <trkpt lat="45.91721" lon="4.70488">
        <ele>200.79</ele>
        <time>2025-10-23T13:56:47.272Z</time>
      </trkpt>
      <trkpt lat="45.9172" lon="4.70499">
        <ele>200.11</ele>
        <time>2025-10-23T13:56:53.162Z</time>
      </trkpt>
      <trkpt lat="45.91718" lon="4.70517">
        <ele>199.46</ele>
        <time>2025-10-23T13:56:59.057Z</time>
      </trkpt>
      <trkpt lat="45.91716" lon="4.70535">
        <ele>198.83</ele>
        <time>2025-10-23T13:57:04.957Z</time>
      </trkpt>
      <trkpt lat="45.91716" lon="4.70539">
        <ele>198.2</ele>
        <time>2025-10-23T13:57:10.859Z</time>
      </trkpt>
      <trkpt lat="45.91715" lon="4.70557">
        <ele>197.56</ele>
        <time>2025-10-23T13:57:16.766Z</time>
      </trkpt>
      <trkpt lat="45.91712" lon="4.7057">
        <ele>196.95</ele>
        <time>2025-10-23T13:57:22.677Z</time>
      </trkpt>
      <trkpt lat="45.91711" lon="4.70573">
        <ele>196.38</ele>
        <time>2025-10-23T13:57:28.589Z</time>
      </trkpt>
      <trkpt lat="45.91706" lon="4.70593">
        <ele>195.81</ele>
        <time>2025-10-23T13:57:34.507Z</time>
      </trkpt>
      <trkpt lat="45.91705" lon="4.70601">
        <ele>195.26</ele>
        <time>2025-10-23T13:57:40.427Z</time>
      </trkpt>
      <trkpt lat="45.91702" lon="4.7061">
        <ele>194.71</ele>
        <time>2025-10-23T13:57:46.350Z</time>
      </trkpt>
      <trkpt lat="45.91696" lon="4.70626">
        <ele>194.13</ele>
        <time>2025-10-23T13:57:52.278Z</time>
      </trkpt>
      <trkpt lat="45.91694" lon="4.7063">
        <ele>193.59</ele>
        <time>2025-10-23T13:57:58.208Z</time>
      </trkpt>
      <trkpt lat="45.91688" lon="4.70645">
        <ele>193</ele>
        <time>2025-10-23T13:58:04.143Z</time>
      </trkpt>
      <trkpt lat="45.91686" lon="4.70651">
        <ele>192.46</ele>
        <time>2025-10-23T13:58:10.080Z</time>
      </trkpt>
      <trkpt lat="45.91684" lon="4.70657">
        <ele>191.95</ele>
        <time>2025-10-23T13:58:16.019Z</time>
      </trkpt>
      <trkpt lat="45.9168" lon="4.70671">
        <ele>191.44</ele>
        <time>2025-10-23T13:58:21.962Z</time>
      </trkpt>
      <trkpt lat="45.91676" lon="4.70684">
        <ele>190.94</ele>
        <time>2025-10-23T13:58:27.909Z</time>
      </trkpt>
      <trkpt lat="45.91672" lon="4.70701">
        <ele>190.45</ele>
        <time>2025-10-23T13:58:33.861Z</time>
      </trkpt>
      <trkpt lat="45.91668" lon="4.70715">
        <ele>189.99</ele>
        <time>2025-10-23T13:58:39.818Z</time>
      </trkpt>
      <trkpt lat="45.91663" lon="4.7073">
        <ele>189.58</ele>
        <time>2025-10-23T13:58:45.779Z</time>
      </trkpt>
      <trkpt lat="45.91656" lon="4.70742">
        <ele>189.18</ele>
        <time>2025-10-23T13:58:51.745Z</time>
      </trkpt>
      <trkpt lat="45.91617" lon="4.70791">
        <ele>187.8</ele>
        <time>2025-10-23T13:59:15.660Z</time>
      </trkpt>
      <trkpt lat="45.91615" lon="4.70793">
        <ele>187.56</ele>
        <time>2025-10-23T13:59:21.649Z</time>
      </trkpt>
      <trkpt lat="45.91609" lon="4.708">
        <ele>187.34</ele>
        <time>2025-10-23T13:59:27.641Z</time>
      </trkpt>
      <trkpt lat="45.91601" lon="4.7081">
        <ele>187.11</ele>
        <time>2025-10-23T13:59:33.637Z</time>
      </trkpt>
      <trkpt lat="45.91588" lon="4.70821">
        <ele>186.98</ele>
        <time>2025-10-23T13:59:39.639Z</time>
      </trkpt>
      <trkpt lat="45.91586" lon="4.70822">
        <ele>186.91</ele>
        <time>2025-10-23T13:59:45.642Z</time>
      </trkpt>
      <trkpt lat="45.91584" lon="4.70823">
        <ele>186.89</ele>
        <time>2025-10-23T13:59:51.646Z</time>
        <extensions>
          <visugpx:TrkExtension xmlns:visugpx="https://www.visugpx.com/editgpx/">
            <visugpx:node>1</visugpx:node>
            </visugpx:TrkExtension>
        </extensions>
      </trkpt>
    </trkseg>
  </trk>
</gpx>